[[{"header":{"parameterUnit":"m.s-1","parameterCategory":1,"la1":30.6,"la2":28.766,"lo1":-90.7593,"lo2":-88.6598,"dy":0.0162,"dx":0.0183,"nx":116,"ny":114,"refTime":"2024-02-10T18:00:00:Z","depth":0,"parameterNumber":2,"parameterNumberName":"U-component_of_WINDS"},"data":[0.0,0.0,0.0,0.0,0.0,0.0,0.0,0.0,0.0,0.0,0.0,0.0,0.0,0.0,0.0,0.0,0.0,0.0,0.0,0.0,0.0,0.0,0.0,0.0,0.0,0.0,0.0,0.0,0.0,0.0,0.0,0.0,0.0,0.0,0.0,0.0,0.0,0.0,0.0,0.0,0.0,0.0,0.0,0.0,0.0,0.0,0.0,0.0,0.0,0.0,0.0,0.0,0.0,0.0,0.0,0.0,0.0,0.0,0.0,0.0,0.0,0.0,0.0,0.0,0.0,0.0,0.0,0.0,0.0,0.0,0.0,0.0,0.0,0.0,0.0,0.0,0.0,0.0,0.0,0.0,0.0,0.0,0.0,0.0,0.0,0.0,0.0,0.0,0.0,0.0,0.0,0.0,0.0,0.0,0.0,0.0,0.0,0.0,0.0,0.0,0.0,0.0,0.0,0.0,0.0,0.0,0.0,0.0,0.0,0.0,0.0,0.0,0.0,0.0,0.0,0.0,0.0,0.0,0.0,0.0,0.0,0.0,0.0,0.0,0.0,0.0,0.0,0.0,0.0,0.0,0.0,0.0,0.0,0.0,0.0,0.0,0.0,0.0,0.0,0.0,0.0,0.0,0.0,0.0,0.0,0.0,0.0,0.0,0.0,0.0,0.0,0.0,0.0,0.0,0.0,0.0,0.0,0.0,0.0,0.0,0.0,0.0,0.0,0.0,0.0,0.0,0.0,0.0,0.0,0.0,0.0,0.0,0.0,0.0,0.0,0.0,0.0,0.0,0.0,0.0,0.0,0.0,0.0,0.0,0.0,0.0,0.0,0.0,0.0,0.0,0.0,0.0,0.0,0.0,0.0,0.0,0.0,0.0,0.0,0.0,0.0,0.0,0.0,0.0,0.0,0.0,0.0,0.0,0.0,0.0,0.0,0.0,0.0,0.0,0.0,0.0,0.0,0.0,0.0,0.0,0.0,0.0,0.0,0.0,0.0,0.0,0.0,0.0,0.0,0.0,0.0,0.0,0.0,0.0,0.0,0.0,0.0,0.0,0.0,0.0,0.0,0.0,0.0,0.0,0.0,0.0,0.0,0.0,0.0,0.0,0.0,0.0,0.0,0.0,0.0,0.0,0.0,0.0,0.0,0.0,0.0,0.0,0.0,0.0,0.0,0.0,0.0,0.0,0.0,0.0,0.0,0.0,0.0,0.0,0.0,0.0,0.0,0.0,0.0,0.0,0.0,0.0,0.0,0.0,0.0,0.0,0.0,0.0,0.0,0.0,0.0,0.0,0.0,0.0,0.0,0.0,0.0,0.0,0.0,0.0,0.0,0.0,0.0,0.0,0.0,0.0,0.0,0.0,0.0,0.0,0.0,0.0,0.0,0.0,0.0,0.0,0.0,0.0,0.0,0.0,0.0,0.0,0.0,0.0,0.0,0.0,0.0,0.0,0.0,0.0,0.0,0.0,0.0,0.0,0.0,0.0,0.0,0.0,0.0,0.0,0.0,0.0,0.0,0.0,0.0,0.0,0.0,0.0,0.0,0.0,0.0,0.0,0.0,0.0,0.0,0.0,0.0,0.0,0.0,0.0,0.0,0.0,0.0,0.0,0.0,0.0,0.0,0.0,0.0,0.0,0.0,0.0,0.0,0.0,0.0,0.0,0.0,0.0,0.0,0.0,0.0,0.0,0.0,0.0,0.0,0.0,0.0,0.0,0.0,0.0,0.0,0.0,0.0,0.0,0.0,0.0,0.0,0.0,0.0,0.0,0.0,0.0,0.0,0.0,0.0,0.0,0.0,0.0,0.0,0.0,0.0,0.0,0.0,0.0,0.0,0.0,0.0,0.0,0.0,0.0,0.0,0.0,0.0,0.0,0.0,0.0,0.0,0.0,0.0,0.0,0.0,0.0,0.0,0.0,0.0,0.0,0.0,0.0,0.0,0.0,0.0,0.0,0.0,0.0,0.0,0.0,0.0,0.0,0.0,0.0,0.0,0.0,0.0,0.0,0.0,0.0,0.0,0.0,0.0,0.0,0.0,0.0,0.0,0.0,0.0,0.0,0.0,0.0,0.0,0.0,0.0,0.0,0.0,0.0,0.0,0.0,0.0,0.0,0.0,0.0,0.0,0.0,0.0,0.0,0.0,0.0,0.0,0.0,0.0,0.0,0.0,0.0,0.0,0.0,0.0,0.0,0.0,0.0,0.0,0.0,0.0,0.0,0.0,0.0,0.0,0.0,0.0,0.0,0.0,0.0,0.0,0.0,0.0,0.0,0.0,0.0,0.0,0.0,0.0,0.0,0.0,0.0,0.0,0.0,0.0,0.0,0.0,0.0,0.0,0.0,0.0,0.0,0.0,0.0,0.0,0.0,0.0,0.0,0.0,0.0,0.0,0.0,0.0,0.0,0.0,0.0,0.0,0.0,0.0,0.0,0.0,0.0,0.0,0.0,0.0,0.0,0.0,0.0,0.0,0.0,0.0,0.0,0.0,0.0,0.0,0.0,0.0,0.0,0.0,0.0,0.0,0.0,0.0,0.0,0.0,0.0,0.0,0.0,0.0,0.0,0.0,0.0,0.0,0.0,0.0,0.0,0.0,0.0,0.0,0.0,0.0,0.0,0.0,0.0,0.0,0.0,0.0,0.0,0.0,0.0,0.0,0.0,0.0,0.0,0.0,0.0,0.0,0.0,0.0,0.0,0.0,0.0,0.0,0.0,0.0,0.0,0.0,0.0,0.0,0.0,0.0,0.0,0.0,0.0,0.0,0.0,0.0,0.0,0.0,0.0,0.0,0.0,0.0,0.0,0.0,0.0,0.0,0.0,0.0,0.0,0.0,0.0,0.0,0.0,0.0,0.0,0.0,0.0,0.0,0.0,0.0,0.0,0.0,0.0,0.0,0.0,0.0,0.0,0.0,0.0,0.0,0.0,0.0,0.0,0.0,0.0,0.0,0.0,0.0,0.0,0.0,0.0,0.0,0.0,0.0,0.0,0.0,0.0,0.0,0.0,0.0,0.0,0.0,0.0,0.0,0.0,0.0,0.0,0.0,0.0,0.0,0.0,0.0,0.0,0.0,0.0,0.0,0.0,0.0,0.0,0.0,0.0,0.0,0.0,0.0,0.0,0.0,0.0,0.0,0.0,0.0,0.0,0.0,0.0,0.0,0.0,0.0,0.0,0.0,0.0,0.0,0.0,0.0,0.0,0.0,0.0,0.0,0.0,0.0,0.0,0.0,0.0,0.0,0.0,0.0,0.0,0.0,0.0,0.0,0.0,0.0,0.0,0.0,0.0,0.0,0.0,0.0,0.0,0.0,0.0,0.0,0.0,0.0,0.0,0.0,0.0,0.0,0.0,0.0,0.0,0.0,0.0,0.0,0.0,0.0,0.0,0.0,0.0,0.0,0.0,0.0,0.0,0.0,0.0,0.0,0.0,0.0,0.0,0.0,0.0,0.0,0.0,0.0,0.0,0.0,0.0,0.0,0.0,0.0,0.0,0.0,0.0,0.0,0.0,0.0,0.0,0.0,0.0,0.0,0.0,0.0,0.0,0.0,0.0,0.0,0.0,0.0,0.0,0.0,0.0,0.0,0.0,0.0,0.0,0.0,0.0,0.0,0.0,0.0,0.0,0.0,0.0,0.0,0.0,0.0,0.0,0.0,0.0,0.0,0.0,0.0,0.0,0.0,0.0,0.0,0.0,0.0,0.0,0.0,0.0,0.0,0.0,0.0,0.0,0.0,0.0,0.0,0.0,0.0,0.0,0.0,0.0,0.0,0.0,0.0,0.0,0.0,0.0,0.0,0.0,0.0,0.0,0.0,0.0,0.0,0.0,0.0,0.0,0.0,0.0,0.0,0.0,0.0,0.0,0.0,0.0,0.0,0.0,0.0,0.0,0.0,0.0,0.0,0.0,0.0,0.0,0.0,0.0,0.0,0.0,0.0,0.0,0.0,0.0,0.0,0.0,0.0,0.0,0.0,0.0,0.0,0.0,0.0,0.0,0.0,0.0,0.0,0.0,0.0,0.0,0.0,0.0,0.0,0.0,0.0,0.0,0.0,0.0,0.0,0.0,0.0,0.0,0.0,0.0,0.0,0.0,0.0,0.0,0.0,0.0,0.0,0.0,0.0,0.0,0.0,0.0,0.0,0.0,0.0,0.0,0.0,0.0,0.0,0.0,0.0,0.0,0.0,0.0,0.0,0.0,0.0,0.0,0.0,0.0,0.0,0.0,0.0,0.0,0.0,0.0,0.0,0.0,0.0,0.0,0.0,0.0,0.0,0.0,0.0,0.0,0.0,0.0,0.0,0.0,0.0,0.0,0.0,0.0,0.0,0.0,0.0,0.0,0.0,0.0,0.0,0.0,0.0,0.0,0.0,0.0,0.0,0.0,0.0,0.0,0.0,0.0,0.0,0.0,0.0,0.0,0.0,0.0,0.0,0.0,0.0,0.0,0.0,0.0,0.0,0.0,0.0,0.0,0.0,0.0,0.0,0.0,0.0,0.0,0.0,0.0,0.0,0.0,0.0,0.0,0.0,0.0,0.0,0.0,0.0,0.0,0.0,0.0,0.0,0.0,0.0,0.0,0.0,0.0,0.0,0.0,0.0,0.0,0.0,0.0,0.0,0.0,0.0,0.0,0.0,0.0,0.0,0.0,0.0,0.0,0.0,0.0,0.0,0.0,0.0,0.0,0.0,0.0,0.0,0.0,0.0,0.0,0.0,0.0,0.0,0.0,0.0,0.0,0.0,0.0,0.0,0.0,0.0,0.0,0.0,0.0,0.0,0.0,0.0,0.0,0.0,0.0,0.0,0.0,0.0,0.0,0.0,0.0,0.0,0.0,0.0,0.0,0.0,0.0,0.0,0.0,0.0,0.0,0.0,0.0,0.0,0.0,0.0,0.0,0.0,0.0,0.0,0.0,0.0,0.0,0.0,0.0,0.0,0.0,0.0,0.0,0.0,0.0,0.0,0.0,0.0,0.0,0.0,0.0,0.0,0.0,0.0,0.0,0.0,0.0,0.0,0.0,0.0,0.0,0.0,0.0,0.0,0.0,0.0,0.0,0.0,0.0,0.0,0.0,0.0,0.0,0.0,0.0,0.0,0.0,0.0,0.0,0.0,0.0,0.0,0.0,0.0,0.0,0.0,0.0,0.0,0.0,0.0,0.0,0.0,0.0,0.0,0.0,0.0,0.0,0.0,0.0,0.0,0.0,0.0,0.0,0.0,0.0,0.0,0.0,0.0,0.0,0.0,0.0,0.0,0.0,0.0,0.0,0.0,0.0,0.0,0.0,0.0,0.0,0.0,0.0,0.0,0.0,0.0,0.0,0.0,0.0,0.0,0.0,0.0,0.0,0.0,0.0,0.0,0.0,0.0,0.0,0.0,0.0,0.0,0.0,0.0,0.0,0.0,0.0,0.0,0.0,0.0,0.0,0.0,0.0,0.0,0.0,0.0,0.0,0.0,0.0,0.0,0.0,0.0,0.0,0.0,0.0,0.0,0.0,0.0,0.0,0.0,0.0,0.0,0.0,0.0,0.0,0.0,0.0,0.0,0.0,0.0,0.0,0.0,0.0,0.0,0.0,0.0,0.0,0.0,0.0,0.0,0.0,0.0,0.0,0.0,0.0,0.0,0.0,0.0,0.0,0.0,0.0,0.0,0.0,0.0,0.0,0.0,0.0,0.0,0.0,0.0,0.0,0.0,0.0,0.0,0.0,0.0,0.0,0.0,0.0,0.0,0.0,0.0,0.0,0.0,0.0,0.0,0.0,0.0,0.0,0.0,0.0,0.0,0.0,0.0,0.0,0.0,0.0,0.0,0.0,0.0,0.0,0.0,0.0,0.0,0.0,0.0,0.0,0.0,0.0,0.0,0.0,0.0,0.0,0.0,0.0,0.0,0.0,0.0,0.0,0.0,0.0,0.0,0.0,0.0,0.0,0.0,0.0,0.0,0.0,0.0,0.0,0.0,0.0,0.0,0.0,0.0,0.0,0.0,0.0,0.0,0.0,0.0,0.0,0.0,0.0,0.0,0.0,0.0,0.0,0.0,0.0,0.0,0.0,0.0,0.0,0.0,0.0,0.0,0.0,0.0,0.0,0.0,0.0,-2.6297,-2.5367,0.0,0.0,0.0,0.0,0.0,0.0,0.0,0.0,0.0,0.0,0.0,0.0,0.0,0.0,0.0,0.0,0.0,0.0,0.0,0.0,0.0,0.0,0.0,0.0,0.0,0.0,-1.9118,-1.8921,-1.9106,-1.894,-1.8908,-1.9093,-1.8564,-1.8284,-1.8339,-1.7256,-1.6999,-1.7631,-1.7887,-1.8658,-1.9909,-2.033,-2.0096,-1.9276,0.0,0.0,0.0,0.0,0.0,0.0,0.0,0.0,0.0,0.0,0.0,0.0,0.0,0.0,0.0,0.0,0.0,0.0,0.0,0.0,0.0,0.0,0.0,0.0,0.0,0.0,0.0,0.0,0.0,0.0,0.0,0.0,0.0,0.0,0.0,0.0,0.0,0.0,0.0,0.0,0.0,0.0,0.0,0.0,0.0,0.0,0.0,0.0,0.0,0.0,0.0,0.0,0.0,0.0,0.0,0.0,0.0,0.0,0.0,0.0,0.0,0.0,0.0,0.0,0.0,0.0,0.0,0.0,0.0,0.0,-2.6182,-2.6032,0.0,0.0,0.0,0.0,0.0,0.0,0.0,0.0,0.0,0.0,0.0,0.0,0.0,0.0,0.0,0.0,0.0,0.0,0.0,0.0,0.0,0.0,0.0,-1.7827,-1.7501,-1.7483,-1.7271,-1.7142,-1.7206,-1.7354,-1.7454,-1.7486,-1.7288,-1.7139,-1.7099,-1.6133,-1.6086,-1.701,-1.7766,-1.918,-2.1145,-2.1523,-2.0798,0.0,0.0,0.0,0.0,0.0,0.0,0.0,0.0,0.0,0.0,0.0,0.0,0.0,0.0,0.0,0.0,0.0,0.0,0.0,0.0,0.0,0.0,0.0,0.0,0.0,0.0,0.0,0.0,0.0,0.0,0.0,0.0,0.0,0.0,0.0,0.0,0.0,0.0,0.0,0.0,0.0,0.0,0.0,0.0,0.0,0.0,0.0,0.0,0.0,0.0,0.0,0.0,0.0,0.0,0.0,0.0,0.0,0.0,0.0,0.0,0.0,0.0,0.0,0.0,0.0,-2.7024,-2.7017,-2.6906,-2.6906,-2.641,-2.5617,-2.6261,-2.697,-2.7588,-2.6658,0.0,0.0,0.0,0.0,0.0,0.0,0.0,0.0,0.0,0.0,0.0,0.0,0.0,0.0,0.0,0.0,0.0,0.0,0.0,0.0,0.0,-1.6368,-1.6353,-1.6254,-1.5844,-1.5716,-1.6011,-1.5517,-1.5272,-1.5394,-1.5417,-1.5311,-1.5089,-1.5543,-1.6184,-1.6986,-1.8697,-1.9857,-2.0517,-2.075,-2.0717,-2.053,0.0,0.0,0.0,0.0,0.0,0.0,0.0,0.0,0.0,0.0,0.0,0.0,0.0,0.0,0.0,0.0,0.0,0.0,0.0,0.0,0.0,0.0,0.0,0.0,0.0,0.0,0.0,0.0,0.0,0.0,0.0,0.0,0.0,0.0,0.0,0.0,0.0,0.0,0.0,0.0,0.0,0.0,0.0,0.0,-2.3267,-2.4617,0.0,0.0,0.0,0.0,0.0,0.0,0.0,0.0,0.0,0.0,0.0,0.0,0.0,-2.6402,-2.6402,-2.7075,-2.741,-2.741,-2.7875,-2.7981,-2.7745,-2.7745,-2.7508,-2.7035,-2.5729,0.0,-2.673,-2.7259,0.0,0.0,0.0,0.0,0.0,0.0,0.0,0.0,0.0,0.0,0.0,0.0,0.0,0.0,0.0,0.0,0.0,0.0,0.0,0.0,0.0,-1.5067,-1.5164,-1.5112,-1.5254,-1.5089,-1.4489,-1.4356,-1.4006,-1.3347,-1.3483,-1.357,-1.3524,-1.3723,-1.4877,-1.7001,-1.8893,-2.0301,-2.1251,-2.15,-2.1694,-2.187,-2.2943,-2.2766,-2.1695,-2.1585,0.0,0.0,0.0,0.0,0.0,0.0,0.0,0.0,0.0,0.0,0.0,0.0,0.0,0.0,0.0,0.0,0.0,0.0,0.0,0.0,0.0,0.0,0.0,0.0,0.0,0.0,0.0,0.0,0.0,0.0,0.0,0.0,0.0,0.0,0.0,0.0,0.0,0.0,0.0,-2.3119,-2.401,-2.4717,-2.5034,-2.4843,0.0,0.0,0.0,0.0,0.0,0.0,0.0,0.0,0.0,-2.5352,-2.6165,-2.6357,-2.5853,-2.6903,-2.7459,-2.7495,-2.7731,-2.7765,-2.7619,-2.7619,-2.7502,-2.7255,-2.6519,-2.6458,-2.689,-2.67,-2.7075,-2.7676,0.0,0.0,0.0,0.0,-2.5607,-2.6098,0.0,0.0,0.0,0.0,0.0,0.0,0.0,0.0,0.0,0.0,0.0,0.0,-1.3313,-1.3582,-1.3729,-1.3718,-1.4216,-1.4101,-1.3085,-1.3153,-1.2815,-1.1885,-1.1932,-1.2021,-1.2032,-1.2487,-1.4154,-1.7096,-1.8711,-2.0121,-2.1325,-2.1647,-2.1945,-2.2212,-2.293,-2.2915,-2.2295,-2.2345,-2.2209,0.0,0.0,0.0,0.0,0.0,0.0,0.0,0.0,0.0,0.0,0.0,0.0,0.0,0.0,0.0,0.0,0.0,0.0,0.0,0.0,0.0,0.0,0.0,0.0,0.0,0.0,0.0,0.0,0.0,0.0,0.0,0.0,0.0,0.0,0.0,0.0,0.0,0.0,-2.3571,-2.4306,-2.4849,-2.5221,-2.5057,0.0,0.0,0.0,0.0,0.0,0.0,-2.5747,-2.56,-2.5401,-2.5125,-2.6215,-2.6497,-2.583,-2.6899,-2.7472,-2.75,-2.75,-2.7424,-2.7303,-2.7303,-2.7195,-2.7022,-2.7022,-2.7037,-2.7046,-2.6409,-2.6644,-2.7369,-2.7417,-2.7061,-2.6523,-2.6045,-2.6113,-2.6334,0.0,0.0,0.0,0.0,0.0,0.0,0.0,0.0,0.0,0.0,0.0,-1.1465,-1.1368,-1.1691,-1.1926,-1.1838,-1.2042,-1.2124,-1.198,-1.1634,-1.1437,-1.1417,-1.1085,-1.0768,-1.052,-1.2685,-1.4979,-1.7394,-1.8244,-1.9031,-1.9724,-2.0179,-2.0529,-2.0813,-2.1304,-2.1617,-2.1763,-2.2135,-2.1684,-2.0574,0.0,0.0,0.0,0.0,0.0,0.0,0.0,0.0,0.0,0.0,0.0,0.0,0.0,0.0,0.0,0.0,0.0,0.0,0.0,0.0,0.0,0.0,0.0,0.0,0.0,0.0,0.0,0.0,0.0,0.0,0.0,0.0,0.0,0.0,0.0,0.0,0.0,0.0,0.0,-2.498,-2.5849,0.0,0.0,0.0,0.0,-2.4775,-2.4599,-2.5017,-2.6196,-2.6137,-2.6445,-2.7317,-2.7531,-2.7584,-2.7475,-2.7545,-2.7552,-2.7494,-2.7494,-2.7324,-2.7022,-2.7022,-2.6842,-2.6537,-2.6537,-2.664,-2.6841,-2.703,-2.7317,-2.7497,-2.6697,-2.6525,-2.6565,-2.4776,-2.509,-2.6278,0.0,0.0,0.0,0.0,0.0,0.0,0.0,0.0,-0.9088,-0.9328,-0.98,-1.0086,-1.0049,-1.1048,-1.1723,-1.1696,-1.228,-1.2218,-1.1258,-1.0771,-1.0241,-0.963,-0.917,-0.94,-1.0388,-1.2904,-1.4788,-1.592,-1.7364,-1.8201,-1.8445,-1.851,-1.8602,-1.8735,-1.9312,-1.9635,-1.9806,-2.1557,-2.1783,-2.0896,-2.0637,-1.9784,0.0,0.0,0.0,0.0,0.0,0.0,0.0,0.0,0.0,0.0,0.0,0.0,0.0,0.0,0.0,0.0,0.0,0.0,0.0,0.0,0.0,0.0,0.0,0.0,0.0,0.0,0.0,0.0,0.0,0.0,0.0,0.0,0.0,0.0,0.0,0.0,0.0,-2.428,-2.4932,0.0,-2.4607,-2.5011,-2.506,-2.4474,-2.4913,-2.5509,-2.6202,-2.6067,-2.6219,-2.6757,-2.6791,-2.6841,-2.6957,-2.6908,-2.6908,-2.6908,-2.6792,-2.6742,-2.6725,-2.6607,-2.6538,-2.6502,-2.6502,-2.6537,-2.6606,-2.6708,-2.6971,-2.7311,-2.6989,-2.6944,-2.6993,-2.6306,-2.6417,-2.6866,0.0,0.0,0.0,0.0,0.0,0.0,0.0,0.0,-0.8014,-0.826,-0.889,-0.9407,-0.9602,-1.0574,-1.1165,-1.107,-1.1601,-1.136,-1.0042,-0.9523,-0.8957,-0.8265,-0.8064,-0.8879,-1.0805,-1.2446,-1.3695,-1.4562,-1.5772,-1.6409,-1.6522,-1.6578,-1.6645,-1.6785,-1.7609,-1.8005,-1.822,-2.028,-2.1074,-2.0954,-2.0937,-1.9878,-1.8238,0.0,0.0,0.0,0.0,0.0,0.0,0.0,0.0,0.0,0.0,0.0,0.0,0.0,0.0,0.0,0.0,0.0,0.0,0.0,0.0,0.0,0.0,0.0,0.0,0.0,0.0,0.0,0.0,0.0,0.0,0.0,0.0,0.0,0.0,-2.1809,-2.2613,-2.384,-2.4303,-2.4454,-2.4256,-2.4624,-2.4738,-2.4392,-2.5001,-2.553,-2.5903,-2.5917,-2.5937,-2.6067,-2.6031,-2.6137,-2.633,-2.6295,-2.6399,-2.6623,-2.6365,-2.6261,-2.6314,-2.6049,-2.5679,-2.532,-2.5745,-2.5661,-2.5266,-2.5724,-2.6068,-2.6368,-2.6758,-2.6808,-2.6691,-2.6774,-2.6841,-2.6857,0.0,0.0,0.0,0.0,0.0,0.0,0.0,-0.702,-0.7537,-0.8108,-0.8723,-0.9328,-0.9916,-1.0126,-1.0104,-0.9773,-0.9741,-0.934,-0.8322,-0.7825,-0.7531,-0.7436,-0.7843,-0.919,-1.1539,-1.1247,-1.1824,-1.3381,-1.3411,-1.3623,-1.3965,-1.4357,-1.4721,-1.51,-1.6144,-1.6774,-1.7059,-1.8267,-1.9441,-2.0475,-1.9865,-1.9012,-1.7964,0.0,0.0,0.0,0.0,0.0,0.0,0.0,0.0,0.0,0.0,0.0,0.0,0.0,0.0,0.0,0.0,0.0,0.0,0.0,0.0,0.0,0.0,0.0,0.0,0.0,0.0,0.0,0.0,0.0,0.0,0.0,0.0,0.0,-2.0342,-2.205,-2.3323,-2.3742,-2.4138,-2.4477,-2.4652,-2.4522,-2.4482,-2.4672,-2.4823,-2.502,-2.5349,-2.5631,-2.5668,-2.5354,-2.5414,-2.5547,-2.575,-2.5815,-2.6119,-2.6691,-2.6295,-2.6012,-2.5781,-2.5406,-2.4393,-2.3024,-2.4265,-2.4065,-2.2972,-2.4182,-2.4668,-2.4704,-2.5832,-2.6012,-2.5701,-2.5901,-2.61,-2.619,0.0,0.0,0.0,0.0,0.0,0.0,0.0,-0.5367,-0.5539,-0.562,-0.6347,-0.6944,-0.7098,-0.8014,-0.8608,-0.8511,-0.871,-0.8469,-0.7555,-0.6962,-0.6499,-0.6141,-0.7032,0.0,-0.8986,-0.9725,-1.0374,-1.0968,-1.155,-1.2212,-1.2907,-1.3262,-1.3661,-1.4106,-1.4542,-1.47,-1.4681,-1.5542,-1.6262,-1.6961,-1.9095,-1.9285,-1.8195,0.0,0.0,0.0,0.0,0.0,0.0,0.0,0.0,0.0,0.0,0.0,0.0,0.0,0.0,0.0,0.0,0.0,0.0,0.0,0.0,0.0,0.0,0.0,0.0,0.0,0.0,0.0,0.0,0.0,0.0,0.0,-1.8687,-2.0373,-2.1301,-2.1819,-2.2476,-2.3468,-2.3935,-2.4204,-2.4183,-2.441,-2.4574,-2.4619,-2.4655,-2.4715,-2.4815,-2.3935,-2.3697,-2.428,-2.4277,-2.4393,-2.4636,-2.6088,-2.6643,-2.6354,-2.6579,-2.6426,-2.5934,-2.5674,-2.5088,-2.4312,-2.4653,-2.4586,-2.4286,-2.463,-2.4561,-2.4323,-2.5005,-2.5214,-2.5137,-2.5346,-2.5349,-2.5093,0.0,0.0,0.0,0.0,0.0,0.0,0.0,-0.4739,-0.4864,-0.5084,-0.5666,-0.6215,-0.6501,-0.7327,-0.78,-0.7572,-0.767,-0.7324,-0.6313,-0.5859,-0.5761,0.0,0.0,-0.7449,-0.8207,-0.8854,-0.9311,-0.9565,-1.0191,-1.0763,-1.1246,-1.1587,-1.1904,-1.2158,-1.2557,-1.2763,-1.2838,-1.3763,-1.4309,-1.476,-1.6861,-1.7568,-1.734,-1.7496,-1.6955,-1.6089,-1.6046,-1.6173,-1.6254,-1.5711,0.0,0.0,0.0,0.0,0.0,0.0,0.0,0.0,0.0,0.0,0.0,0.0,0.0,0.0,0.0,0.0,0.0,0.0,0.0,0.0,0.0,0.0,0.0,0.0,-1.8323,-2.0165,-2.101,-2.153,-2.2091,-2.2786,-2.3068,-2.3187,-2.3172,-2.3363,-2.3601,-2.3794,-2.418,-2.4518,-2.4723,-2.4394,-2.4118,-2.3962,-2.441,-2.4532,-2.4197,-2.5911,-2.6725,-2.6616,-2.6713,-2.6274,-2.5366,-2.5096,-2.4115,-2.2709,-2.3483,-2.3335,-2.2631,-2.3405,-2.3425,0.0,0.0,0.0,0.0,0.0,-2.4148,-2.3646,0.0,0.0,0.0,0.0,0.0,0.0,0.0,-0.4539,-0.4718,-0.535,-0.5601,-0.5998,-0.6632,-0.6971,-0.6948,-0.6457,-0.6367,-0.5827,-0.4699,0.0,0.0,-0.6307,-0.641,-0.6922,-0.8011,-0.7994,-0.8151,-0.8463,-0.8796,-0.9026,-0.9218,-0.9532,-0.9786,-0.9952,-1.0577,-1.1034,-1.1324,-1.238,-1.3011,-1.3288,-1.3853,-1.4807,-1.5939,-1.6449,-1.6273,-1.574,-1.574,-1.5964,-1.6259,-1.6219,0.0,0.0,0.0,0.0,0.0,0.0,0.0,0.0,0.0,0.0,0.0,0.0,0.0,0.0,0.0,0.0,0.0,0.0,0.0,0.0,0.0,0.0,0.0,0.0,-1.7736,-1.9039,-1.9851,-2.0892,-2.1684,-2.1874,-2.1959,-2.1983,-2.1983,-2.1959,-2.2156,-2.2626,-2.3475,-2.4162,-2.4581,-2.5419,0.0,0.0,0.0,-2.4881,-2.3859,-2.5255,-2.6217,-2.6724,-2.6441,-2.5613,-2.432,-2.3944,-2.2397,-2.0016,-2.1638,-2.1356,-1.989,-2.1491,-2.1874,-2.1643,-2.3597,-2.3935,-2.3309,-2.3079,-2.2643,-2.2154,0.0,0.0,0.0,0.0,0.0,0.0,0.0,-0.2898,-0.273,-0.303,-0.2965,-0.2948,-0.3079,-0.3554,-0.3739,-0.354,-0.3729,-0.3627,0.0,0.0,-0.293,-0.3705,-0.4038,-0.451,-0.5104,-0.4938,-0.4972,-0.5206,-0.5397,-0.6142,-0.7404,-0.7733,-0.8415,-0.9366,-0.9824,-0.999,-0.992,-1.0413,-1.0815,-1.1152,-1.1781,-1.3301,-1.5117,-1.5107,-1.5208,-1.533,-1.533,-1.5376,-1.5376,-1.5123,-1.5348,-1.586,-1.636,0.0,0.0,0.0,0.0,0.0,0.0,0.0,0.0,0.0,0.0,0.0,0.0,0.0,0.0,0.0,0.0,0.0,0.0,0.0,0.0,-1.6173,-1.7145,-1.7977,-1.8365,-1.8759,-1.962,-2.1232,-2.1629,-2.1795,-2.1908,-2.1714,-2.1842,-2.2489,-2.252,-2.2577,-2.2784,-2.1988,-2.1599,-2.1739,-2.1885,-2.1894,-2.1777,-2.3602,-2.4303,-2.3893,0.0,0.0,-2.3287,-2.3205,-2.2524,-2.1415,-2.1767,-2.1693,-2.1391,-2.172,-2.1817,-2.1756,-2.2118,-2.2312,-2.2221,-2.1006,-2.1094,-2.1629,0.0,0.0,0.0,0.0,0.0,0.0,0.0,-0.1947,-0.1884,-0.1984,-0.2083,-0.2155,-0.2156,-0.2594,-0.2841,-0.2697,-0.2663,-0.2625,0.0,-0.2336,-0.2552,-0.3319,-0.356,-0.3868,-0.4284,-0.4217,-0.4184,-0.4287,-0.4547,-0.5071,-0.5851,-0.6204,-0.6661,-0.7279,-0.7687,-0.779,-0.7725,-0.8339,-0.8886,-0.9392,-1.0015,-1.1224,-1.283,-1.407,-1.4865,-1.5323,-1.5497,-1.5488,-1.537,-1.5205,-1.5314,-1.5539,-1.5844,-1.5832,-1.5567,0.0,0.0,0.0,0.0,0.0,0.0,0.0,0.0,0.0,0.0,0.0,0.0,0.0,0.0,-1.4022,-1.414,0.0,-1.5165,-1.5799,-1.6373,-1.6966,-1.7609,-1.7934,-1.8611,-2.0029,-2.0407,-2.0682,-2.1004,-2.093,-2.1088,-2.1704,-2.1932,-2.2169,-2.2496,-2.2169,-2.1899,-2.1661,-2.2236,-2.2297,-2.1752,-2.337,-2.4198,-2.4148,-2.412,-2.3789,-2.3247,-2.2942,-2.2213,-2.1202,-2.1188,-2.1017,-2.0671,-2.0333,-2.0371,-2.0585,-2.0257,-2.0705,-2.1441,-2.053,-2.051,-2.0837,0.0,0.0,0.0,0.0,0.0,0.0,0.0,-0.1344,-0.144,-0.1438,-0.167,-0.1836,-0.1828,-0.2166,-0.2325,-0.2189,-0.1919,0.0,0.0,-0.2093,-0.2302,-0.2902,-0.3009,-0.3178,-0.3449,-0.3482,-0.3482,-0.3549,-0.3846,-0.4046,-0.4179,-0.4469,-0.4728,-0.4995,-0.5401,-0.5672,-0.5837,-0.6658,-0.7307,-0.7822,-0.8307,-0.9143,-1.0344,-1.2508,-1.3835,-1.4619,-1.506,-1.5051,-1.4856,-1.5187,-1.5216,-1.5138,-1.5255,-1.5478,-1.538,-1.4063,-1.3952,0.0,0.0,0.0,0.0,0.0,0.0,0.0,0.0,-1.4097,-1.4331,-1.4235,-1.4292,-1.4345,-1.4345,-1.4482,-1.479,-1.552,-1.5779,-1.618,-1.7003,-1.7352,-1.7825,-1.8608,-1.8965,-1.9319,-1.9798,-1.9773,-2.0003,-2.0546,-2.1053,-2.1506,-2.1897,-2.2444,-2.2319,-2.1441,-2.2451,-2.2581,-2.1667,-2.268,-2.3476,-2.4012,-2.3358,-2.2869,-2.2547,-2.2026,-2.1206,-2.0194,-2.0156,-1.9863,-1.9344,-1.8724,-1.875,-1.9146,-1.8682,-1.9268,-2.0408,-2.022,-2.0054,-1.9888,0.0,0.0,0.0,0.0,0.0,0.0,0.0,0.0,-0.0827,-0.0888,-0.0727,-0.057,-0.0528,-0.0573,-0.0509,-0.0312,0.0,0.0,-0.0308,-0.0838,-0.0855,-0.0167,-0.0504,-0.0604,-0.047,-0.047,-0.0638,-0.094,-0.0974,-0.1307,-0.1944,-0.2009,-0.2676,-0.3908,-0.4306,-0.4806,-0.5408,-0.5972,-0.6272,-0.6371,-0.6593,-0.7497,-0.8779,-0.9362,-1.038,-1.1595,-1.2557,-1.2496,-1.2181,-1.3687,-1.4174,-1.4234,-1.4796,-1.5362,-1.5654,-1.4536,0.0,-1.3902,-1.2148,-1.1408,-1.1335,-1.2033,-1.3181,-1.4035,0.0,-1.4837,-1.5784,-1.4819,-1.4964,-1.5241,-1.5241,-1.5422,-1.5585,-1.5676,-1.581,-1.5936,-1.6066,-1.62,-1.6521,-1.7168,-1.782,-1.8325,-1.8501,-1.8282,-1.8444,-1.9087,-1.8975,-1.897,-1.9131,-1.9218,-1.9141,-1.89,-1.9035,-1.9206,-1.9357,-1.9338,-1.9503,-1.9879,-1.9503,-1.9269,-1.9216,-1.9047,-1.8893,-1.8727,-1.8608,-1.8581,-1.8593,-1.8224,-1.8209,-1.8394,-1.8143,-1.8174,-1.8389,-1.8833,-1.8895,-1.8801,0.0,0.0,0.0,0.0,0.0,0.0,0.0,0.0,0.0,-0.0117,-0.0142,-0.0122,-0.0026,0.0153,0.0358,0.0,0.0,0.0,0.0754,0.0494,0.0475,0.0738,0.0605,0.0436,0.0302,0.0101,-0.0067,-0.0202,-0.0403,-0.0672,-0.0974,-0.0974,-0.1275,-0.1842,-0.2245,-0.288,-0.3647,-0.4112,-0.4809,-0.5642,-0.5844,-0.6531,-0.7474,-0.7692,-0.8404,-0.9464,-1.0957,-1.1307,0.0,0.0,-1.2278,-1.236,-1.3019,-1.3147,-1.2957,-1.2458,-1.21,0.0,-1.1559,-1.1411,-1.1549,-1.262,-1.3396,-1.3991,-1.4301,-1.4676,-1.4974,-1.5082,-1.5042,-1.5118,-1.5488,-1.5302,-1.5245,-1.5737,-1.5443,-1.5366,-1.5938,-1.6066,-1.6228,-1.662,-1.6471,-1.6647,-1.7415,-1.7802,-1.7932,-1.7757,-1.8131,-1.8402,-1.8444,-1.859,-1.8697,-1.8789,-1.8685,-1.8727,-1.8939,-1.8768,-1.895,-1.9423,-1.8842,-1.88,-1.9209,-1.8804,-1.8459,-1.8135,-1.7961,-1.755,-1.6978,-1.6722,-1.669,-1.6791,-1.6381,-1.6398,-1.6864,-1.8074,-1.8459,-1.8471,0.0,0.0,0.0,0.0,0.0,0.0,0.0,0.0,0.0,0.0,0.0449,0.0388,0.0621,0.0796,0.0917,0.0,0.0,0.0,0.0,0.1257,0.1297,0.1441,0.1444,0.0,0.1106,0.1039,0.0939,0.0739,0.0671,0.0503,0.0201,0.0201,0.0,-0.037,-0.0672,-0.1276,-0.2115,-0.248,-0.3445,-0.4743,-0.4948,-0.5613,-0.6478,-0.6605,-0.6992,-0.7749,-0.9538,-1.0122,0.0,0.0,-1.0643,-1.0824,-1.1152,-1.1192,-1.111,-1.0877,-1.0366,-1.0017,-1.0814,-1.0947,-1.1202,-1.2616,-1.304,-1.3334,-1.4246,-1.4061,-1.3932,-1.4608,-1.4549,-1.4529,-1.501,-1.4761,-1.4705,-1.5322,-1.4949,-1.478,-1.5428,-1.5517,-1.5486,-1.5382,-1.4857,-1.4677,-1.5165,-1.6362,-1.6864,-1.6343,-1.6971,-1.7352,-1.7352,-1.7506,-1.7644,-1.7809,-1.7665,-1.7643,-1.7795,-1.767,-1.7878,-1.8435,-1.7779,-1.7762,-1.83,-1.7756,-1.7324,-1.6946,-1.675,-1.6234,-1.5497,-1.5274,-1.5245,-1.5322,-1.4845,-1.4924,-1.5467,-1.6729,-1.7241,-1.7352,0.0,0.0,0.0,0.0,0.0,0.0,0.0,0.0,0.0,0.0,0.0,0.0,0.0,0.0,0.0,0.0,0.0,0.0,0.0,0.117,0.1485,0.231,0.2348,0.245,0.2619,0.3247,0.328,0.2619,0.3247,0.3045,0.2012,0.2012,0.1308,0.0,-0.0034,-0.0504,-0.1344,-0.1543,-0.2278,-0.3282,-0.3485,-0.4519,-0.5921,-0.5921,-0.6097,-0.6538,-0.8023,0.0,0.0,0.0,-0.9583,-1.0023,-0.9535,-1.0354,0.0,-1.0781,-0.9953,-0.9337,-0.9887,-0.953,-0.9418,-1.1211,-1.1656,-1.1906,-1.2844,-1.3039,-1.3039,-1.307,-1.3321,-1.3541,-1.3571,-1.3927,-1.4207,-1.4234,-1.4382,-1.4403,-1.4115,-1.4055,-1.372,-1.2808,-1.285,-1.2434,-1.1103,-1.311,-1.4574,-1.476,-1.4894,-1.5001,-1.5001,-1.501,-1.4971,-1.4824,-1.4824,-1.4894,-1.5021,-1.4904,-1.5051,-1.5526,-1.5051,-1.4904,-1.504,-1.4756,-1.4608,-1.4588,-1.4392,-1.4392,-1.4529,-1.4181,-1.4142,-1.4234,-1.4091,-1.404,-1.4091,-1.4273,-1.4521,-1.4845,0.0,0.0,0.0,0.0,0.0,0.0,0.0,0.0,0.0,0.0,0.0,0.0,0.0,0.0,0.0,0.0,0.0,0.0,0.0,0.2516,0.303,0.3445,0.4134,0.4547,0.4616,0.4643,0.4508,0.4276,0.391,0.3511,0.3147,0.2947,0.2581,0.2111,0.161,0.0905,0.0067,-0.0503,-0.1409,-0.2514,-0.3218,-0.3956,-0.4674,-0.5078,-0.5551,-0.5952,0.0,0.0,0.0,0.0,-0.7854,-0.8165,-0.841,-0.8618,-0.8677,-0.8168,-0.8516,-0.908,-0.9133,-0.9446,-1.0073,-1.1292,-1.167,-1.1971,-1.2807,-1.2589,-1.2413,-1.3169,-1.2688,-1.2262,-1.2797,-1.2714,-1.2663,-1.3077,-1.277,-1.2769,-1.3564,-1.2894,-1.259,-1.3261,-1.2554,-1.2105,-1.224,-1.3295,-1.3729,-1.3206,-1.4364,-1.5089,-1.5089,-1.5089,-1.5089,-1.503,-1.4815,-1.4708,-1.4757,-1.4628,-1.4638,-1.4805,-1.4638,-1.4579,-1.4638,-1.4647,-1.4617,-1.4617,-1.4558,-1.4312,-1.3953,-1.3752,-1.3459,-1.3125,-1.3103,-1.3072,-1.3072,-1.3125,-1.3117,-1.3282,0.0,0.0,0.0,0.0,0.0,0.0,0.0,0.0,0.0,0.0,0.0,0.0,0.0,0.0,0.0,0.0,0.0,0.0,0.0,0.0,0.4015,0.4142,0.487,0.5189,0.504,0.5324,0.5346,0.5038,0.4706,0.4411,0.4079,0.3685,0.3384,0.3182,0.2714,0.2144,0.1507,0.0637,-0.0302,-0.1335,-0.2366,-0.3031,-0.3425,-0.4031,-0.4429,0.0,0.0,0.0,0.0,-0.5771,-0.6176,-0.6501,-0.6718,-0.6612,-0.6435,-0.6562,-0.7145,-0.7833,-0.8229,-0.8812,-0.9509,-1.0351,-1.0676,-1.0944,-1.1454,-1.1375,-1.1351,-1.2104,-1.1826,-1.154,-1.1712,-1.1527,-1.1445,-1.1783,-1.1447,-1.1497,-1.2568,-1.1977,-1.1689,-1.238,-1.1787,-1.1463,-1.1853,-1.2584,-1.2771,-1.2198,-1.3304,-1.4029,-1.402,-1.402,-1.407,-1.4154,-1.3936,-1.3816,-1.3786,-1.3683,-1.3692,-1.3821,-1.3752,-1.3752,-1.3821,-1.3782,-1.3576,-1.3237,-1.3335,-1.2957,-1.2222,-1.2232,-1.2027,-1.167,-1.1593,-1.1562,-1.1562,-1.15,-1.1406,-1.1524,0.0,0.0,0.0,0.0,0.0,0.0,0.0,0.0,0.0,0.0,0.0,0.0,0.0,0.0,0.0,0.0,0.0,0.0,0.0,0.0,0.0,0.4423,0.4688,0.461,0.4134,0.5538,0.5836,0.4987,0.5728,0.5636,0.4784,0.4268,0.3741,0.321,0.3179,0.3082,0.2816,0.1757,0.0927,0.023,-0.0999,-0.1756,-0.2239,-0.2861,0.0,0.0,0.0,0.0,0.0,0.0,-0.4734,-0.5191,-0.464,-0.4573,-0.4911,-0.6048,-0.6024,-0.5939,-0.7328,-0.772,-0.793,-0.8589,-0.8877,-0.9017,-0.9017,-0.9518,-0.9945,-0.9952,-1.0718,-1.1112,-1.0186,-1.0271,-1.0425,-1.0354,-1.0309,-1.0485,-1.1064,-1.1109,-1.0852,-1.0213,-1.0458,-1.0487,-0.9933,-1.0989,-1.1684,-1.1632,-1.1833,-1.1954,-1.1965,-1.1929,-1.2047,-1.2282,-1.2305,-1.2212,-1.2096,-1.2096,-1.2251,-1.2529,-1.2336,-1.2336,-1.2467,-1.2151,-1.1501,-1.0606,-1.088,-1.0467,-0.966,-0.9905,-1.0021,-0.9983,-0.9806,-0.9704,-0.9704,-0.9551,-0.952,-0.9679,0.0,0.0,0.0,0.0,0.0,0.0,0.0,0.0,0.0,0.0,0.0,0.0,0.0,0.0,0.0,0.0,0.0,0.0,0.0,0.0,0.0,0.0,0.0,0.0,0.0,0.0,0.0,0.0,0.0,0.545,0.4781,0.4405,0.395,0.0,0.3135,0.2943,0.283,0.1815,0.1121,0.0643,0.0,-0.1279,-0.1705,0.0,0.0,0.0,0.0,0.0,0.0,0.0,-0.4724,-0.5188,-0.5447,-0.5711,-0.5947,-0.5956,-0.6769,-0.7639,-0.7519,-0.8242,-0.9066,-0.9259,-0.9326,-0.9358,-0.9358,-0.9428,-0.9409,-0.9083,-0.878,-0.8406,-0.7904,-0.7464,-0.7432,-0.814,-0.7813,-0.7832,-0.8899,-0.8543,-0.8381,-0.8948,-0.9103,-0.9332,-0.9788,-1.0214,-1.0537,-1.0723,-1.198,-1.268,-1.2582,-1.247,-1.2369,-1.2297,-1.2212,-1.212,-1.2096,-1.2096,-1.1864,-1.1399,-1.1368,-1.1087,-1.0685,-1.0836,-1.0712,-1.0384,-1.0701,-1.0581,-1.0115,-1.0215,-1.0142,-0.9983,-0.9952,-0.9913,-0.9913,-0.971,-0.9641,-0.9615,0.0,0.0,0.0,0.0,0.0,0.0,0.0,0.0,0.0,0.0,0.0,0.0,0.0,0.0,0.0,0.0,0.0,0.0,0.0,0.0,0.0,0.0,0.0,0.0,0.0,0.0,0.0,0.0,0.0,0.0,0.0,0.4462,0.3972,0.3674,0.3439,0.3342,0.3262,0.0,0.0,0.0,0.0,0.0,0.0,0.0,0.0,0.0,0.0,0.0,0.0,0.0,0.0,-0.4479,-0.5167,-0.5354,-0.5367,-0.5736,-0.6402,-0.7032,-0.7082,-0.7766,-0.849,-0.849,-0.8554,-0.8564,-0.8357,-0.8401,-0.8381,-0.7959,-0.766,-0.7343,-0.6799,-0.6435,-0.6497,-0.7318,-0.7086,-0.7198,-0.8349,-0.8075,-0.7997,-0.8611,-0.8808,-0.916,-0.9832,-1.0078,-1.0187,-1.0094,-1.0906,-1.1503,-1.1749,-1.1391,-1.1215,-1.1281,-1.1226,-1.1163,-1.1163,-1.1108,-1.1,-1.0766,-1.064,-1.0451,-1.0237,-1.0268,-1.0004,-0.956,-0.9825,-0.9562,-0.8987,-0.9046,-0.8994,-0.8898,-0.8801,-0.8769,-0.8737,-0.8538,-0.8468,-0.8377,0.0,0.0,0.0,0.0,0.0,0.0,0.0,0.0,0.0,0.0,0.0,0.0,0.0,0.0,0.0,0.0,0.0,0.0,0.0,0.0,0.0,0.0,0.0,0.0,0.0,0.0,0.0,0.0,0.0,0.0,0.0,0.0,0.0,0.0,0.0,0.0,0.0,0.0,0.0,0.0,0.0,0.0,0.0,0.0,0.0,0.0,0.0,0.0,0.0,0.0,-0.3965,-0.3667,-0.4533,-0.4496,-0.4381,-0.5484,-0.5639,-0.5605,-0.6337,-0.6815,-0.7106,-0.7106,-0.7265,-0.7302,-0.6858,-0.7066,-0.7203,-0.6686,-0.6882,-0.6925,-0.6196,-0.6163,-0.6448,-0.7038,-0.7086,-0.7339,-0.817,-0.8257,-0.8271,-0.8321,-0.8682,-0.9109,-0.9528,-0.9844,-0.9857,-0.9476,-0.9217,-0.9401,-1.0161,-0.9672,-0.9519,-0.9844,-0.992,-0.9926,-0.9926,-0.9831,-0.9926,-1.023,-0.9888,-0.9824,-1.0009,-0.9761,-0.9168,-0.8391,-0.8538,-0.8083,-0.7256,-0.7365,-0.7358,-0.726,-0.7097,-0.697,-0.6872,-0.6642,-0.6581,-0.6548,0.0,0.0,0.0,0.0,0.0,0.0,0.0,0.0,0.0,0.0,0.2531,0.3278,0.0,0.0,0.0,0.0,0.0,0.0,0.0,0.0,0.0,0.0,0.0,0.0,0.0,0.0,0.0,0.0,0.0,0.0,0.0,0.0,0.0,0.0,0.0,0.0,0.0,0.0,0.0,0.0,0.0,0.0,0.0,0.0,0.0,0.0,0.0,0.0,0.0,0.0,-0.4277,-0.4194,-0.5015,-0.5409,-0.5502,-0.5303,-0.5717,-0.6145,-0.5856,-0.6168,-0.6552,-0.6552,-0.6778,-0.6896,-0.6566,-0.6528,0.0,-0.5622,-0.5367,-0.5165,-0.4871,-0.492,-0.5184,-0.567,-0.5703,-0.5634,-0.5581,-0.6074,-0.6332,-0.5939,-0.6582,-0.7107,-0.7242,-0.7384,-0.7655,-0.8179,-0.7661,-0.7904,-0.9172,-0.9141,-0.9093,-0.918,-0.9448,-0.9582,-0.9582,-0.955,-0.9326,-0.8839,-0.8511,-0.8064,-0.7521,-0.7652,-0.7496,-0.7214,-0.7381,0.0,-0.6962,-0.7,-0.6675,-0.617,-0.6137,-0.5741,-0.5176,-0.4975,-0.4908,-0.4875,0.0,0.0,0.0,0.0,0.0,0.0,0.0,0.0651,0.096,0.116,0.1495,0.2072,0.3028,0.343,0.0,0.0,0.0,0.0,0.0,0.0,0.0,0.0,0.0,0.0,0.0,0.0,0.0,0.0,0.0,0.0,0.0,0.0,0.0,0.0,0.0,0.0,0.0,0.0,0.0,0.0,0.0,0.0,0.0,0.0,0.0,0.0,0.0,0.0,0.0,0.0,-0.4105,-0.4117,-0.5081,-0.5495,-0.5531,-0.5091,-0.5504,-0.6043,-0.5585,-0.5917,-0.6387,-0.6387,-0.6519,-0.6481,-0.5941,0.0,0.0,-0.4598,-0.4214,-0.3992,-0.3898,-0.3991,-0.4346,-0.5169,-0.5259,-0.5325,-0.5598,-0.5743,-0.5797,-0.5685,-0.6121,-0.6497,-0.6639,-0.6833,-0.6983,-0.7054,-0.676,-0.7157,-0.8522,-0.835,-0.8161,-0.8064,-0.8231,-0.8361,-0.8458,-0.8361,-0.8199,-0.7977,-0.7809,-0.7354,-0.6638,-0.6736,-0.6531,-0.6067,-0.61,-0.5985,-0.5798,-0.5805,-0.556,-0.5171,-0.5283,-0.511,-0.4782,-0.468,-0.4646,-0.4613,0.0,0.0,0.0,0.0,0.0,0.0,0.0,0.0147,0.0474,0.0816,0.0728,0.1035,0.2123,0.2681,0.3153,0.0,0.0,0.0,0.0,0.0,0.0,0.0,0.0,0.0,0.0,0.0,0.0,0.0,0.0,0.0,0.0,0.0,0.0,0.0,0.0,0.0,0.0,0.0,0.0,0.0,0.0,0.0,0.0,0.0,0.0,0.0,0.0,0.0,0.0,0.0,-0.3883,-0.3934,-0.491,-0.5188,-0.5092,-0.4895,-0.5245,-0.5668,-0.5419,-0.5813,-0.6284,-0.6284,-0.6354,-0.6217,-0.5456,-0.5144,-0.4774,-0.3904,-0.349,-0.3313,-0.3375,-0.3494,-0.3899,0.0,-0.4972,-0.5166,-0.5822,-0.5633,-0.551,-0.5764,-0.5958,-0.6158,-0.6367,-0.6622,-0.6608,-0.624,-0.6244,-0.6706,-0.771,-0.7451,-0.7199,-0.704,-0.7106,-0.7204,-0.7363,-0.7068,-0.6999,-0.7158,-0.6929,-0.6498,-0.5935,-0.5935,-0.5632,-0.5064,-0.4972,-0.4804,-0.462,-0.4679,-0.4479,-0.4188,-0.4397,-0.4384,-0.4251,-0.4251,-0.4251,-0.4217,0.0,0.0,0.0,0.0,0.0,0.0,0.0,-0.0063,0.0183,0.0111,0.0439,0.0726,0.0785,0.1644,0.2424,0.0,0.0,0.0,0.0,0.0,0.0,0.0,0.0,0.0,0.0,0.0,0.0,0.0,0.0,0.0,0.0,0.0,0.0,0.0,0.0,0.0,0.0,0.0,0.0,0.0,0.0,0.0,0.0,0.0,0.0,0.0,0.0,0.0,0.0,0.0,0.0,-0.4046,-0.4453,-0.4469,-0.4378,-0.4781,0.0,0.0,-0.5481,-0.5752,-0.5954,-0.5954,-0.6189,-0.6185,-0.5403,0.0,-0.4837,-0.3961,-0.353,-0.3377,-0.3622,-0.3774,-0.4003,0.0,0.0,-0.4162,-0.461,-0.458,-0.4673,-0.5037,-0.5281,-0.5466,-0.5676,-0.5658,-0.5732,-0.5919,-0.6102,-0.6277,-0.6371,-0.6445,-0.6486,-0.6482,-0.6782,-0.6946,-0.6946,-0.6338,-0.6038,-0.6034,-0.5047,-0.455,-0.4483,-0.4483,-0.4453,-0.4384,-0.4386,-0.427,0.0,-0.4266,-0.3885,-0.3139,-0.3305,-0.2986,-0.2455,-0.2455,-0.2455,-0.2421,0.0,0.0,0.0,0.0,0.0,0.0,-0.1097,-0.0671,-0.0302,-0.0035,0.0122,0.0329,0.0633,0.1013,0.158,0.2348,0.0,0.0,0.0,0.0,0.0,0.0,0.0,0.0,0.0,0.0,0.0,0.0,0.3356,0.0,0.0,0.0,0.0,0.0,0.0,0.0588,0.0,0.0,0.0,0.0,0.0,0.0,0.0,0.0,0.0,0.0,0.0,0.0,0.0,0.0,0.0,0.0,-0.3911,-0.3816,0.0,0.0,-0.4721,-0.5104,-0.5057,-0.5468,-0.5888,-0.5888,-0.5987,-0.5889,-0.5041,0.0,-0.4498,-0.3608,-0.3261,-0.3138,-0.3206,-0.3331,-0.3532,0.0,0.0,0.0,-0.4911,-0.4778,-0.4816,-0.5472,-0.5234,-0.4989,-0.4933,-0.4818,-0.4703,-0.469,-0.4728,-0.4734,-0.4701,-0.5477,-0.5683,-0.5153,-0.5385,-0.5451,-0.5348,-0.508,-0.4948,-0.4948,-0.4519,-0.4051,-0.3651,-0.3651,-0.3284,-0.2684,-0.2684,-0.2478,0.0,-0.2312,-0.2131,-0.1747,-0.1877,-0.178,-0.1547,-0.1547,-0.1547,-0.1547,0.0,0.0,0.0,0.0,0.0,-0.2071,-0.1817,-0.1243,-0.069,-0.0314,-0.0153,0.0066,0.0428,0.0403,0.0699,0.1493,0.1716,0.0,0.0,0.0,0.0,0.0,0.0,0.0,0.0,0.0,0.0,0.0,0.0,0.2275,0.0,0.0,0.1183,0.1026,0.0,0.0,0.0,0.0,0.0,0.0,0.0,0.0,0.0,0.0,0.0,0.0,0.0,0.0,0.0,0.0,0.0,0.0,0.0,0.0,0.0,0.0,-0.4521,-0.5056,-0.4935,-0.5466,-0.6053,-0.6053,-0.5942,-0.5586,-0.4792,0.0,-0.3992,-0.3184,-0.2929,-0.2846,-0.2836,-0.2941,-0.3139,0.0,0.0,-0.358,-0.4811,-0.437,-0.4232,-0.5031,-0.4574,-0.4197,-0.4136,-0.4062,-0.3997,-0.3838,-0.3807,-0.3683,-0.3471,-0.4312,-0.458,-0.4084,-0.4151,-0.4118,-0.3982,-0.3749,-0.3651,-0.3651,-0.3451,-0.3076,-0.2618,-0.2586,-0.2185,-0.1493,-0.1464,-0.1236,0.0,-0.1044,-0.1016,-0.0889,-0.1047,-0.1109,-0.1109,-0.1109,-0.1109,-0.1109,0.0,0.0,0.0,0.0,0.0,0.0,-0.2639,-0.1672,-0.0903,-0.0893,-0.0364,-0.0017,-0.0084,-0.0277,-0.0196,0.0274,0.0809,0.0,0.0,0.0,0.0,0.0,0.0,0.0,0.0,0.0,0.0,0.0,0.0,0.0,0.1097,0.0022,-0.0537,-0.0716,0.0,0.0,0.0,0.0,0.0,0.0,0.0,0.0,0.0,0.0,0.0,0.0,0.0,0.0,0.0,0.0,0.0,0.0,0.0,0.0,0.0,0.0,-0.4383,-0.4889,-0.5292,-0.5891,-0.6387,-0.6387,-0.5987,-0.5438,-0.4763,-0.4082,-0.3429,-0.2744,-0.2543,-0.2555,-0.2677,-0.2764,-0.2955,-0.3422,0.0,0.0,-0.3843,-0.2924,-0.2417,-0.3235,-0.3024,-0.2924,-0.3187,-0.3509,-0.3709,-0.3709,-0.3709,-0.3476,-0.2945,-0.2913,-0.3111,-0.3509,-0.3307,-0.3205,-0.3205,-0.2477,-0.2114,-0.2114,-0.1444,-0.1159,-0.1214,-0.1165,-0.1156,-0.1187,-0.1135,-0.0992,0.0,-0.1006,-0.0991,-0.0831,-0.1008,-0.1109,-0.1109,-0.1109,-0.1109,-0.1109,0.0,0.0,0.0,0.0,0.0,0.0,0.0,-0.259,-0.2021,-0.1696,-0.1202,-0.0908,-0.0984,-0.0762,-0.061,-0.0649,-0.0043,0.0,0.0,0.0,0.0,0.0,0.0,0.0,0.0,0.0,0.0,0.0,0.0,0.0,0.0,0.0,-0.1272,-0.1339,-0.1655,0.0,0.0,0.0,0.0,0.0,0.0,0.0,0.0,0.0,0.0,0.0,0.0,0.0,0.0,0.0,0.0,0.0,0.0,0.0,0.0,-0.323,-0.3601,-0.3994,-0.4133,-0.4547,-0.4976,-0.4976,-0.4833,-0.4563,-0.3979,-0.3601,-0.3237,-0.2645,-0.2516,-0.2533,-0.2675,-0.2576,-0.2474,-0.2531,-0.203,0.0,0.0,-0.2273,-0.2179,-0.2947,-0.2606,-0.2312,-0.2312,-0.2206,-0.2158,-0.2242,-0.2105,-0.1902,-0.1675,-0.1546,-0.1747,-0.2383,-0.235,-0.2249,-0.2114,-0.188,-0.1747,-0.1747,-0.1546,-0.1416,-0.139,-0.1294,-0.1091,-0.0859,-0.0745,-0.0544,-0.0326,-0.0325,-0.0352,-0.0327,-0.0326,-0.0337,-0.0337,-0.0337,-0.0337,-0.0269,0.0,0.0,0.0,0.0,0.0,0.0,0.0,-0.3144,-0.2708,-0.2422,-0.1933,-0.162,-0.17,-0.1504,-0.1448,-0.1657,-0.1127,0.0,0.0,0.0,0.0,0.0,0.0,0.0,0.0,0.0,0.0,0.0,0.0,0.0,0.0,0.0,0.0,-0.196,-0.2386,0.0,0.0,0.0,0.0,0.0,0.0,0.0,-0.3972,0.0,0.0,0.0,0.0,0.0,0.0,0.0,0.0,0.0,0.0,0.0,0.0,0.0,-0.293,-0.3182,-0.3519,-0.3935,-0.4305,-0.4304,-0.4158,-0.3891,-0.3483,-0.3023,-0.2592,-0.2232,-0.197,-0.1878,-0.2101,-0.1944,-0.1778,-0.177,-0.1298,-0.115,-0.1739,-0.1382,-0.1293,-0.1918,-0.1754,-0.1589,-0.1477,-0.1369,-0.1328,-0.1409,-0.127,-0.1135,-0.1107,-0.0976,-0.1111,-0.158,-0.1447,-0.1312,-0.1178,-0.1178,-0.1178,-0.1178,-0.1178,-0.1191,-0.1182,-0.1068,-0.0899,-0.0681,-0.0519,-0.0327,0.0,-0.0033,-0.0033,-0.0062,0.0,0.0,0.0,0.0135,0.037,0.0672,0.0,0.0,0.0,0.0,0.0,0.0,0.0,-0.3449,-0.3066,-0.3087,-0.2563,-0.2219,-0.2286,-0.2444,-0.2547,-0.2626,0.0,0.0,0.0,0.0,0.0,0.0,0.0,0.0,0.0,0.0,0.0,-0.0582,-0.1117,-0.1352,-0.1313,0.0,0.0,0.0,0.0,0.0,0.0,0.0,0.0,0.0,-0.4966,-0.4814,0.0,0.0,0.0,0.0,0.0,0.0,0.0,0.0,0.0,0.0,0.0,0.0,0.0,0.0,0.0,0.0,0.0,-0.3845,-0.4173,-0.417,-0.3784,-0.3373,-0.3178,-0.2379,0.0,-0.1594,-0.1128,-0.082,-0.1139,-0.1011,-0.0927,-0.1112,-0.0579,-0.0375,-0.1021,-0.0377,-0.0024,-0.0476,-0.0698,-0.0799,-0.0829,-0.1006,-0.1109,-0.1109,-0.1109,-0.1076,-0.1042,-0.1008,-0.0974,-0.0941,-0.0539,-0.0371,-0.0472,-0.0472,-0.047,-0.0466,-0.0436,-0.0513,-0.07,-0.0549,-0.0547,0.0,-0.0422,-0.0303,-0.0303,-0.0101,0.0,0.0,0.0067,0.0101,0.0168,0.0538,0.1074,0.1709,0.0,0.0,0.0,0.0,0.0,0.0,0.0,0.0,0.0,0.0,-0.3411,-0.3141,-0.3264,-0.2998,-0.2808,0.0,0.0,0.0,0.0,0.0,0.0,0.0,0.0,0.0,0.0,0.0,0.0,-0.2304,-0.2805,-0.3109,-0.3252,-0.3702,0.0,0.0,0.0,0.0,0.0,0.0,0.0,0.0,-0.4705,-0.4552,0.0,0.0,0.0,0.0,-0.3369,-0.2993,0.0,0.0,0.0,0.0,0.0,0.0,0.0,0.0,-0.2288,-0.2355,-0.2561,0.0,-0.2903,-0.2804,-0.2667,-0.2578,0.0,-0.1966,0.0,0.0,0.0,-0.0911,-0.1088,-0.0787,-0.0534,-0.0576,-0.0104,0.0158,-0.0161,-0.0284,-0.0462,-0.0762,-0.0801,-0.0867,-0.101,-0.1068,-0.1109,-0.1109,-0.1109,-0.0908,-0.0504,-0.0101,0.0302,0.0737,0.124,0.0905,-0.0336,-0.0336,-0.0258,-0.0118,0.0129,-0.0061,-0.0686,-0.031,-0.0321,-0.0682,-0.0519,-0.0438,-0.0438,-0.0135,0.0,0.0067,0.0907,0.1208,0.1308,0.1942,0.2277,0.2444,0.0,0.0,0.0,0.0,0.0,0.0,0.0,0.0,0.0,0.0,0.0,0.0,0.0,0.0,0.0,0.0,0.0,0.0,0.0,0.0,0.0,0.0,0.0,0.0,0.0,0.0,0.0,0.0,0.0,-0.4122,0.0,0.0,0.0,0.0,0.0,0.0,0.0,0.0,0.0,0.0,-0.5101,0.0,0.0,0.0,0.0,0.0,-0.3432,-0.2948,0.0,-0.2353,-0.2353,-0.2353,0.0,0.0,0.0,0.0,-0.2286,-0.237,-0.2324,-0.2393,-0.2516,-0.2566,-0.2427,-0.2268,-0.2174,0.0,0.0,0.0,0.0,-0.0068,-0.017,0.0022,0.0176,0.0164,0.0332,0.0436,0.0307,0.0026,-0.0274,-0.0509,-0.051,-0.0543,-0.0709,-0.064,-0.0605,-0.0605,-0.0605,-0.047,-0.0168,0.0436,0.0905,0.1206,0.1773,0.1673,0.0804,0.0503,0.0412,0.0505,0.0699,0.0554,0.0156,0.0716,0.0817,0.0563,0.0404,0.0512,0.0836,0.0762,0.093,0.1309,0.1877,0.211,0.2177,0.2711,0.3147,0.3449,0.0,0.0,0.0,0.0,0.0,0.0,0.0,0.0,0.0,0.0,0.0,0.0,0.0,0.0,0.0,0.0,0.0,0.0,0.0,0.0,0.0,0.0,0.0,0.0,0.0,0.0,0.0,0.0,0.0,0.0,0.0,0.0,-0.4679,0.0,0.0,0.0,0.0,0.0,0.0,0.0,-0.5636,0.0,0.0,0.0,0.0,0.0,0.0,0.0,0.0,-0.2221,-0.2201,-0.2201,-0.2201,0.0,0.0,0.0,0.0,0.0,-0.2326,-0.2304,-0.242,-0.2753,-0.2502,-0.2148,-0.1944,0.0,0.0,0.0,0.0,0.0,0.0925,0.0913,0.0881,0.0812,0.0705,0.0597,0.0523,0.031,0.0106,-0.0076,-0.008,-0.0084,-0.0088,0.0064,0.0201,0.0302,0.0336,0.0369,0.0436,0.1139,0.154,0.1641,0.2274,0.2608,0.2608,0.1774,0.1392,0.1427,0.149,0.1451,0.1319,0.1938,0.2174,0.2062,0.0,0.0,0.2324,0.1925,0.2145,0.2711,0.2878,0.2911,0.2947,0.3382,0.3918,0.4453,0.0,0.0,0.0,0.0,0.0,0.0,0.0,0.0,0.0,0.0,0.0,0.0,0.0,0.0,0.0,0.0,0.0,0.0,0.0,0.0,0.0,0.0,0.0,-0.3363,-0.4074,-0.3829,0.0,0.0,0.0,0.0,-0.4603,-0.504,-0.5292,-0.5404,0.0,0.0,0.0,0.0,0.0,-0.521,-0.5328,0.0,0.0,0.0,0.0,0.0,0.0,0.0,0.0,-0.233,-0.2201,-0.2201,-0.2201,0.0,0.0,0.0,0.0,0.0,-0.2221,-0.1904,-0.1734,-0.2405,-0.2127,-0.1661,-0.1519,0.0,0.0,0.0,0.0,0.0,0.0,0.0956,0.0942,0.0814,0.0733,0.0637,0.0524,0.0219,0.0,-0.0102,-0.0059,0.0222,0.0828,0.0925,0.1172,0.174,0.1773,0.1975,0.2444,0.3045,0.358,0.4054,0.4589,0.4888,0.4888,0.338,0.2719,0.2884,0.3238,0.2965,0.2214,0.2605,0.2542,0.2104,0.0,0.2041,0.2171,0.243,0.2604,0.2778,0.3716,0.3954,0.3892,0.4758,0.5024,0.502,0.0,0.0,0.0,0.0,0.0,0.0,0.0,0.0,0.0,0.0,0.0,0.0,0.0,0.0,0.0,0.0,0.0,0.0,0.0,0.0,0.0,0.0,-0.4132,-0.418,-0.4731,-0.4661,0.0,0.0,0.0,-0.4944,-0.4832,-0.5214,-0.5437,-0.5512,0.0,0.0,0.0,0.0,-0.5306,-0.5046,0.0,0.0,0.0,0.0,0.0,0.0,0.0,0.0,0.0,0.0,-0.2201,-0.2176,-0.202,0.0,0.0,0.0,0.0,0.0,-0.1975,-0.1884,-0.1779,-0.1739,-0.1371,-0.0934,0.0,0.0,0.0,0.0,0.0,0.0,0.0,0.1286,0.1207,0.1044,0.1149,0.117,0.0968,0.1209,0.1394,0.1312,0.1677,0.2022,0.2211,0.2315,0.245,0.2681,0.2711,0.2811,0.3047,0.3716,0.4184,0.4422,0.5057,0.5395,0.5395,0.4622,0.411,0.3808,0.3966,0.3851,0.3451,0.4003,0.4115,0.3865,0.0,0.3508,0.386,0.3535,0.3639,0.4048,0.4422,0.4528,0.4495,0.493,0.5027,0.4994,0.0,0.0,0.0,0.0,0.0,0.0,0.0,0.0,0.0,0.0,0.0,0.0,0.0,0.0,0.0,0.0,0.0,0.0,0.0,0.0,-0.4997,-0.49,-0.4971,-0.5036,-0.4998,-0.5153,-0.511,-0.4824,-0.4952,-0.4961,-0.4888,-0.5101,-0.5251,-0.534,0.0,0.0,0.0,-0.5219,-0.5116,-0.4963,0.0,0.0,0.0,0.0,0.0,0.0,0.0,0.0,0.0,0.0,0.0,0.0,0.0,0.0,0.0,-0.1478,-0.1569,-0.1748,-0.1725,-0.1748,-0.1624,-0.0953,0.0,0.0,0.0,0.0,0.0,0.0,0.0,0.0,0.0,0.1605,0.146,0.1355,0.1545,0.1648,0.1489,0.197,0.2378,0.2525,0.3038,0.346,0.3597,0.3679,0.3772,0.3828,0.3766,0.3718,0.3718,0.4253,0.4556,0.4556,0.5093,0.5395,0.5395,0.5395,0.5131,0.4571,0.4498,0.448,0.4491,0.5028,0.5292,0.5302,0.4726,0.4846,0.5325,0.4562,0.4605,0.509,0.4894,0.4797,0.4797,0.4861,0.4897,0.4997,0.0,0.0,0.0,0.0,0.0,0.0,0.0,0.0,0.0,0.0,0.0,0.0,0.0,0.0,0.0,0.0,0.0,0.0,0.0,0.0,-0.644,-0.6611,-0.6048,-0.5417,-0.4741,-0.4573,-0.4528,-0.4624,-0.4268,-0.4245,-0.4542,-0.4619,-0.4731,-0.4845,0.0,-0.4963,-0.4845,-0.4963,-0.4941,-0.4823,-0.4941,0.0,0.0,0.0,0.0,0.0,0.0,0.0,0.0,0.0,0.0,0.0,0.0,0.0,-0.1591,-0.1433,-0.15,-0.1591,-0.1456,-0.1119,-0.0663,-0.005,-0.0143,0.0,0.0649,0.1003,0.0,0.1856,0.0,0.0,0.0,0.1668,0.1568,0.1736,0.1662,0.171,0.1994,0.1773,0.1846,0.2599,0.2743,0.3315,0.4736,0.476,0.4979,0.5669,0.5403,0.5226,0.5226,0.5292,0.5329,0.5329,0.5362,0.5395,0.5395,0.5395,0.5375,0.533,0.5137,0.5034,0.5029,0.4908,0.496,0.512,0.5078,0.5186,0.5392,0.5111,0.5051,0.509,0.4894,0.4797,0.4827,0.5024,0.5193,0.5395,0.0,0.0,0.0,0.0,0.0,0.0,0.0,0.0,0.0,0.0,0.0,0.0,0.0,0.0,0.0,0.0,0.0,0.0,0.0,0.0,-0.6531,-0.6308,-0.6331,-0.6028,-0.534,-0.4749,-0.4375,-0.4231,-0.4037,-0.4049,-0.4256,-0.448,0.0,0.0,0.0,-0.4893,-0.4919,-0.4985,-0.4963,-0.4941,-0.4985,-0.4963,0.0,0.0,0.0,0.0,0.0,0.0,0.0,0.0,-0.1456,-0.15,-0.1366,-0.1411,-0.1433,-0.1254,-0.1299,-0.1344,-0.1052,-0.0783,-0.0346,0.0575,0.0665,0.0,0.0,0.1837,0.1919,0.2496,0.2189,0.0,0.0,0.2251,0.2444,0.2261,0.2506,0.2672,0.256,0.3097,0.3621,0.3926,0.4639,0.5323,0.5761,0.5888,0.5922,0.5907,0.5771,0.5629,0.5399,0.5395,0.5395,0.5395,0.5395,0.5395,0.5395,0.5395,0.5395,0.5395,0.519,0.5087,0.5087,0.4894,0.4831,0.4927,0.4927,0.496,0.503,0.4858,0.4791,0.4791,0.4794,0.4797,0.4831,0.516,0.5326,0.5462,0.0,0.0,0.0,0.0,0.0,0.0,0.0,0.0,0.0,0.0,0.0,0.0,0.0,0.0,0.0,0.0,0.0,0.0,0.0,0.0,-0.6941,-0.6774,-0.6824,-0.6617,-0.6091,-0.5132,-0.449,-0.4194,-0.3994,-0.3964,-0.4084,0.0,0.0,0.0,0.0,-0.4801,-0.4941,-0.4985,-0.5011,-0.4985,-0.4832,-0.4762,0.0,0.0,0.0,0.0,0.0,0.0,0.0,0.0,-0.1366,-0.1411,-0.1277,-0.1299,-0.1344,-0.1164,-0.1052,-0.094,-0.0626,-0.0358,0.0046,0.105,0.0,0.0,0.2422,0.2309,0.2157,0.2675,0.2507,0.2263,0.2269,0.0,0.2882,0.2734,0.325,0.3571,0.3349,0.426,0.5043,0.5237,0.6051,0.6628,0.6859,0.688,0.6766,0.6472,0.6264,0.6026,0.5734,0.5727,0.5727,0.5727,0.5627,0.5561,0.5561,0.5462,0.5395,0.5395,0.5126,0.499,0.499,0.4761,0.4664,0.4728,0.4728,0.4764,0.4797,0.4761,0.4791,0.4861,0.4964,0.4997,0.5033,0.5547,0.5736,0.5806,0.0,0.0,0.0,0.0,0.0,0.0,0.0,0.0,0.0,0.0,0.0,0.0,0.0,0.0,0.0,0.0,0.0,0.0,0.0,-0.7959,-0.7917,-0.8373,-0.7627,-0.712,-0.6907,-0.5593,-0.4796,-0.4592,-0.4122,-0.394,-0.4,-0.4212,0.0,0.0,0.0,0.0,-0.4801,-0.4946,-0.499,-0.4941,-0.4473,-0.4202,-0.4045,0.0,0.0,0.0,0.0,0.0,0.0,0.0,-0.1097,-0.1097,-0.1097,-0.1186,-0.1277,-0.1142,-0.0761,-0.0358,-0.0224,0.0157,0.0661,0.0,0.0,0.0,0.2736,0.2391,0.192,0.2236,0.2591,0.2829,0.2876,0.275,0.2765,0.3161,0.3789,0.4277,0.4399,0.5112,0.5838,0.6426,0.6503,0.693,0.7987,0.778,0.7586,0.7597,0.7055,0.6603,0.6428,0.6387,0.6387,0.6387,0.6086,0.5892,0.5892,0.5561,0.5395,0.5395,0.4997,0.4797,0.4797,0.4467,0.4431,0.4592,0.4625,0.4694,0.4831,0.5024,0.5223,0.5395,0.5395,0.5395,0.5516,0.6249,0.6516,0.6609,0.0,0.0,0.0,0.0,0.0,0.0,0.0,0.0,0.0,0.0,0.0,0.0,0.0,0.0,0.0,0.0,0.0,0.0,0.0,-0.8472,-0.8357,-0.8258,-0.8023,-0.7612,-0.699,-0.5792,-0.4823,-0.4113,-0.4117,-0.4097,0.0,0.0,0.0,-0.4565,0.0,0.0,-0.4657,-0.4749,-0.4526,-0.4074,-0.3943,-0.3653,-0.3274,0.0,0.0,0.0,0.0,0.0,0.0,0.0,0.0,0.0,-0.1232,-0.1208,-0.1087,-0.0671,-0.0398,-0.0113,0.06,0.0848,0.107,0.1639,0.0,0.0,0.0,0.2616,0.0,0.0,0.3394,0.3286,0.3186,0.359,0.4013,0.4274,0.4684,0.5139,0.5597,0.6163,0.6588,0.6742,0.7165,0.7548,0.7863,0.7931,0.786,0.7627,0.729,0.696,0.6645,0.6485,0.6387,0.6387,0.6321,0.6255,0.6255,0.5925,0.5859,0.6086,0.5587,0.5156,0.4797,0.4861,0.4891,0.499,0.5355,0.5524,0.5557,0.5488,0.5422,0.5439,0.5985,0.6165,0.6253,0.6985,0.7267,0.7311,0.0,0.0,0.0,0.0,0.0,0.0,0.0,0.0,0.0,0.0,-0.8488,-0.8529,0.0,0.0,0.0,0.0,0.0,0.0,-0.8695,-0.8695,-0.8582,-0.8324,-0.8057,-0.753,-0.6704,-0.5874,-0.5127,-0.4457,-0.436,0.0,0.0,0.0,-0.4469,-0.4569,0.0,-0.4598,-0.4552,-0.4361,-0.405,-0.3653,-0.323,-0.2898,-0.2588,0.0,0.0,0.0,0.0,0.0,0.0,0.0,0.0,0.0,-0.1007,-0.0801,-0.054,-0.0141,0.0232,0.0648,0.1215,0.1496,0.1778,0.2247,0.2393,0.2432,0.2507,0.0,0.0,0.0,0.3713,0.3642,0.3547,0.4184,0.4774,0.4958,0.5729,0.6398,0.6668,0.7288,0.771,0.7629,0.7936,0.8203,0.8284,0.8327,0.8245,0.8047,0.7847,0.7548,0.7172,0.7017,0.6921,0.6843,0.6679,0.6585,0.6585,0.6255,0.6185,0.6387,0.598,0.5617,0.5322,0.5388,0.5422,0.5422,0.5756,0.5987,0.6086,0.5881,0.5955,0.6198,0.6541,0.6802,0.6993,0.757,0.7753,0.7685,0.0,0.0,-0.9056,-0.9056,0.0,0.0,0.0,0.0,0.0,0.0,-0.8643,-0.8695,0.0,0.0,0.0,-0.8716,-0.8716,-0.8716,-0.8716,-0.8716,-0.8663,-0.85,-0.7786,-0.7021,-0.6221,-0.583,-0.5524,-0.5265,-0.4766,0.0,0.0,0.0,-0.4535,-0.4482,0.0,-0.4467,-0.4416,-0.3817,-0.3566,-0.3476,-0.2455,-0.2032,-0.1943,-0.1454,0.0,0.0,0.0,0.0,0.0,0.0,0.0,0.0,-0.0492,-0.0118,0.022,0.0441,0.1036,0.1648,0.1684,0.2082,0.2578,0.2927,0.2766,0.2673,0.3203,0.3131,0.304,0.3417,0.0,0.394,0.4011,0.4589,0.5121,0.5434,0.6784,0.7744,0.7638,0.8408,0.8903,0.8742,0.8703,0.878,0.8946,0.8822,0.8699,0.8697,0.8521,0.8226,0.7864,0.7826,0.7717,0.7498,0.7138,0.6946,0.6946,0.6613,0.6449,0.6482,0.628,0.6207,0.621,0.605,0.5987,0.6053,0.6053,0.6218,0.6453,0.6296,0.6664,0.73,0.7138,0.7329,0.7651,0.7992,0.7986,0.7893,0.0,0.0,-0.9554,-0.9554,0.0,0.0,0.0,0.0,0.0,0.0,0.0,0.0,0.0,0.0,0.0,-0.8935,-0.8935,-0.8935,-0.8935,-0.8935,-0.8773,-0.8435,-0.7224,-0.6459,-0.6273,-0.5534,-0.5111,-0.5067,-0.4847,0.0,0.0,0.0,0.0,-0.4332,0.0,-0.4244,-0.4146,-0.3609,-0.3078,-0.2546,-0.1947,-0.1479,-0.1167,-0.1142,-0.1054,0.0,0.0,0.0,0.0,0.0,0.0,0.0,-0.0112,0.0294,0.081,0.1295,0.1621,0.1918,0.2349,0.2393,0.236,0.2391,0.2261,0.2353,0.32,0.3333,0.3446,0.4,0.4006,0.4137,0.4863,0.5146,0.5628,0.6826,0.7326,0.7787,0.8356,0.8627,0.8742,0.8703,0.8703,0.8703,0.8742,0.8742,0.8685,0.8713,0.8528,0.8288,0.8063,0.7902,0.7717,0.7498,0.7428,0.7363,0.7363,0.6975,0.6942,0.7265,0.6909,0.6909,0.7195,0.6741,0.6773,0.7167,0.7167,0.7101,0.7054,0.7142,0.7231,0.7327,0.7713,0.7824,0.7805,0.8191,0.8192,0.8083,0.0,0.0,0.0,0.0,0.0,0.0,0.0,0.0,0.0,0.0,0.0,0.0,0.0,-0.8943,0.0,0.0,-0.8952,-0.8923,-0.8874,-0.8773,-0.8447,-0.7863,-0.7189,-0.6656,-0.631,-0.5658,-0.5345,-0.5345,0.0,0.0,0.0,0.0,0.0,-0.4302,0.0,-0.4092,-0.3939,-0.3086,-0.2555,-0.2235,-0.1479,-0.1056,-0.09,-0.0898,-0.0831,-0.0719,-0.0853,0.0,0.0,0.0,0.0,0.0,0.0,0.0,0.1607,0.2021,0.219,0.2268,0.2467,0.2497,0.2509,0.2596,0.2593,0.2819,0.3719,0.4069,0.4354,0.5024,0.4837,0.482,0.5573,0.6089,0.6595,0.7365,0.7825,0.8208,0.8623,0.8703,0.8703,0.8703,0.8703,0.8703,0.8703,0.8703,0.8703,0.8703,0.8604,0.8453,0.8245,0.8037,0.7795,0.7521,0.7419,0.7297,0.7204,0.7012,0.7007,0.7204,0.7012,0.7007,0.7204,0.7134,0.7195,0.7363,0.7363,0.7353,0.7359,0.7396,0.7519,0.7708,0.7879,0.7939,0.7957,0.8176,0.814,0.803,0.0,0.0,0.0,0.0,0.0,0.0,0.0,0.0,0.0,0.0,0.0,0.0,0.0,-0.8984,-0.8964,0.0,0.0,0.0,-0.8695,-0.8488,-0.8057,-0.7356,-0.7259,-0.6915,-0.631,-0.5846,-0.5588,0.0,0.0,0.0,0.0,0.0,0.0,-0.4343,0.0,-0.4073,-0.3858,-0.2655,-0.219,-0.2212,-0.1122,-0.0742,-0.081,-0.0697,-0.0584,-0.0494,-0.0629,-0.0562,-0.0404,-0.0045,0.0,0.0,0.0,0.0,0.2325,0.2561,0.2615,0.2602,0.2397,0.2518,0.2755,0.3126,0.3176,0.3453,0.4481,0.486,0.5253,0.6152,0.5869,0.5639,0.6314,0.6992,0.752,0.7668,0.8284,0.8703,0.8703,0.8703,0.8703,0.8703,0.8703,0.8703,0.8703,0.8703,0.8703,0.8703,0.8703,0.8614,0.8411,0.8231,0.7958,0.7523,0.7345,0.7142,0.6913,0.6913,0.6913,0.6913,0.6913,0.6913,0.6913,0.7237,0.7297,0.7143,0.7208,0.7354,0.7484,0.7479,0.7735,0.8079,0.7954,0.7957,0.8063,0.814,0.803,0.7915,0.0,0.0,0.0,0.0,0.0,0.0,0.0,0.0,0.0,0.0,-0.9056,-0.8996,-0.8996,-0.8943,-0.8911,-0.89,-0.8793,-0.8724,-0.8695,0.0,0.0,-0.7829,-0.693,-0.6395,-0.631,-0.5615,-0.5145,0.0,0.0,0.0,0.0,0.0,0.0,-0.4548,0.0,0.0,-0.3998,-0.279,-0.2279,-0.2212,-0.1122,-0.0652,-0.0562,-0.0539,-0.0472,-0.0427,-0.0494,-0.0405,-0.018,0.0224,0.076,0.0,0.0,0.0,0.263,0.2677,0.2731,0.2749,0.2609,0.2594,0.2782,0.3453,0.3331,0.3489,0.524,0.5251,0.5369,0.6978,0.6659,0.6351,0.7184,0.7275,0.7518,0.8405,0.8627,0.8703,0.8703,0.8703,0.8703,0.8703,0.8703,0.8703,0.8703,0.8703,0.8703,0.8703,0.8703,0.8614,0.8411,0.8373,0.8112,0.7528,0.7487,0.7286,0.6918,0.6913,0.6913,0.6913,0.6913,0.6913,0.6913,0.6946,0.6979,0.6955,0.7295,0.7487,0.7541,0.8027,0.8208,0.813,0.8261,0.8118,0.7876,0.8217,0.8217,0.8183,0.0,0.0,0.0,0.0,0.0,0.0,0.0,0.0,0.0,0.0,0.0,-0.8996,-0.8996,-0.8952,-0.8871,-0.8793,-0.8663,-0.85,-0.8255,-0.8126,-0.7919,-0.7697,-0.7301,-0.6873,-0.6428,-0.5986,-0.5474,0.0,0.0,0.0,0.0,-0.5139,-0.4952,0.0,0.0,0.0,0.0,-0.2908,-0.2307,-0.1722,-0.092,-0.0562,-0.0494,-0.045,-0.0382,-0.0292,-0.0315,-0.0067,0.0381,0.0806,0.13,0.1816,0.2244,0.0,0.0,0.0,0.2662,0.2784,0.3172,0.2913,0.2859,0.4155,0.3815,0.3737,0.5965,0.5985,0.603,0.7816,0.7699,0.7436,0.8074,0.801,0.805,0.859,0.8703,0.8703,0.8703,0.8703,0.8703,0.8703,0.8703,0.8665,0.8551,0.8513,0.8475,0.8365,0.8365,0.8329,0.8242,0.8129,0.7879,0.753,0.7281,0.7056,0.6798,0.6668,0.6618,0.6618,0.6618,0.6618,0.6618,0.6618,0.6805,0.7142,0.7299,0.7568,0.7865,0.8111,0.8175,0.8101,0.8185,0.7987,0.7642,0.7829,0.7829,0.7829,0.0,0.0,0.0,0.0,0.0,0.0,0.0,0.0,0.0,0.0,0.0,-0.8996,-0.8996,0.0,0.0,0.0,-0.8541,-0.8262,-0.7878,-0.7878,-0.7787,-0.7572,-0.7454,-0.7097,-0.6456,-0.6114,0.0,0.0,0.0,0.0,-0.5237,-0.528,-0.5152,0.0,-0.5123,0.0,0.0,0.0,0.0,0.0,0.0,-0.0451,0.0,0.0,-0.0265,0.0,0.0,0.0,0.0,0.1153,0.157,0.1982,0.2373,0.2437,0.0,0.0,0.0,0.2656,0.3417,0.3066,0.2887,0.4448,0.4094,0.3936,0.6176,0.6347,0.6497,0.8076,0.8269,0.8269,0.8633,0.8491,0.8406,0.8661,0.8703,0.8685,0.8633,0.8628,0.8604,0.8548,0.8543,0.8491,0.8326,0.833,0.8277,0.8097,0.8102,0.8102,0.8102,0.7961,0.7749,0.7516,0.7164,0.6901,0.6714,0.6505,0.6387,0.6387,0.6387,0.6387,0.6387,0.6498,0.6857,0.7376,0.7376,0.7646,0.8116,0.8203,0.82,0.8102,0.8102,0.7872,0.7522,0.7599,0.7638,0.7714,0.0,0.0,0.0,0.0,0.0,0.0,0.0,0.0,0.0,0.0,0.0,-0.8996,-0.8996,-0.8825,-0.8704,-0.8695,-0.8406,-0.8072,-0.774,-0.7836,-0.7836,-0.7691,-0.6964,0.0,-0.631,0.0,0.0,0.0,0.0,0.0,-0.4575,-0.5056,-0.5262,-0.5187,-0.5262,-0.4913,-0.4147,0.0,0.0,0.0,0.0,0.0,0.0,0.0,0.0,0.0,0.0,0.0,0.0,0.0,0.0,0.1771,0.2106,0.2221,0.2236,0.0,0.0,0.0,0.2968,0.2829,0.2758,0.3865,0.3813,0.3909,0.5506,0.6044,0.6463,0.7371,0.7995,0.8448,0.8661,0.8373,0.8231,0.8633,0.8703,0.8633,0.8444,0.8415,0.8344,0.8136,0.8148,0.8121,0.8111,0.813,0.8095,0.8089,0.8102,0.8102,0.8102,0.8093,0.7887,0.752,0.7358,0.7101,0.6696,0.6509,0.6387,0.6387,0.6387,0.6387,0.6424,0.6798,0.719,0.7584,0.7584,0.7771,0.8125,0.8496,0.8428,0.8102,0.8102,0.7872,0.7561,0.791,0.8063,0.8178,0.0,0.0,0.0,0.0,0.0,0.0,0.0,0.0,0.0,0.0,0.0,0.0,0.0,-0.8903,-0.8761,-0.8582,-0.8221,-0.7981,-0.7904,-0.7891,-0.7795,-0.7524,-0.707,0.0,0.0,0.0,0.0,0.0,0.0,-0.4443,-0.4502,-0.4702,-0.4843,-0.4954,-0.4982,-0.4387,-0.3328,-0.2374,0.0,0.0,0.0,0.0,0.0,0.0,0.0,0.0,0.0,0.0,0.0,0.0,0.0,0.0,0.0,0.0,0.0,0.0,0.0,0.245,0.3269,0.3218,0.325,0.449,0.4202,0.4019,0.5524,0.5992,0.6267,0.6691,0.7654,0.8302,0.8001,0.8113,0.8335,0.8486,0.851,0.8434,0.8222,0.8198,0.8165,0.8125,0.8115,0.8042,0.7906,0.7915,0.787,0.7728,0.7393,0.734,0.7709,0.7394,0.7289,0.7492,0.7327,0.706,0.6696,0.6513,0.6387,0.6387,0.6387,0.6481,0.6599,0.6732,0.7061,0.7528,0.767,0.8001,0.8491,0.8632,0.8479,0.8102,0.8102,0.7872,0.7522,0.7676,0.7872,0.814,0.0,0.0,0.0,0.0,0.0,-0.8996,0.0,0.0,0.0,0.0,0.0,0.0,0.0,0.0,-0.872,-0.8427,-0.816,-0.7995,-0.8,-0.7821,-0.7621,-0.7349,-0.6852,0.0,0.0,0.0,0.0,0.0,0.0,0.0,0.0,-0.433,-0.4372,-0.4295,-0.4099,-0.3577,0.0,0.0,0.0,-0.0432,0.0,0.0,-0.0238,0.0,0.0,0.0,0.0,0.0,0.0,0.0,0.0,0.0,0.0,0.0,0.0,0.0,0.0,0.0,0.3541,0.0,0.0,0.4304,0.4105,0.3935,0.4789,0.5618,0.6234,0.63,0.7475,0.8401,0.8052,0.8236,0.8401,0.8401,0.8458,0.8401,0.8153,0.8115,0.8063,0.7921,0.7906,0.7831,0.7696,0.7706,0.7627,0.7517,0.7181,0.7134,0.7475,0.7143,0.7105,0.7382,0.7285,0.7082,0.6786,0.666,0.6599,0.6599,0.6599,0.6664,0.682,0.6913,0.7176,0.7516,0.791,0.8275,0.8589,0.8665,0.8551,0.8289,0.8289,0.8136,0.7902,0.7902,0.8059,0.8327,0.0,-0.8958,-0.8817,-0.9219,-0.9128,-0.8996,-0.8996,0.0,0.0,0.0,0.0,0.0,0.0,0.0,0.0,-0.8216,-0.8175,-0.8126,-0.7979,-0.7593,-0.7301,-0.7182,-0.6273,0.0,0.0,0.0,0.0,0.0,0.0,0.0,0.0,0.0,-0.3913,-0.3256,-0.2625,-0.254,-0.2762,0.0,-0.0828,-0.0453,0.0,-0.0129,-0.0288,0.0,0.0,0.0,0.0233,0.0762,0.0,0.1767,0.0,0.0,0.0,0.0,0.0,0.0,0.0,0.0,0.0,0.0,0.0,0.3217,0.347,0.362,0.3291,0.4845,0.6307,0.6111,0.7444,0.8724,0.8939,0.8678,0.8411,0.8401,0.8562,0.8538,0.8163,0.811,0.7963,0.7546,0.7498,0.7518,0.7482,0.7505,0.7513,0.7495,0.75,0.75,0.7517,0.7483,0.7405,0.7224,0.7187,0.7139,0.7,0.6992,0.6988,0.6988,0.7023,0.7027,0.704,0.7358,0.7516,0.757,0.8354,0.8589,0.8441,0.8627,0.8703,0.8703,0.8703,0.8703,0.8703,0.8703,0.8703,0.878,-0.8716,-0.8704,-0.8765,-0.8964,-0.9004,-0.8996,-0.8996,0.0,0.0,0.0,0.0,0.0,0.0,0.0,0.0,-0.7876,-0.7704,-0.7503,-0.7223,-0.6909,-0.6628,-0.6331,-0.5755,-0.5205,0.0,0.0,0.0,0.0,0.0,0.0,0.0,0.0,0.0,0.0,-0.1652,-0.1284,-0.1341,-0.0615,0.0,-0.0163,-0.029,-0.0274,0.0,0.0,0.0,-0.0023,0.0548,0.0985,0.1399,0.0,0.234,0.2265,0.0,0.0,0.0,0.0,0.0,0.0,0.356,0.0,0.0,0.0,0.0,0.0,0.3545,0.4619,0.5581,0.5306,0.6781,0.8124,0.8057,0.8618,0.8988,0.8861,0.8529,0.816,0.7935,0.802,0.8015,0.7754,0.7726,0.7655,0.7522,0.7518,0.7508,0.0,0.7136,0.7099,0.747,0.7487,0.7479,0.7405,0.7261,0.7163,0.7151,0.7057,0.6988,0.6988,0.7313,0.7489,0.7582,0.7969,0.8221,0.8392,0.8751,0.8889,0.8851,0.9051,0.9046,0.8927,0.8927,0.8813,0.8703,0.8703,0.8894,0.917,-0.8582,-0.8692,-0.8802,-0.8891,-0.8883,-0.8846,0.0,0.0,0.0,0.0,0.0,0.0,0.0,0.0,0.0,-0.7433,-0.7301,-0.7118,-0.6844,-0.6486,-0.6112,-0.5733,-0.526,-0.4814,0.0,0.0,0.0,0.0,0.0,0.0,0.0,0.0,0.0,0.0,-0.1088,-0.0672,0.0,0.0,0.0,0.0,-0.0256,-0.034,-0.0413,-0.0598,-0.0363,0.0131,0.0757,0.1382,0.2052,0.2847,0.2966,0.0,0.0,0.0,0.0,0.0,0.0,0.0,0.0,0.0,0.0,0.0,0.0,0.0,0.3645,0.479,0.5806,0.5515,0.692,0.8118,0.7958,0.8283,0.8614,0.8673,0.8314,0.8078,0.8259,0.8421,0.8385,0.8211,0.8186,0.8064,0.7778,0.7754,0.7683,0.7498,0.7202,0.7242,0.7743,0.7893,0.7991,0.8001,0.7893,0.7818,0.7818,0.7742,0.7722,0.7722,0.7947,0.8116,0.8183,0.8412,0.859,0.8703,0.9008,0.9122,0.916,0.943,0.943,0.9236,0.9236,0.9236,0.9198,0.9198,0.9349,0.9549,0.0,-0.8781,-0.8851,-0.8851,-0.8753,-0.8635,0.0,0.0,0.0,0.0,0.0,0.0,0.0,0.0,0.0,0.0,-0.6862,-0.6737,-0.6512,-0.6054,-0.5614,-0.5189,-0.4768,-0.4448,-0.4237,0.0,0.0,0.0,0.0,0.0,0.0,0.0,0.0,0.0,-0.0736,-0.0452,0.0,0.0,0.0,-0.0284,-0.0133,-0.0343,-0.0749,-0.0521,-0.015,0.0335,0.1016,0.197,0.3024,0.3642,0.3722,0.0,0.0,0.0,0.0,0.0,0.4521,0.0,0.0,0.0,0.0,0.0,0.3763,0.0,0.3633,0.5009,0.6245,0.6035,0.7195,0.8206,0.808,0.7835,0.7799,0.8117,0.8078,0.8195,0.8776,0.8952,0.8943,0.8654,0.8684,0.8569,0.8206,0.8152,0.8,0.7673,0.7626,0.7793,0.8131,0.85,0.8704,0.8699,0.8689,0.8703,0.8703,0.8703,0.8703,0.8703,0.8742,0.878,0.878,0.8813,0.8818,0.8851,0.9203,0.9359,0.9397,0.9771,0.9809,0.962,0.962,0.9733,0.9884,0.9884,0.9884,0.9884,-0.8695,-0.8643,-0.8582,-0.8582,-0.8561,-0.8533,0.0,0.0,0.0,0.0,0.0,0.0,0.0,0.0,0.0,0.0,0.0,-0.5699,-0.5286,-0.4764,-0.4426,-0.4328,-0.4188,-0.4016,-0.3826,-0.3935,0.0,0.0,0.0,0.0,0.0,0.0,0.0,0.0,-0.0352,-0.0101,0.0,0.0,0.0,-0.0392,-0.0406,-0.0419,-0.0437,-0.0188,0.0391,0.1182,0.2067,0.2931,0.3738,0.4025,0.4095,0.3996,0.0,0.0,0.0,0.3836,0.0,0.0,0.0,0.0,0.0,0.0,0.4099,0.0,0.3586,0.4031,0.4537,0.4648,0.5389,0.6248,0.7019,0.7694,0.8128,0.804,0.8274,0.8379,0.8136,0.876,0.8936,0.8138,0.8589,0.8831,0.8614,0.8594,0.8538,0.8458,0.8453,0.8494,0.8579,0.8645,0.8709,0.8712,0.8689,0.8703,0.8703,0.8703,0.8703,0.8703,0.9013,0.917,0.9208,0.9506,0.9652,0.9652,0.9728,0.9771,0.9771,0.9884,0.9884,0.9846,0.9846,0.9884,0.9884,0.9884,0.9884,0.9884,-0.8467,-0.8447,-0.8427,-0.8365,0.0,0.0,0.0,0.0,0.0,0.0,0.0,0.0,0.0,0.0,0.0,0.0,0.0,0.0,0.0,0.0,-0.4042,-0.3913,-0.3869,-0.3794,-0.3702,-0.3633,-0.3477,0.0,0.0,0.0,0.0,0.0,0.0,0.0,0.0,0.0,0.0,0.0,-0.0221,-0.0343,-0.0384,-0.0492,-0.0583,-0.0064,0.07,0.1573,0.2408,0.3394,0.4371,0.4411,0.4458,0.0,0.4084,0.4073,0.4133,0.0,0.4258,0.4505,0.0,0.0,0.0,0.4369,0.4246,0.0,0.0,0.4144,0.452,0.4464,0.5029,0.567,0.6068,0.6647,0.7121,0.7277,0.7559,0.7673,0.7449,0.8377,0.9066,0.8906,0.9233,0.9317,0.9016,0.8995,0.8913,0.87,0.8898,0.8995,0.8995,0.917,0.9299,0.9299,0.9288,0.9311,0.9311,0.9311,0.9311,0.9311,0.9506,0.9582,0.962,0.9809,0.9884,0.9884,0.9884,0.9884,0.9884,0.9884,0.9884,0.9884,0.9884,0.9884,0.9884,0.9884,0.9884,0.9884,-0.825,-0.8291,-0.8291,-0.8188,0.0,0.0,0.0,0.0,0.0,0.0,0.0,0.0,0.0,0.0,0.0,0.0,0.0,0.0,0.0,0.0,-0.3953,-0.3676,-0.3653,-0.3653,-0.3653,-0.3289,-0.3006,0.0,0.0,0.0,0.0,0.0,0.0,0.0,0.0,0.0,0.0,0.0,0.0,-0.0376,-0.0398,-0.0569,-0.0725,0.0129,0.0997,0.1868,0.2867,0.3956,0.4898,0.4753,0.4691,0.4674,0.4589,0.4443,0.0,0.0,0.0,0.0,0.0,0.0,0.0,0.0,0.0,0.4176,0.0,0.0,0.0,0.4398,0.4851,0.525,0.5104,0.5462,0.5885,0.6196,0.6597,0.6877,0.6814,0.7802,0.8712,0.9233,0.9427,0.936,0.9027,0.9127,0.9154,0.8929,0.9233,0.9406,0.9406,0.9771,0.9954,0.9954,0.9954,0.9954,0.9954,0.9916,0.9884,0.9884,0.9884,0.9884,0.9884,0.9884,0.9884,0.9884,0.9884,0.9884,0.9884,0.9884,0.9884,0.9884,0.9884,0.9884,0.9884,0.9884,0.9884,0.9884,-0.8332,-0.8193,-0.8041,-0.8021,0.0,0.0,0.0,0.0,0.0,0.0,0.0,0.0,0.0,0.0,0.0,0.0,0.0,0.0,-0.3786,0.0,0.0,-0.3529,-0.3517,-0.3517,-0.3517,-0.3028,-0.2658,-0.245,0.0,0.0,0.0,0.0,0.0,0.0,-0.0101,0.0,0.0,0.0,-0.0488,-0.065,-0.0724,-0.0664,-0.042,0.06,0.1504,0.2469,0.4402,0.5193,0.5261,0.0,0.4691,0.4623,0.0,0.4029,0.4008,0.4303,0.0,0.0,0.0,0.0,0.0,0.0,0.4436,0.0,0.3976,0.0,0.3907,0.3453,0.0,0.3843,0.3885,0.0,0.0,0.5071,0.602,0.6719,0.6486,0.6843,0.7107,0.7063,0.7655,0.8027,0.7969,0.8571,0.9155,0.9718,0.9788,0.9841,0.9841,1.0051,1.018,1.018,1.018,1.018,1.018,0.9992,0.9884,0.9884,0.9884,0.9884,0.9884,0.9884,0.9884,0.9884,0.9884,0.9884,0.9884,0.9884,0.9884,0.9884,0.9884,0.9884,0.9884,0.9884,0.9884,0.9884,-0.7974,-0.8015,-0.7946,-0.8,0.0,0.0,0.0,0.0,0.0,0.0,0.0,0.0,0.0,0.0,0.0,0.0,0.0,-0.4969,-0.464,0.0,0.0,0.0,-0.3707,-0.3448,-0.3337,-0.2603,-0.2089,-0.1757,-0.092,0.0,0.0,0.0,0.0,0.0,-0.0269,0.0,-0.0569,0.0,-0.0635,-0.0734,-0.0583,-0.0315,0.0052,0.0818,0.2067,0.3578,0.4405,0.5014,0.5286,0.0,0.465,0.0,0.0,0.0,0.0,0.492,0.0,0.0,0.0,0.0,0.0,0.0,0.0,0.0,0.4605,0.0,0.3806,0.0,0.0,0.0,0.0,0.0,0.0,0.0,0.5278,0.5658,0.5543,0.5987,0.6574,0.7252,0.7618,0.7962,0.8409,0.8344,0.8576,0.933,0.9344,0.9344,0.9379,0.9806,1.003,1.003,1.003,1.003,1.003,0.996,0.9884,0.9884,0.9884,0.9884,0.9884,0.9884,0.9884,0.9884,0.9884,0.9884,0.9884,0.9884,0.9884,0.9884,0.9884,0.9884,0.9884,0.9884,0.9884,0.9884,-0.7363,0.0,0.0,-0.7537,0.0,0.0,0.0,0.0,0.0,0.0,0.0,0.0,-0.5952,-0.5456,-0.5288,0.0,-0.5607,-0.5485,-0.5313,-0.4935,-0.4669,-0.4563,-0.3936,-0.3426,-0.3102,-0.2299,-0.1673,-0.1188,0.0,0.0,0.0,0.0,0.0,0.0,0.0,-0.0515,-0.0697,0.0,-0.0476,-0.0529,-0.0082,0.0385,0.0863,0.1371,0.2694,0.432,0.4343,0.4804,0.5276,0.4463,0.4636,0.0,0.4409,0.427,0.4513,0.0,0.0,0.0,0.577,0.0,0.0,0.0,0.0,0.0,0.0,0.0,0.0,0.0,0.0,0.0,0.0,0.0,0.0,0.0,0.0,0.4894,0.4786,0.5259,0.5993,0.6961,0.7321,0.7709,0.8231,0.7989,0.8047,0.8636,0.882,0.8934,0.8968,0.9679,1.0067,1.0067,1.0105,1.0105,1.0067,1.0067,1.003,0.9992,0.9992,0.9992,0.9992,0.9916,0.9884,0.9884,0.9884,0.9922,0.9992,0.9992,0.9992,0.9992,0.9992,0.9954,0.9884,0.9884,0.9884,0.9884,-0.652,-0.6444,0.0,0.0,-0.6352,0.0,0.0,0.0,0.0,0.0,0.0,-0.5526,-0.6032,-0.5216,-0.4888,-0.5539,-0.5774,-0.573,-0.5321,-0.5281,-0.5096,-0.4714,-0.4115,-0.3484,-0.2817,-0.2206,-0.1575,-0.0919,0.0,0.0,0.0,0.0,0.0,0.0,0.0,-0.0515,-0.0658,0.0,0.0187,0.0118,0.0774,0.1499,0.2178,0.0,0.3394,0.4353,0.468,0.0,0.0,0.4856,0.4687,0.0,0.0,0.0,0.0,0.0,0.0,0.0,0.0,0.0,0.0,0.5902,0.0,0.0,0.0,0.0,0.4008,0.0,0.0,0.0,0.0,0.0,0.0,0.0,0.0,0.0,0.0,0.4711,0.5025,0.5259,0.6142,0.6752,0.6774,0.7408,0.7806,0.7833,0.8506,0.8895,0.8895,0.9891,1.0481,1.0481,1.0663,1.0663,1.0481,1.0481,1.0368,1.018,1.018,1.018,1.018,0.9992,0.9884,0.9884,0.9884,0.9992,1.018,1.018,1.018,1.018,1.018,1.0067,0.9884,0.9884,0.9884,0.9884,-0.5281,0.0,0.0,0.0,-0.6482,-0.6456,-0.5983,-0.5761,-0.5701,-0.5853,-0.5845,-0.6081,-0.6764,-0.6441,-0.627,-0.6518,-0.6804,-0.6794,-0.6436,-0.6432,-0.6133,-0.5473,-0.4773,-0.3827,-0.2618,-0.2052,-0.1434,-0.0762,0.0,0.0,0.0,0.0,0.0,0.0,0.0,-0.0404,0.0,0.0,0.0,0.0,0.0,0.1942,0.2629,0.0,0.3566,0.432,0.4422,0.4858,0.0,0.4873,0.4917,0.5115,0.4785,0.4585,0.4661,0.5701,0.5808,0.5799,0.0,0.0,0.7617,0.7355,0.0,0.0,0.0,0.0,0.0,0.0,0.0,0.0,0.0,0.0,0.0,0.0,0.0,0.0,0.0,0.422,0.4655,0.5263,0.5825,0.6441,0.7089,0.6959,0.6923,0.7186,0.7422,0.7621,0.7711,0.8972,0.9712,0.9712,1.0298,1.0556,1.0513,1.0513,1.0481,1.04,1.04,1.04,1.04,1.0331,1.0293,1.0293,1.0293,1.0331,1.04,1.04,1.0331,1.0218,1.0218,1.0067,0.9884,0.9884,0.9884,1.0014,-0.4688,-0.4685,-0.4983,0.0,-0.6044,-0.6123,-0.5839,-0.558,-0.5647,-0.6246,-0.6251,-0.6456,-0.7068,-0.6913,-0.6849,-0.698,-0.7082,-0.718,-0.7381,-0.6647,-0.6123,-0.5947,-0.4728,-0.3527,-0.2426,-0.1877,-0.1274,-0.0586,0.0,-0.0392,0.0,0.0,0.0,0.0,0.0,-0.0232,-0.002,0.0613,0.0969,0.0,0.0,0.243,0.0,0.0,0.3563,0.4287,0.0,0.4791,0.5351,0.5057,0.5153,0.5344,0.5051,0.4958,0.5109,0.582,0.5973,0.6082,0.7057,0.7722,0.0,0.8136,0.758,0.0,0.658,0.0,0.4854,0.0,0.0,0.0,0.0,0.0,0.0,0.0,0.0,0.0,0.0,0.3889,0.4327,0.5137,0.5714,0.6201,0.6579,0.6522,0.6452,0.6481,0.669,0.6883,0.7016,0.8516,0.9326,0.9268,1.0223,1.0622,1.0461,1.0622,1.0663,1.0625,1.0625,1.0625,1.0625,1.0812,1.0925,1.0925,1.0925,1.0962,1.0999,1.07,1.0663,1.07,1.0406,1.0331,1.0293,0.9992,1.0014,1.0253,-0.4687,-0.4739,-0.4883,-0.4883,-0.5048,-0.5249,-0.5401,-0.5639,-0.6073,-0.6785,-0.6605,-0.6574,-0.6951,-0.6672,-0.6607,-0.6951,-0.6652,-0.6888,-0.7921,-0.5999,-0.5189,-0.6043,-0.4097,-0.2702,-0.2188,-0.1666,-0.1091,-0.0422,0.0,0.0,0.0,0.0,0.0,0.0,-0.0118,0.0,0.0103,0.1366,0.1917,0.1995,0.2537,0.2938,0.3146,0.2893,0.3425,0.4287,0.4287,0.4755,0.5362,0.5395,0.5395,0.5395,0.5395,0.5395,0.5395,0.5395,0.5881,0.6531,0.7223,0.7809,0.8233,0.8236,0.8118,0.0,0.0,0.0,0.6398,0.0,0.0,0.0,0.0,0.0,0.0,0.0,0.0,0.0,0.0,0.0,0.3986,0.4751,0.5668,0.5964,0.5307,0.6101,0.6401,0.575,0.6304,0.6717,0.6881,0.8486,0.9313,0.9186,1.0354,1.0784,1.0437,1.0832,1.0958,1.0812,1.0812,1.085,1.0887,1.1446,1.1706,1.1781,1.1744,1.1855,1.1966,1.1223,1.1223,1.1632,1.0887,1.0856,1.1092,1.0235,1.0237,1.0634,-0.4465,-0.4617,-0.4788,-0.4694,-0.4839,-0.5157,-0.5698,-0.5958,-0.6186,-0.6478,-0.6714,-0.6886,-0.698,-0.7269,-0.7277,-0.6802,-0.7037,-0.6992,-0.6427,-0.6216,-0.5673,-0.468,-0.4101,-0.3167,-0.177,-0.1574,-0.1205,-0.0698,0.0,0.0,-0.0739,0.0,0.0,0.0,0.0,0.0118,0.0361,0.1435,0.2137,0.2484,0.2441,0.2601,0.2831,0.0,0.327,0.3956,0.422,0.4592,0.4997,0.5296,0.5395,0.5395,0.5395,0.5395,0.5395,0.5395,0.5881,0.6531,0.7223,0.7907,0.8511,0.8927,0.8421,0.7751,0.0,0.0,0.0,0.0,0.0,0.0,0.0,0.0,0.0,0.0,0.0,0.0,0.0,0.0,0.3948,0.4003,0.4795,0.5446,0.5691,0.6132,0.6213,0.5734,0.5902,0.6251,0.6787,0.7332,0.8098,0.9105,0.9052,0.9526,1.0599,1.0364,1.0497,1.1037,1.1037,1.1335,1.1892,1.1446,1.1922,1.2981,1.2409,1.2187,1.2224,1.2469,1.2211,1.1706,1.1966,1.2276,1.2416,1.0941,1.0723,1.1244,-0.4593,-0.4666,-0.4832,-0.4894,-0.4914,-0.5203,-0.5935,-0.6253,-0.6567,-0.6952,-0.6774,-0.6678,-0.6821,-0.6731,-0.6507,-0.6091,-0.6129,-0.6081,-0.5809,-0.5407,-0.4936,-0.4299,-0.3641,-0.277,-0.1649,-0.138,-0.1104,-0.0797,0.0,0.0,-0.0763,0.0,0.0,0.0,0.0,0.0469,0.0864,0.1824,0.2495,0.2867,0.2715,0.2815,0.0,0.2956,0.3213,0.3657,0.3997,0.4406,0.4864,0.5263,0.5395,0.5395,0.5395,0.5395,0.5395,0.5395,0.5653,0.6112,0.6793,0.7451,0.8074,0.8657,0.8567,0.8293,0.8149,0.7683,0.725,0.0,0.7278,0.7209,0.0,0.0,0.0,0.0,0.0,0.0,0.0,0.0,0.4464,0.4097,0.4917,0.5543,0.5602,0.5859,0.5949,0.5723,0.5739,0.5913,0.6264,0.7002,0.7647,0.8082,0.8572,0.9047,0.9474,0.93,0.9606,1.0394,1.0394,1.0879,1.1781,1.1669,1.2328,1.3462,1.3025,1.2959,1.3185,1.3469,1.3305,1.3021,1.3536,1.3772,1.368,1.2739,1.2571,1.2898,-0.4909,-0.484,-0.4965,-0.5333,-0.5198,-0.5299,-0.6067,-0.6355,-0.6707,-0.7289,-0.6595,-0.6103,-0.6352,-0.5761,-0.5321,-0.525,-0.4892,-0.4955,-0.5622,-0.4281,-0.3702,-0.4251,-0.2931,-0.2027,-0.1649,-0.118,-0.0928,-0.0854,0.0,0.0,0.0,0.0,0.0,0.0,0.0,0.0,0.0,0.2299,0.2784,0.3091,0.3091,0.3234,0.3424,0.3222,0.3276,0.3451,0.3797,0.4272,0.4794,0.5196,0.5362,0.5395,0.5395,0.5395,0.5395,0.5395,0.5395,0.5557,0.6203,0.6732,0.726,0.8009,0.8533,0.8856,0.877,0.877,0.8705,0.8549,0.8738,0.8628,0.764,0.0,0.0,0.0,0.0,0.0,0.0,0.0,0.5283,0.4639,0.5601,0.0,0.5311,0.5519,0.5723,0.5766,0.5739,0.5727,0.5777,0.0,0.7435,0.691,0.8371,0.8824,0.8117,0.8225,0.8759,0.9715,0.9582,1.0131,1.1298,1.1893,1.2684,1.3557,1.3601,1.3887,1.4312,1.4343,1.4547,1.4886,1.5296,1.5286,1.505,1.5094,1.5142,1.5109,-0.4909,-0.5022,-0.5345,-0.5734,-0.5533,-0.5504,-0.6046,-0.5749,-0.5396,-0.5199,-0.5425,-0.552,-0.5317,-0.5741,-0.5888,-0.5552,-0.5595,-0.5447,-0.4923,-0.4274,-0.3651,-0.3062,-0.2368,-0.1836,-0.1391,-0.1271,-0.1219,-0.1195,0.0,0.0,0.0,0.0,0.0,0.0,0.0,0.0,0.2434,0.2213,0.0,0.3025,0.3025,0.3053,0.3115,0.336,0.3448,0.3511,0.3869,0.4166,0.4456,0.4794,0.513,0.5395,0.5395,0.5395,0.5395,0.5395,0.5395,0.5557,0.6203,0.6465,0.6793,0.7782,0.8112,0.8247,0.8479,0.8544,0.8549,0.8517,0.8544,0.8538,0.8318,0.0,0.0,0.0,0.0,0.0,0.0,0.0,0.5891,0.5015,0.6071,0.6499,0.5532,0.5603,0.5804,0.6099,0.5906,0.6032,0.6641,0.0,0.634,0.0,0.7327,0.79,0.0,0.0,0.9155,1.0828,0.9925,1.0402,1.209,1.1771,1.2437,1.3865,1.4136,1.4291,1.4491,1.5669,1.6081,1.6076,1.6646,1.6789,1.684,1.7249,1.7438,1.7317,-0.5155,-0.4784,-0.4595,-0.4763,-0.4547,-0.4421,-0.4798,-0.4449,-0.4412,-0.5139,-0.5138,-0.5072,-0.5011,-0.4927,-0.4761,-0.4579,-0.4603,-0.4384,-0.3802,-0.3597,-0.3128,-0.2265,-0.2095,-0.1791,-0.1257,-0.1286,-0.1272,-0.1248,0.0,0.0,0.0,0.0,0.0,0.0,0.0,0.2226,0.0,0.0,0.0,0.321,0.3348,0.3402,0.3418,0.3587,0.3607,0.3565,0.3749,0.3946,0.4191,0.4475,0.4863,0.5196,0.5119,0.5229,0.5395,0.5395,0.5395,0.5458,0.5782,0.6075,0.6371,0.6896,0.7228,0.7456,0.7619,0.7652,0.7754,0.8025,0.809,0.8046,0.7941,0.7328,0.0,0.0,0.0,0.0,0.0,0.0,0.6094,0.5863,0.6766,0.7135,0.6441,0.6434,0.6367,0.6112,0.5857,0.5813,0.6111,0.0,0.6383,0.0,0.0,0.0,0.8855,0.0,0.8975,1.0256,0.9757,1.034,1.1866,1.1621,1.2215,1.3502,1.3648,1.4141,1.4972,1.6338,1.701,1.7226,1.7499,1.7615,1.7681,1.8181,1.8362,1.8282,-0.5268,-0.4626,-0.4105,0.0,-0.3819,-0.3603,-0.3912,-0.3493,-0.3613,-0.5152,-0.4868,-0.4607,-0.4743,-0.4166,-0.3708,-0.3587,-0.3502,-0.3252,-0.2856,-0.2828,-0.2517,-0.1884,-0.1911,-0.1733,-0.1252,-0.1296,-0.1283,0.0,0.0,0.0,0.0,0.0,0.0,0.0,0.0,0.0,0.0,0.0,0.3432,0.3503,0.3717,0.3802,0.3802,0.3802,0.3718,0.3654,0.3654,0.3761,0.3978,0.4158,0.4602,0.5022,0.4916,0.5153,0.5487,0.5487,0.5487,0.5487,0.5487,0.5753,0.6045,0.614,0.6494,0.6825,0.6924,0.6957,0.7136,0.7754,0.8034,0.8102,0.793,0.783,0.0,0.0,0.0,0.0,0.0,0.0,0.6425,0.6693,0.7367,0.7628,0.7156,0.7047,0.6707,0.5968,0.5748,0.5668,0.5752,0.6163,0.653,0.0,0.0,0.8175,0.8369,0.0,0.883,0.9841,0.9624,1.0208,1.1495,1.1549,1.2066,1.2948,1.3207,1.4064,1.5388,1.6396,1.7168,1.7708,1.7708,1.7829,1.804,1.8411,1.8531,1.8491,-0.4858,0.0,0.0,0.0,0.0,-0.4376,-0.4793,-0.366,-0.3002,-0.3691,-0.3896,-0.3991,-0.3991,-0.4123,-0.4058,-0.3564,-0.3538,-0.3298,-0.2673,-0.2411,-0.2174,-0.2009,-0.1647,-0.1457,-0.1374,-0.1379,-0.1365,0.0,0.0,-0.0865,0.0,0.0,0.0,0.0,0.0,0.0,0.0,0.3377,0.354,0.3767,0.3791,0.3802,0.3802,0.3802,0.3798,0.3789,0.3789,0.3785,0.3801,0.3707,0.4355,0.517,0.5158,0.5438,0.5762,0.5762,0.5762,0.5762,0.5762,0.5794,0.5902,0.6283,0.6416,0.6587,0.7061,0.7163,0.7421,0.8339,0.9082,0.9587,0.9588,0.8952,0.8171,0.0,0.0,0.0,0.0,0.0,0.7375,0.7158,0.7586,0.7604,0.691,0.6557,0.6169,0.568,0.5725,0.6121,0.6893,0.6151,0.6134,0.7133,0.7261,0.7751,0.8662,0.8433,0.9197,1.0954,0.9967,1.0208,1.1501,1.1742,1.2069,1.2447,1.3474,1.4462,1.5389,1.5501,1.606,1.6821,1.6821,1.7286,1.8,1.804,1.808,1.808,0.0,0.0,0.0,0.0,0.0,0.0,0.0,-0.2912,-0.273,-0.313,-0.3094,-0.3139,-0.3272,-0.3405,-0.338,-0.3149,-0.3151,-0.2949,-0.2404,-0.2279,-0.2041,-0.1642,-0.1504,-0.1385,-0.1417,-0.1399,-0.1124,0.0,0.0,0.0,0.0,0.0,0.0,0.0,0.0,0.3294,0.341,0.3573,0.3703,0.3802,0.3802,0.3802,0.3802,0.3802,0.3802,0.3802,0.3802,0.3802,0.3798,0.3722,0.4254,0.497,0.4926,0.53,0.58,0.58,0.58,0.58,0.58,0.58,0.5822,0.6012,0.6029,0.61,0.6311,0.6346,0.6679,0.788,0.9001,0.9788,0.9788,0.9619,0.9238,0.8604,0.0,0.0,0.0,0.0,0.0,0.8516,0.8172,0.8102,0.8613,0.7487,0.6696,0.6628,0.5924,0.5763,0.6346,0.6492,0.7236,0.871,0.0,0.912,1.077,0.9766,0.9877,1.1105,1.0821,1.1062,1.1736,1.2035,1.23,1.2596,1.3581,1.421,1.4636,1.5711,1.609,1.5966,1.6494,1.6903,1.7237,1.735,1.8006,1.8785,-0.4487,0.0,-0.2621,0.0,-0.2415,-0.2321,-0.2446,-0.2446,-0.2457,-0.2644,-0.2359,-0.2377,-0.2868,-0.2911,-0.2853,-0.2686,-0.267,-0.2478,-0.1931,-0.1941,-0.178,-0.1397,-0.1377,0.0,-0.1391,-0.1414,-0.0921,0.0,-0.0153,0.0,0.0,0.0,0.0,0.0,0.3406,0.3517,0.3529,0.3721,0.3802,0.3802,0.3802,0.3802,0.3802,0.3802,0.3802,0.3802,0.3802,0.3802,0.3802,0.3802,0.426,0.4868,0.4821,0.531,0.5935,0.5935,0.5899,0.5858,0.5935,0.5899,0.5848,0.5845,0.5867,0.5867,0.5867,0.5867,0.6205,0.7445,0.8836,0.982,0.982,1.0141,1.0195,0.9584,0.0,0.0,0.0,0.8382,0.0,0.9205,0.8614,0.8536,0.9494,0.8266,0.7402,0.7361,0.6499,0.6066,0.6299,0.6715,0.7626,0.0,0.0,0.0,1.1142,1.0092,1.0106,1.1238,1.1399,1.1748,1.2249,1.2636,1.295,1.3137,1.376,1.4013,1.4132,1.5413,1.5711,1.5477,1.637,1.6698,1.6788,1.7423,1.8189,1.8975,-0.3801,-0.3373,-0.2976,-0.2916,-0.2908,-0.285,-0.2804,-0.2446,-0.2166,-0.2116,-0.1704,-0.1793,-0.2778,-0.2911,-0.2687,-0.2154,-0.2189,-0.1931,-0.1262,-0.1353,-0.1396,0.0,0.0,-0.1391,-0.1391,-0.139,-0.0941,0.0,0.0,0.0,0.2306,0.0,0.3491,0.3501,0.3717,0.3798,0.3798,0.3802,0.3802,0.3802,0.3802,0.3802,0.3802,0.3802,0.3802,0.3802,0.3802,0.3802,0.3802,0.3802,0.4343,0.5002,0.4999,0.5586,0.6293,0.6293,0.6096,0.5973,0.6215,0.6096,0.5902,0.5989,0.599,0.599,0.599,0.599,0.6293,0.7287,0.877,0.9911,0.9911,1.0545,1.0846,1.0027,0.0,0.0,0.0,0.9166,0.0,0.8761,0.8757,0.8813,0.8916,0.8591,0.8145,0.754,0.0,0.7498,0.7295,0.0,0.0,0.7602,0.6854,0.0,0.8722,0.8728,0.9654,1.1489,1.1489,1.2003,1.3026,1.3754,1.4062,1.4088,1.4088,1.4117,1.4097,1.4139,1.4636,1.5477,1.637,1.6714,1.6894,1.8656,1.8727,1.8167,-0.3119,-0.2754,-0.2454,-0.2416,-0.2179,-0.1924,-0.1933,-0.181,-0.1723,-0.1701,-0.1559,-0.1604,-0.1924,-0.1899,-0.1829,0.0,-0.1582,-0.1519,0.0,-0.1352,-0.1359,-0.1348,-0.1362,-0.1345,-0.1345,-0.1345,-0.0882,0.0084,0.0,0.0,0.0,0.3462,0.3647,0.3825,0.3859,0.3857,0.3852,0.3828,0.3802,0.3802,0.3802,0.3802,0.3802,0.3802,0.3802,0.3802,0.3802,0.3802,0.3802,0.3802,0.4345,0.4965,0.4851,0.5359,0.6022,0.6022,0.5867,0.5715,0.5792,0.5754,0.5741,0.5886,0.595,0.5991,0.6148,0.6641,0.711,0.7433,0.836,0.9193,0.9604,1.0024,1.0163,0.9763,1.0492,0.0,1.0025,0.0,1.0043,0.989,0.9231,0.9119,0.9912,0.9483,0.9221,0.9396,0.0,0.0,0.0,0.0,0.0,0.0,1.0715,0.0,1.2499,1.1529,1.1585,1.2739,1.2895,1.3263,1.3761,1.3986,1.4082,1.4088,1.411,1.4104,1.4139,1.4727,1.5137,1.5496,1.6363,1.6698,1.6747,1.718,1.7423,1.7674,-0.2629,-0.2262,-0.198,-0.1963,-0.1755,-0.1532,-0.145,-0.1464,-0.147,-0.1448,-0.1495,-0.1498,-0.1498,-0.148,0.0,-0.1393,-0.1341,-0.1376,-0.1387,-0.134,-0.1378,-0.1388,-0.1339,-0.1352,-0.1352,-0.0972,0.0,0.059,0.1662,0.2744,0.3879,0.3846,0.3922,0.4083,0.3991,0.395,0.3944,0.3852,0.3853,0.3851,0.3816,0.3802,0.3802,0.3802,0.3802,0.3802,0.3802,0.3802,0.3841,0.3958,0.4462,0.5004,0.4932,0.5321,0.5789,0.5789,0.5634,0.5518,0.5598,0.5559,0.5518,0.575,0.5789,0.5828,0.5986,0.6486,0.6903,0.6903,0.7553,0.8237,0.8647,0.8993,0.917,0.907,1.009,1.0747,1.0225,0.0,1.0487,1.0712,0.9987,0.9996,0.0,1.1076,1.0881,0.0,0.0,0.0,0.0,0.0,1.0329,1.2269,1.1833,1.2182,1.3463,1.2561,1.255,1.348,1.3892,1.4172,1.4307,1.4503,1.4587,1.4587,1.4936,1.5088,1.513,1.6,1.6198,1.6026,1.722,1.7261,1.6821,1.7658,1.7912,1.7966,-0.2353,-0.1912,-0.1556,-0.1476,-0.1473,-0.14,-0.1233,-0.1262,-0.1275,-0.1182,-0.1261,-0.129,-0.129,-0.1288,-0.1268,-0.1175,0.0,0.0,-0.1396,-0.1391,-0.1389,-0.1303,-0.1298,-0.125,-0.1203,-0.0356,0.058,0.1522,0.3312,0.4253,0.4297,0.4218,0.4225,0.4222,0.4087,0.4002,0.3996,0.3948,0.391,0.3901,0.3855,0.3816,0.3812,0.3812,0.3808,0.3802,0.3841,0.3841,0.3919,0.4307,0.4693,0.5043,0.524,0.5401,0.5598,0.5598,0.544,0.5321,0.5521,0.544,0.5323,0.5521,0.5598,0.5598,0.5598,0.575,0.5864,0.5864,0.6514,0.7088,0.7165,0.7625,0.8046,0.808,0.8965,0.9636,0.9568,1.0061,1.0613,1.1108,0.0,0.0,1.272,1.3003,1.2902,0.0,0.0,0.0,0.0,0.0,0.9939,1.0708,1.1023,1.1543,1.2327,1.2341,1.2828,1.3818,1.4435,1.4776,1.4859,1.5208,1.5423,1.5548,1.6296,1.6617,1.6657,1.7472,1.7391,1.6862,1.8514,1.8201,1.7139,1.9594,1.9644,1.8688,0.0,0.0,-0.1349,-0.0434,-0.0344,-0.01,0.0738,0.089,0.0893,0.0885,0.0928,0.0925,0.0925,0.096,0.0948,0.0986,-0.0495,-0.143,-0.1453,-0.144,-0.1066,-0.0367,-0.0263,0.0085,0.0874,0.1123,0.1663,0.2552,0.3001,0.3583,0.43,0.4279,0.4269,0.4265,0.4179,0.414,0.4134,0.4042,0.3962,0.396,0.394,0.393,0.3867,0.3867,0.3864,0.3841,0.4151,0.4268,0.4307,0.4732,0.5004,0.5201,0.5121,0.5201,0.5359,0.5359,0.5246,0.5093,0.5135,0.5093,0.5132,0.5321,0.5479,0.5598,0.5598,0.5637,0.5676,0.5676,0.5828,0.6135,0.6637,0.6976,0.7318,0.7804,0.9269,1.0094,0.9249,1.0044,1.0449,0.0,1.0402,1.1073,1.1523,1.2954,1.349,0.0,0.0,1.2508,1.2846,1.248,1.2885,1.4168,1.4038,1.4175,1.4604,1.4612,1.4763,1.5016,1.5179,1.5575,1.6206,1.5665,1.5741,1.6378,1.5906,1.5707,1.5707,1.5948,1.6312,1.6763,1.7449,1.7888,1.8244,1.9118,1.8812,1.8128,-0.076,-0.0441,0.005,0.0687,0.0746,0.0907,0.1513,0.1613,0.1613,0.1613,0.1649,0.1639,0.1639,0.1672,0.1662,0.1662,0.0654,0.0,-0.0048,0.0,0.0229,0.0749,0.0817,0.1058,0.1597,0.2029,0.2666,0.3537,0.3537,0.3807,0.43,0.43,0.43,0.4297,0.4251,0.423,0.4224,0.4136,0.4097,0.4095,0.401,0.3964,0.3961,0.4166,0.4256,0.4288,0.4731,0.4892,0.4972,0.5373,0.5574,0.5654,0.5651,0.5731,0.5771,0.5694,0.5337,0.5018,0.5018,0.5018,0.5015,0.5129,0.5249,0.5329,0.5329,0.5404,0.5479,0.5479,0.5605,0.5844,0.6195,0.6407,0.665,0.6958,0.831,0.9102,0.8544,0.9618,1.0544,1.068,1.1341,1.2066,1.284,1.3793,1.4128,1.3565,1.3175,0.0,1.3784,1.351,1.3905,1.5126,1.5133,1.5206,1.5389,1.5389,1.5389,1.5389,1.5389,1.5665,1.6105,1.5624,1.5665,1.6113,1.619,1.6217,1.6266,1.6799,1.7107,1.7199,1.7815,1.81,1.8244,1.8837,1.8582,1.8117,0.0252,0.0958,0.1664,0.1815,0.1865,0.1915,0.2066,0.2066,0.2066,0.2066,0.2066,0.2066,0.2066,0.2066,0.2066,0.2066,0.2152,0.2016,0.1728,0.168,0.1774,0.1912,0.1912,0.1941,0.2042,0.2822,0.3574,0.432,0.4306,0.43,0.43,0.43,0.43,0.43,0.43,0.43,0.4293,0.431,0.4322,0.4315,0.4276,0.4236,0.4265,0.4685,0.4843,0.487,0.5413,0.558,0.5663,0.6037,0.6159,0.6159,0.6363,0.636,0.6322,0.6159,0.5673,0.5148,0.5148,0.5148,0.5148,0.5148,0.5148,0.5148,0.5148,0.5303,0.5418,0.5418,0.5701,0.5944,0.5944,0.604,0.609,0.6128,0.7115,0.7882,0.7879,0.0,1.0836,1.219,1.2616,1.3353,1.4728,1.4767,1.469,1.4591,1.3908,1.3913,1.4889,1.4154,1.4127,1.4951,1.5243,1.5389,1.5389,1.5389,1.5389,1.5389,1.5391,1.5496,1.5622,1.5506,1.5528,1.5752,1.6642,1.7055,1.7164,1.8188,1.8181,1.7589,1.8376,1.8314,1.7878,1.8675,1.8671,1.8404,0.1361,0.1462,0.1865,0.2771,0.2972,0.3274,0.418,0.428,0.428,0.428,0.428,0.428,0.428,0.428,0.428,0.428,0.4307,0.3545,0.1749,0.1599,0.1984,0.2829,0.2875,0.3286,0.4124,0.4148,0.4244,0.4368,0.4336,0.43,0.43,0.43,0.43,0.43,0.43,0.43,0.4342,0.4727,0.4854,0.4896,0.5276,0.5393,0.5352,0.5438,0.5419,0.5413,0.5871,0.5996,0.6079,0.6453,0.6491,0.636,0.6402,0.628,0.6159,0.6121,0.6007,0.5932,0.5932,0.5932,0.5932,0.5932,0.5932,0.5932,0.5932,0.5932,0.5973,0.5973,0.603,0.6086,0.6086,0.6105,0.6124,0.6192,0.7385,0.8284,0.8243,0.0,1.1473,1.1556,1.2634,1.3457,1.3738,1.4444,1.4789,1.4617,1.4724,1.4902,1.5052,1.4916,1.4991,1.5309,1.536,1.5389,1.5389,1.5389,1.5389,1.5389,1.5447,1.5854,1.6576,1.5872,1.6082,1.6962,1.6404,1.6294,1.6557,1.6741,1.6712,1.6654,1.7071,1.7618,1.826,1.8699,1.8806,1.8708,0.2469,0.2922,0.3475,0.3979,0.4079,0.423,0.4734,0.4784,0.4784,0.4784,0.4784,0.4784,0.4784,0.4784,0.4784,0.4784,0.4784,0.4381,0.3374,0.3324,0.3512,0.3978,0.4026,0.4239,0.4649,0.4557,0.451,0.451,0.4418,0.4373,0.4371,0.4322,0.4431,0.4699,0.4699,0.4832,0.5055,0.5275,0.5364,0.5408,0.563,0.5689,0.5687,0.5949,0.5959,0.5866,0.634,0.647,0.6513,0.6685,0.6767,0.6761,0.6761,0.6721,0.6721,0.7232,0.6778,0.6121,0.6121,0.6121,0.6121,0.6121,0.6121,0.6121,0.6121,0.6121,0.6121,0.6121,0.6634,0.6982,0.6479,0.7547,0.838,0.7914,0.9082,1.0067,1.0037,1.1546,1.2641,1.258,1.3636,1.4354,1.4354,1.4529,1.4654,1.4654,1.4789,1.4957,1.509,1.5215,1.5298,1.5389,1.5389,1.5427,1.5467,1.5467,1.5469,1.5504,1.5559,1.5842,1.6365,1.5993,1.619,1.6815,1.6602,1.6541,1.669,1.6813,1.6887,1.6901,1.7055,1.7375,1.7796,1.7956,1.7971,1.7971,0.3575,0.423,0.4784,0.4784,0.4784,0.4784,0.4784,0.4784,0.4784,0.4784,0.4784,0.4784,0.4784,0.4784,0.4784,0.4784,0.4784,0.4784,0.4784,0.4784,0.4784,0.4784,0.4784,0.4754,0.4738,0.4651,0.4604,0.4604,0.4512,0.441,0.4388,0.4453,0.4676,0.501,0.5097,0.5364,0.5719,0.5808,0.5852,0.5852,0.5985,0.603,0.6074,0.6432,0.6476,0.639,0.6966,0.719,0.7231,0.7448,0.7621,0.7749,0.7749,0.7749,0.7881,0.8623,0.7959,0.6919,0.6716,0.6674,0.659,0.6382,0.634,0.634,0.634,0.6505,0.6671,0.6793,0.7731,0.8333,0.7733,0.9255,1.0368,0.9691,0.0,1.1455,1.1707,1.2641,1.3425,1.3695,1.4436,1.4957,1.4957,1.4657,1.4566,1.4783,1.4783,1.4902,1.519,1.5414,1.5535,1.5523,1.5451,1.5475,1.5525,1.5525,1.5558,1.5606,1.5683,1.5807,1.6045,1.6124,1.6287,1.6564,1.6819,1.6967,1.7027,1.723,1.7279,1.7279,1.7279,1.7279,1.7279,1.7279,1.7279,1.7279,0.4684,0.4734,0.4784,0.4784,0.4784,0.4784,0.4784,0.4784,0.4784,0.4784,0.4784,0.4784,0.4784,0.4784,0.4784,0.4784,0.4784,0.4784,0.4784,0.4784,0.4784,0.4784,0.4784,0.478,0.4774,0.4743,0.4698,0.4698,0.4608,0.4518,0.4388,0.4839,0.5013,0.501,0.5453,0.5675,0.5719,0.6163,0.634,0.6384,0.683,0.7007,0.7007,0.7051,0.7051,0.7139,0.8061,0.8368,0.8496,0.9362,0.9662,0.9705,0.9705,0.9705,0.9705,0.9792,0.973,0.9447,0.8543,0.8329,0.811,0.7237,0.7017,0.7017,0.7017,0.772,0.8456,0.887,0.9577,1.0197,1.0542,1.0595,1.0632,1.0665,0.0,0.0,1.2311,1.2654,1.3131,1.3971,1.428,1.444,1.444,1.4608,1.4783,1.5041,1.509,1.5169,1.5462,1.5705,1.5879,1.5948,1.5669,1.5532,1.5571,1.5571,1.5592,1.5613,1.5899,1.6085,1.6099,1.6385,1.6713,1.6955,1.6983,1.7077,1.725,1.7271,1.7279,1.7279,1.7279,1.7279,1.7279,1.7279,1.7279,1.7279,0.492,0.4873,0.4784,0.4784,0.4784,0.4784,0.4784,0.4784,0.4784,0.4784,0.4784,0.4784,0.4784,0.4784,0.4784,0.4784,0.4784,0.4935,0.5286,0.5286,0.5135,0.4834,0.5135,0.5286,0.5286,0.5598,0.5778,0.5778,0.5667,0.5641,0.5596,0.5722,0.586,0.606,0.6243,0.6421,0.6561,0.6741,0.683,0.6915,0.7665,0.7973,0.8017,0.8619,0.875,0.8711,0.9061,0.9192,0.9235,0.9579,0.9792,0.9879,0.9879,0.9879,1.0009,1.0577,1.1187,1.144,1.0496,0.9802,0.9274,0.8925,0.8838,0.8838,0.8838,0.9357,0.9836,1.0043,1.0994,1.1638,1.1241,1.2231,1.292,1.2253,0.0,1.3635,1.3822,1.3938,1.4097,1.4448,1.4739,1.4892,1.4892,1.4986,1.5104,1.5198,1.5365,1.5502,1.5614,1.6016,1.6168,1.608,1.6109,1.5974,1.5679,1.5809,1.5906,1.5968,1.6264,1.6507,1.6654,1.6774,1.6972,1.72,1.72,1.7239,1.7279,1.7279,1.7279,1.7279,1.7279,1.7279,1.7279,1.7279,1.7279,1.7279,0.5014,0.4963,0.4869,0.4869,0.4896,0.4877,0.4877,0.4802,0.4784,0.4784,0.4784,0.4885,0.5035,0.5035,0.5135,0.5286,0.5286,0.5436,0.5834,0.5837,0.5687,0.5336,0.5634,0.5837,0.5837,0.6234,0.6387,0.6387,0.6352,0.6342,0.6303,0.6415,0.6549,0.675,0.6934,0.7289,0.7769,0.7674,0.7827,0.8134,0.8736,0.893,0.9017,0.9662,0.9792,0.9753,1.0014,1.0144,1.0188,1.0448,1.0664,1.0788,1.0788,1.0745,1.0837,1.1537,1.2106,1.2369,1.18,1.1106,1.0448,1.0009,0.9879,0.9879,0.9879,1.0481,1.1037,1.1037,1.22,1.3057,1.2395,1.3607,1.4468,1.3707,1.4414,1.4972,1.4807,1.4778,1.4778,1.4778,1.5007,1.5175,1.5212,1.5273,1.5359,1.55,1.5672,1.5885,1.6074,1.6301,1.6459,1.6398,1.6458,1.6366,1.5996,1.6174,1.6285,1.6312,1.6588,1.6831,1.6979,1.7073,1.7153,1.7279,1.7279,1.7279,1.7279,1.7279,1.7279,1.7279,1.7279,1.7279,1.7279,1.7279,1.7279,1.7279,0.5108,0.5108,0.5108,0.5108,0.5032,0.5025,0.5025,0.4896,0.4786,0.4786,0.4786,0.5037,0.5539,0.5589,0.5837,0.6339,0.6389,0.6389,0.6387,0.6437,0.6437,0.6437,0.6387,0.6387,0.6387,0.6387,0.6437,0.6437,0.6437,0.6374,0.6306,0.6791,0.6966,0.6941,0.7412,0.8204,0.9161,0.8926,0.939,1.0279,1.0017,0.9927,0.9927,0.9927,0.9927,1.0058,1.0982,1.1332,1.1462,1.2406,1.2711,1.2711,1.2711,1.2583,1.2454,1.2668,1.2381,1.2086,1.2332,1.2209,1.1693,1.0274,0.9923,0.9923,0.9923,1.0999,1.1992,1.1992,1.3281,1.4405,1.4405,1.4573,1.4761,1.4879,1.4884,1.4943,1.4968,1.5008,1.5008,1.5008,1.5008,1.5091,1.5301,1.5294,1.5479,1.599,1.599,1.626,1.6888,1.67,1.673,1.6979,1.673,1.6636,1.6636,1.6588,1.6588,1.6636,1.6878,1.6979,1.7026,1.7192,1.7279,1.7279,1.7279,1.7279,1.7279,1.7279,1.7279,1.7279,1.7279,1.7279,1.7279,1.7279,1.7279,1.7279,0.515,0.5153,0.5108,0.5108,0.5086,0.5067,0.5067,0.5045,0.5183,0.56,0.5652,0.586,0.6432,0.6536,0.6591,0.6747,0.6747,0.6864,0.7133,0.7537,0.7645,0.7543,0.7185,0.6936,0.6936,0.7338,0.7537,0.7537,0.7537,0.7518,0.7526,0.8403,0.8369,0.7603,0.9259,0.9708,0.9262,0.9846,1.0324,1.0594,1.099,1.1276,1.1491,1.1952,1.2271,1.2456,1.273,1.282,1.287,1.3183,1.3272,1.3272,1.3272,1.3227,1.3183,1.3227,1.3144,1.3055,1.3138,1.31,1.2827,1.1884,1.1666,1.1709,1.1832,1.2579,1.3275,1.3275,1.4305,1.5159,1.4997,1.5304,1.5514,1.5222,1.5192,1.5137,1.5001,1.5129,1.5212,1.5212,1.5538,1.5805,1.5896,1.6091,1.6262,1.6408,1.66,1.6782,1.6969,1.7055,1.7052,1.6979,1.7059,1.7099,1.7099,1.6965,1.6878,1.6878,1.7106,1.7192,1.7192,1.7286,1.7279,1.7279,1.7279,1.7279,1.7279,1.7279,1.7279,1.7279,1.7279,1.7279,1.7279,1.7279,1.7279,1.7279,0.5298,0.5255,0.5216,0.5216,0.5186,0.5217,0.5482,0.545,0.5691,0.6273,0.6378,0.659,0.7167,0.722,0.7328,0.7539,0.7434,0.7454,0.7684,0.7991,0.8361,0.8874,0.8452,0.7992,0.754,0.8233,0.8627,0.8627,0.9069,0.9262,0.9266,0.9948,0.9841,0.9203,1.05,1.0867,1.0608,1.1133,1.1564,1.1976,1.231,1.2495,1.2717,1.3093,1.3377,1.3513,1.3513,1.3513,1.3513,1.3513,1.3423,1.3332,1.3332,1.3286,1.3241,1.3332,1.3286,1.3241,1.3332,1.3286,1.3209,1.3009,1.2887,1.285,1.2981,1.3586,1.4065,1.3894,1.4867,1.5658,1.5308,1.5754,1.6063,1.5795,1.577,1.5722,1.5657,1.5755,1.5794,1.5794,1.6097,1.6355,1.6501,1.6671,1.6777,1.6864,1.7012,1.7113,1.7113,1.7239,1.7239,1.7113,1.7239,1.7279,1.7279,1.72,1.7113,1.7113,1.7239,1.7279,1.7279,1.7279,1.7279,1.7279,1.7279,1.7279,1.7279,1.7279,1.7279,1.7279,1.7279,1.7279,1.7279,1.7279,1.7279,1.7279,0.5382,0.5437,0.5491,0.5491,0.542,0.5582,0.6127,0.6153,0.6303,0.694,0.6993,0.7205,0.7728,0.783,0.7992,0.847,0.8259,0.8094,0.819,0.8134,0.8808,1.0244,1.0041,0.9427,0.8378,0.9282,0.9752,0.9752,1.073,1.1219,1.1219,1.1268,1.1268,1.1219,1.1365,1.195,1.2668,1.2548,1.3033,1.3918,1.3636,1.3495,1.354,1.3495,1.3495,1.354,1.354,1.354,1.3586,1.354,1.3397,1.3215,1.3169,1.3032,1.294,1.3123,1.3032,1.294,1.322,1.3175,1.3169,1.3795,1.3801,1.3665,1.3662,1.416,1.454,1.4101,1.5062,1.5883,1.5421,1.5913,1.6378,1.6447,1.6451,1.6458,1.6499,1.6541,1.6541,1.6541,1.6588,1.673,1.6979,1.7026,1.7113,1.7286,1.7279,1.7279,1.7279,1.7279,1.7279,1.7279,1.7279,1.7279,1.7279,1.7279,1.7279,1.7279,1.7279,1.7279,1.7279,1.7279,1.7279,1.7279,1.7279,1.7279,1.7279,1.7279,1.7279,1.7279,1.7279,1.7279,1.7279,1.7279,1.7279,1.7279,0.5382,0.5768,0.6098,0.6098,0.6468,0.6785,0.6951,0.6929,0.7133,0.7685,0.774,0.7959,0.8565,0.862,0.8674,0.8784,0.8562,0.8726,0.9518,0.935,0.9818,1.1187,1.0983,1.0943,1.1108,1.0947,1.0832,1.0832,1.1072,1.1219,1.1224,1.1999,1.195,1.1268,1.2877,1.327,1.2775,1.355,1.4017,1.416,1.3683,1.3618,1.3761,1.3374,1.3469,1.3814,1.3814,1.3945,1.4082,1.3904,1.3898,1.3987,1.3564,1.3523,1.3666,1.3713,1.3713,1.3713,1.3987,1.4325,1.4568,1.4561,1.4738,1.4946,1.4727,1.4942,1.516,1.489,1.5517,1.5999,1.5538,1.5872,1.6187,1.596,1.5967,1.5947,1.5961,1.6163,1.6272,1.6272,1.6447,1.673,1.6979,1.7153,1.7239,1.7279,1.7279,1.7279,1.7279,1.7279,1.7279,1.7279,1.7279,1.7279,1.7279,1.7279,1.7279,1.7279,1.7279,1.7279,1.7279,1.7279,1.7279,1.7279,1.7279,1.7279,1.7279,1.7279,1.7279,1.7279,1.7279,1.7279,1.7279,1.7279,1.7279,1.7279,0.627,0.6487,0.6707,0.6707,0.6988,0.7265,0.7546,0.7598,0.7768,0.838,0.8436,0.8549,0.8881,0.9427,0.9915,1.0355,1.0237,1.0307,1.0704,1.0592,1.1085,1.2312,1.2107,1.2372,1.3211,1.2856,1.2422,1.1974,1.2418,1.2606,1.25,1.3173,1.3167,1.2732,1.3811,1.4004,1.3511,1.3913,1.4118,1.407,1.3684,1.3588,1.369,1.3394,1.3539,1.3883,1.3738,1.3877,1.4118,1.4064,1.4118,1.4022,1.3636,1.3684,1.3835,1.3593,1.3973,1.446,1.4346,1.4825,1.5404,1.5445,1.5581,1.5637,1.516,1.5259,1.5417,1.5324,1.5765,1.6116,1.5879,1.6123,1.6359,1.6204,1.6163,1.6163,1.6163,1.6305,1.64,1.64,1.6494,1.673,1.6979,1.72,1.7279,1.7279,1.7279,1.7279,1.7279,1.7279,1.7279,1.7279,1.7279,1.7279,1.7279,1.7279,1.7279,1.7279,1.7279,1.7279,1.7279,1.7279,1.7279,1.7279,1.7279,1.7279,1.7279,1.7279,1.7279,1.7279,1.7279,1.7279,1.7279,1.7279,1.7279,1.7279,0.721,0.7265,0.7321,0.7321,0.7595,0.7873,0.81,0.8484,0.8871,0.9154,0.9372,0.9482,0.9482,1.0406,1.1269,1.2037,1.2037,1.1978,1.1869,1.1814,1.2358,1.356,1.3331,1.3662,1.4628,1.436,1.38,1.3018,1.3874,1.4167,1.3963,1.4147,1.422,1.422,1.4226,1.425,1.4202,1.4022,1.3979,1.3925,1.3684,1.3588,1.3539,1.3539,1.369,1.3883,1.3636,1.369,1.3931,1.4112,1.4022,1.3786,1.3491,1.3545,1.369,1.334,1.4016,1.4838,1.4538,1.5112,1.5825,1.6008,1.6143,1.6008,1.5363,1.5452,1.5683,1.5635,1.5933,1.6177,1.6123,1.6305,1.644,1.644,1.644,1.6494,1.6541,1.6487,1.6494,1.6541,1.6581,1.673,1.6979,1.72,1.7279,1.7279,1.7279,1.7279,1.7279,1.7279,1.7279,1.7279,1.729,1.7319,1.7319,1.7323,1.7352,1.7352,1.7352,1.7323,1.7319,1.7319,1.7301,1.7352,1.7352,1.7352,1.7352,1.7352,1.7352,1.7399,1.7341,1.7366,1.7359,1.7301,1.7279,1.7279,0.721,0.7598,0.7878,0.7878,0.9196,0.9908,0.8933,1.0511,1.1492,1.0566,1.1328,1.1928,1.1928,1.2091,1.2195,1.2363,1.2146,1.2417,1.3344,1.3181,1.356,1.4713,1.4519,1.455,1.4936,1.448,1.4132,1.4016,1.4174,1.4207,1.4167,1.4006,1.3958,1.3946,1.3928,1.3931,1.3979,1.416,1.425,1.4202,1.3925,1.3835,1.3835,1.3593,1.369,1.3883,1.3883,1.3883,1.3883,1.3684,1.3588,1.3491,1.3055,1.3055,1.3292,1.3667,1.3908,1.4202,1.4838,1.541,1.5784,1.5635,1.5879,1.6123,1.5784,1.6109,1.64,1.617,1.6177,1.613,1.5879,1.5879,1.5927,1.5927,1.5927,1.5974,1.6218,1.6069,1.5974,1.6218,1.6447,1.673,1.6979,1.72,1.7279,1.7279,1.7279,1.7279,1.7279,1.7279,1.7279,1.7279,1.7373,1.738,1.738,1.7442,1.7478,1.7478,1.7478,1.7435,1.738,1.738,1.7426,1.7478,1.7478,1.7478,1.7478,1.7478,1.7633,1.7809,1.7488,1.7517,1.7713,1.7388,1.7279,1.7279,0.8159,0.8868,0.9523,0.9523,1.0722,1.1492,1.095,1.171,1.2195,1.1705,1.2087,1.2417,1.2417,1.3019,1.3668,1.4315,1.4256,1.432,1.4659,1.46,1.4659,1.4982,1.4874,1.4821,1.4767,1.4557,1.4345,1.4184,1.4197,1.4161,1.4032,1.4066,1.406,1.4054,1.4052,1.4025,1.3892,1.3886,1.3751,1.3624,1.3394,1.3346,1.3443,1.3201,1.3346,1.369,1.3835,1.3977,1.4148,1.4148,1.4384,1.4596,1.4398,1.4646,1.4986,1.5029,1.5374,1.5731,1.5983,1.6375,1.671,1.6661,1.6668,1.6675,1.657,1.657,1.6517,1.6096,1.5981,1.5927,1.5825,1.5784,1.5784,1.5784,1.5927,1.6076,1.617,1.6211,1.6305,1.64,1.664,1.6888,1.6991,1.7236,1.7432,1.7432,1.7432,1.7432,1.7432,1.7432,1.7432,1.7432,1.7428,1.7457,1.7457,1.7485,1.7505,1.7505,1.7505,1.7485,1.7457,1.7457,1.7478,1.7505,1.7505,1.7605,1.7711,1.7711,1.786,1.8094,1.7956,1.7996,1.8072,1.7925,1.7874,1.7845]},{"header":{"parameterUnit":"m.s-1","parameterCategory":1,"la1":30.6,"la2":28.766,"lo1":-90.7593,"lo2":-88.6598,"dy":0.0162,"dx":0.0183,"nx":116,"ny":114,"refTime":"2024-02-10T18:00:00:Z","depth":0,"parameterNumber":3,"parameterNumberName":"V-component_of_WINDS"},"data":[0.0,0.0,0.0,0.0,0.0,0.0,0.0,0.0,0.0,0.0,0.0,0.0,0.0,0.0,0.0,0.0,0.0,0.0,0.0,0.0,0.0,0.0,0.0,0.0,0.0,0.0,0.0,0.0,0.0,0.0,0.0,0.0,0.0,0.0,0.0,0.0,0.0,0.0,0.0,0.0,0.0,0.0,0.0,0.0,0.0,0.0,0.0,0.0,0.0,0.0,0.0,0.0,0.0,0.0,0.0,0.0,0.0,0.0,0.0,0.0,0.0,0.0,0.0,0.0,0.0,0.0,0.0,0.0,0.0,0.0,0.0,0.0,0.0,0.0,0.0,0.0,0.0,0.0,0.0,0.0,0.0,0.0,0.0,0.0,0.0,0.0,0.0,0.0,0.0,0.0,0.0,0.0,0.0,0.0,0.0,0.0,0.0,0.0,0.0,0.0,0.0,0.0,0.0,0.0,0.0,0.0,0.0,0.0,0.0,0.0,0.0,0.0,0.0,0.0,0.0,0.0,0.0,0.0,0.0,0.0,0.0,0.0,0.0,0.0,0.0,0.0,0.0,0.0,0.0,0.0,0.0,0.0,0.0,0.0,0.0,0.0,0.0,0.0,0.0,0.0,0.0,0.0,0.0,0.0,0.0,0.0,0.0,0.0,0.0,0.0,0.0,0.0,0.0,0.0,0.0,0.0,0.0,0.0,0.0,0.0,0.0,0.0,0.0,0.0,0.0,0.0,0.0,0.0,0.0,0.0,0.0,0.0,0.0,0.0,0.0,0.0,0.0,0.0,0.0,0.0,0.0,0.0,0.0,0.0,0.0,0.0,0.0,0.0,0.0,0.0,0.0,0.0,0.0,0.0,0.0,0.0,0.0,0.0,0.0,0.0,0.0,0.0,0.0,0.0,0.0,0.0,0.0,0.0,0.0,0.0,0.0,0.0,0.0,0.0,0.0,0.0,0.0,0.0,0.0,0.0,0.0,0.0,0.0,0.0,0.0,0.0,0.0,0.0,0.0,0.0,0.0,0.0,0.0,0.0,0.0,0.0,0.0,0.0,0.0,0.0,0.0,0.0,0.0,0.0,0.0,0.0,0.0,0.0,0.0,0.0,0.0,0.0,0.0,0.0,0.0,0.0,0.0,0.0,0.0,0.0,0.0,0.0,0.0,0.0,0.0,0.0,0.0,0.0,0.0,0.0,0.0,0.0,0.0,0.0,0.0,0.0,0.0,0.0,0.0,0.0,0.0,0.0,0.0,0.0,0.0,0.0,0.0,0.0,0.0,0.0,0.0,0.0,0.0,0.0,0.0,0.0,0.0,0.0,0.0,0.0,0.0,0.0,0.0,0.0,0.0,0.0,0.0,0.0,0.0,0.0,0.0,0.0,0.0,0.0,0.0,0.0,0.0,0.0,0.0,0.0,0.0,0.0,0.0,0.0,0.0,0.0,0.0,0.0,0.0,0.0,0.0,0.0,0.0,0.0,0.0,0.0,0.0,0.0,0.0,0.0,0.0,0.0,0.0,0.0,0.0,0.0,0.0,0.0,0.0,0.0,0.0,0.0,0.0,0.0,0.0,0.0,0.0,0.0,0.0,0.0,0.0,0.0,0.0,0.0,0.0,0.0,0.0,0.0,0.0,0.0,0.0,0.0,0.0,0.0,0.0,0.0,0.0,0.0,0.0,0.0,0.0,0.0,0.0,0.0,0.0,0.0,0.0,0.0,0.0,0.0,0.0,0.0,0.0,0.0,0.0,0.0,0.0,0.0,0.0,0.0,0.0,0.0,0.0,0.0,0.0,0.0,0.0,0.0,0.0,0.0,0.0,0.0,0.0,0.0,0.0,0.0,0.0,0.0,0.0,0.0,0.0,0.0,0.0,0.0,0.0,0.0,0.0,0.0,0.0,0.0,0.0,0.0,0.0,0.0,0.0,0.0,0.0,0.0,0.0,0.0,0.0,0.0,0.0,0.0,0.0,0.0,0.0,0.0,0.0,0.0,0.0,0.0,0.0,0.0,0.0,0.0,0.0,0.0,0.0,0.0,0.0,0.0,0.0,0.0,0.0,0.0,0.0,0.0,0.0,0.0,0.0,0.0,0.0,0.0,0.0,0.0,0.0,0.0,0.0,0.0,0.0,0.0,0.0,0.0,0.0,0.0,0.0,0.0,0.0,0.0,0.0,0.0,0.0,0.0,0.0,0.0,0.0,0.0,0.0,0.0,0.0,0.0,0.0,0.0,0.0,0.0,0.0,0.0,0.0,0.0,0.0,0.0,0.0,0.0,0.0,0.0,0.0,0.0,0.0,0.0,0.0,0.0,0.0,0.0,0.0,0.0,0.0,0.0,0.0,0.0,0.0,0.0,0.0,0.0,0.0,0.0,0.0,0.0,0.0,0.0,0.0,0.0,0.0,0.0,0.0,0.0,0.0,0.0,0.0,0.0,0.0,0.0,0.0,0.0,0.0,0.0,0.0,0.0,0.0,0.0,0.0,0.0,0.0,0.0,0.0,0.0,0.0,0.0,0.0,0.0,0.0,0.0,0.0,0.0,0.0,0.0,0.0,0.0,0.0,0.0,0.0,0.0,0.0,0.0,0.0,0.0,0.0,0.0,0.0,0.0,0.0,0.0,0.0,0.0,0.0,0.0,0.0,0.0,0.0,0.0,0.0,0.0,0.0,0.0,0.0,0.0,0.0,0.0,0.0,0.0,0.0,0.0,0.0,0.0,0.0,0.0,0.0,0.0,0.0,0.0,0.0,0.0,0.0,0.0,0.0,0.0,0.0,0.0,0.0,0.0,0.0,0.0,0.0,0.0,0.0,0.0,0.0,0.0,0.0,0.0,0.0,0.0,0.0,0.0,0.0,0.0,0.0,0.0,0.0,0.0,0.0,0.0,0.0,0.0,0.0,0.0,0.0,0.0,0.0,0.0,0.0,0.0,0.0,0.0,0.0,0.0,0.0,0.0,0.0,0.0,0.0,0.0,0.0,0.0,0.0,0.0,0.0,0.0,0.0,0.0,0.0,0.0,0.0,0.0,0.0,0.0,0.0,0.0,0.0,0.0,0.0,0.0,0.0,0.0,0.0,0.0,0.0,0.0,0.0,0.0,0.0,0.0,0.0,0.0,0.0,0.0,0.0,0.0,0.0,0.0,0.0,0.0,0.0,0.0,0.0,0.0,0.0,0.0,0.0,0.0,0.0,0.0,0.0,0.0,0.0,0.0,0.0,0.0,0.0,0.0,0.0,0.0,0.0,0.0,0.0,0.0,0.0,0.0,0.0,0.0,0.0,0.0,0.0,0.0,0.0,0.0,0.0,0.0,0.0,0.0,0.0,0.0,0.0,0.0,0.0,0.0,0.0,0.0,0.0,0.0,0.0,0.0,0.0,0.0,0.0,0.0,0.0,0.0,0.0,0.0,0.0,0.0,0.0,0.0,0.0,0.0,0.0,0.0,0.0,0.0,0.0,0.0,0.0,0.0,0.0,0.0,0.0,0.0,0.0,0.0,0.0,0.0,0.0,0.0,0.0,0.0,0.0,0.0,0.0,0.0,0.0,0.0,0.0,0.0,0.0,0.0,0.0,0.0,0.0,0.0,0.0,0.0,0.0,0.0,0.0,0.0,0.0,0.0,0.0,0.0,0.0,0.0,0.0,0.0,0.0,0.0,0.0,0.0,0.0,0.0,0.0,0.0,0.0,0.0,0.0,0.0,0.0,0.0,0.0,0.0,0.0,0.0,0.0,0.0,0.0,0.0,0.0,0.0,0.0,0.0,0.0,0.0,0.0,0.0,0.0,0.0,0.0,0.0,0.0,0.0,0.0,0.0,0.0,0.0,0.0,0.0,0.0,0.0,0.0,0.0,0.0,0.0,0.0,0.0,0.0,0.0,0.0,0.0,0.0,0.0,0.0,0.0,0.0,0.0,0.0,0.0,0.0,0.0,0.0,0.0,0.0,0.0,0.0,0.0,0.0,0.0,0.0,0.0,0.0,0.0,0.0,0.0,0.0,0.0,0.0,0.0,0.0,0.0,0.0,0.0,0.0,0.0,0.0,0.0,0.0,0.0,0.0,0.0,0.0,0.0,0.0,0.0,0.0,0.0,0.0,0.0,0.0,0.0,0.0,0.0,0.0,0.0,0.0,0.0,0.0,0.0,0.0,0.0,0.0,0.0,0.0,0.0,0.0,0.0,0.0,0.0,0.0,0.0,0.0,0.0,0.0,0.0,0.0,0.0,0.0,0.0,0.0,0.0,0.0,0.0,0.0,0.0,0.0,0.0,0.0,0.0,0.0,0.0,0.0,0.0,0.0,0.0,0.0,0.0,0.0,0.0,0.0,0.0,0.0,0.0,0.0,0.0,0.0,0.0,0.0,0.0,0.0,0.0,0.0,0.0,0.0,0.0,0.0,0.0,0.0,0.0,0.0,0.0,0.0,0.0,0.0,0.0,0.0,0.0,0.0,0.0,0.0,0.0,0.0,0.0,0.0,0.0,0.0,0.0,0.0,0.0,0.0,0.0,0.0,0.0,0.0,0.0,0.0,0.0,0.0,0.0,0.0,0.0,0.0,0.0,0.0,0.0,0.0,0.0,0.0,0.0,0.0,0.0,0.0,0.0,0.0,0.0,0.0,0.0,0.0,0.0,0.0,0.0,0.0,0.0,0.0,0.0,0.0,0.0,0.0,0.0,0.0,0.0,0.0,0.0,0.0,0.0,0.0,0.0,0.0,0.0,0.0,0.0,0.0,0.0,0.0,0.0,0.0,0.0,0.0,0.0,0.0,0.0,0.0,0.0,0.0,0.0,0.0,0.0,0.0,0.0,0.0,0.0,0.0,0.0,0.0,0.0,0.0,0.0,0.0,0.0,0.0,0.0,0.0,0.0,0.0,0.0,0.0,0.0,0.0,0.0,0.0,0.0,0.0,0.0,0.0,0.0,0.0,0.0,0.0,0.0,0.0,0.0,0.0,0.0,0.0,0.0,0.0,0.0,0.0,0.0,0.0,0.0,0.0,0.0,0.0,0.0,0.0,0.0,0.0,0.0,0.0,0.0,0.0,0.0,0.0,0.0,0.0,0.0,0.0,0.0,0.0,0.0,0.0,0.0,0.0,0.0,0.0,0.0,0.0,0.0,0.0,0.0,0.0,0.0,0.0,0.0,0.0,0.0,0.0,0.0,0.0,0.0,0.0,0.0,0.0,0.0,0.0,0.0,0.0,0.0,0.0,0.0,0.0,0.0,0.0,0.0,0.0,0.0,0.0,0.0,0.0,0.0,0.0,0.0,0.0,0.0,0.0,0.0,0.0,0.0,0.0,0.0,0.0,0.0,0.0,0.0,0.0,0.0,0.0,0.0,0.0,0.0,0.0,0.0,0.0,0.0,0.0,0.0,0.0,0.0,0.0,0.0,0.0,0.0,0.0,0.0,0.0,0.0,0.0,0.0,0.0,0.0,0.0,0.0,0.0,0.0,0.0,0.0,0.0,0.0,0.0,0.0,0.0,0.0,0.0,0.0,0.0,0.0,0.0,0.0,0.0,0.0,0.0,0.0,0.0,0.0,0.0,0.0,0.0,0.0,0.0,0.0,0.0,0.0,0.0,0.0,0.0,0.0,0.0,0.0,0.0,0.0,0.0,0.0,0.0,0.0,0.0,0.0,0.0,0.0,0.0,0.0,0.0,0.0,0.0,0.0,0.0,0.0,0.0,0.0,0.0,0.0,0.0,0.0,0.0,0.0,0.0,0.0,0.0,0.0,0.0,0.0,0.0,0.0,0.0,0.0,0.0,0.0,0.0,0.0,0.0,0.0,0.0,0.0,0.0,0.0,0.0,0.0,0.0,0.0,0.0,0.0,0.0,0.0,0.0,0.0,0.0,0.0,0.0,0.0,0.0,0.0,0.0,0.0,0.0,0.0,0.0,0.0,0.0,0.0,0.0,0.0,0.0,0.0,0.0,0.0,0.0,0.0,0.0,0.0,0.0,0.0,0.0,0.0,0.0,0.0,0.0,0.0,0.0,0.0,0.0,0.0,0.0,0.0,0.0,0.0,0.0,0.0,0.0,0.0,0.0,0.0,0.0,0.0,0.0,0.0,0.0,0.0,0.0,0.0,0.0,0.0,0.0,0.0,0.7634,0.6032,0.0,0.0,0.0,0.0,0.0,0.0,0.0,0.0,0.0,0.0,0.0,0.0,0.0,0.0,0.0,0.0,0.0,0.0,0.0,0.0,0.0,0.0,0.0,0.0,0.0,0.0,1.4836,1.429,1.4009,1.3572,1.3178,1.2908,1.2258,1.1902,1.1853,1.1153,1.0648,1.036,1.0694,1.0963,1.1178,1.0219,0.8738,0.6826,0.0,0.0,0.0,0.0,0.0,0.0,0.0,0.0,0.0,0.0,0.0,0.0,0.0,0.0,0.0,0.0,0.0,0.0,0.0,0.0,0.0,0.0,0.0,0.0,0.0,0.0,0.0,0.0,0.0,0.0,0.0,0.0,0.0,0.0,0.0,0.0,0.0,0.0,0.0,0.0,0.0,0.0,0.0,0.0,0.0,0.0,0.0,0.0,0.0,0.0,0.0,0.0,0.0,0.0,0.0,0.0,0.0,0.0,0.0,0.0,0.0,0.0,0.0,0.0,0.0,0.0,0.0,0.0,0.0,0.0,0.8412,0.7495,0.0,0.0,0.0,0.0,0.0,0.0,0.0,0.0,0.0,0.0,0.0,0.0,0.0,0.0,0.0,0.0,0.0,0.0,0.0,0.0,0.0,0.0,0.0,1.688,1.6571,1.659,1.5757,1.5199,1.5156,1.4626,1.4229,1.3972,1.3146,1.2596,1.2452,1.1587,1.1316,1.1664,1.2527,1.3368,1.4162,1.358,1.1827,0.0,0.0,0.0,0.0,0.0,0.0,0.0,0.0,0.0,0.0,0.0,0.0,0.0,0.0,0.0,0.0,0.0,0.0,0.0,0.0,0.0,0.0,0.0,0.0,0.0,0.0,0.0,0.0,0.0,0.0,0.0,0.0,0.0,0.0,0.0,0.0,0.0,0.0,0.0,0.0,0.0,0.0,0.0,0.0,0.0,0.0,0.0,0.0,0.0,0.0,0.0,0.0,0.0,0.0,0.0,0.0,0.0,0.0,0.0,0.0,0.0,0.0,0.0,0.0,0.0,0.9404,0.96,0.9793,0.9793,1.0006,1.0318,0.9623,0.932,0.9264,0.7928,0.0,0.0,0.0,0.0,0.0,0.0,0.0,0.0,0.0,0.0,0.0,0.0,0.0,0.0,0.0,0.0,0.0,0.0,0.0,0.0,0.0,1.6584,1.6461,1.6504,1.581,1.5244,1.4963,1.4375,1.3511,1.2273,1.1991,1.1486,1.0664,1.0833,1.1651,1.3123,1.474,1.5444,1.5286,1.4801,1.4339,1.3815,0.0,0.0,0.0,0.0,0.0,0.0,0.0,0.0,0.0,0.0,0.0,0.0,0.0,0.0,0.0,0.0,0.0,0.0,0.0,0.0,0.0,0.0,0.0,0.0,0.0,0.0,0.0,0.0,0.0,0.0,0.0,0.0,0.0,0.0,0.0,0.0,0.0,0.0,0.0,0.0,0.0,0.0,0.0,0.0,1.2404,1.2986,0.0,0.0,0.0,0.0,0.0,0.0,0.0,0.0,0.0,0.0,0.0,0.0,0.0,0.893,0.893,0.9955,1.0453,1.0453,1.1404,1.2058,1.2498,1.2498,1.2827,1.3405,1.2828,0.0,0.9531,0.932,0.0,0.0,0.0,0.0,0.0,0.0,0.0,0.0,0.0,0.0,0.0,0.0,0.0,0.0,0.0,0.0,0.0,0.0,0.0,0.0,0.0,1.7876,1.8152,1.817,1.8179,1.755,1.6127,1.5667,1.4631,1.2777,1.2518,1.2192,1.1653,1.1929,1.3249,1.5647,1.7427,1.8521,1.8926,1.8403,1.8083,1.7869,1.6403,1.4538,1.2462,1.2651,0.0,0.0,0.0,0.0,0.0,0.0,0.0,0.0,0.0,0.0,0.0,0.0,0.0,0.0,0.0,0.0,0.0,0.0,0.0,0.0,0.0,0.0,0.0,0.0,0.0,0.0,0.0,0.0,0.0,0.0,0.0,0.0,0.0,0.0,0.0,0.0,0.0,0.0,0.0,1.308,1.3206,1.342,1.3032,1.2285,0.0,0.0,0.0,0.0,0.0,0.0,0.0,0.0,0.0,1.0501,1.0938,1.1188,1.1174,1.2084,1.2514,1.2386,1.2857,1.3243,1.3545,1.3545,1.3825,1.4264,1.4026,1.3336,1.2254,1.1025,1.0292,0.9903,0.0,0.0,0.0,0.0,0.8475,0.8606,0.0,0.0,0.0,0.0,0.0,0.0,0.0,0.0,0.0,0.0,0.0,0.0,1.8621,1.9578,2.0259,2.029,2.0636,1.9906,1.7724,1.7258,1.6111,1.3916,1.3487,1.3118,1.2734,1.3777,1.5719,1.8534,2.0286,2.1482,2.2035,2.1553,2.1192,2.0941,2.0153,1.8065,1.518,1.5107,1.4285,0.0,0.0,0.0,0.0,0.0,0.0,0.0,0.0,0.0,0.0,0.0,0.0,0.0,0.0,0.0,0.0,0.0,0.0,0.0,0.0,0.0,0.0,0.0,0.0,0.0,0.0,0.0,0.0,0.0,0.0,0.0,0.0,0.0,0.0,0.0,0.0,0.0,0.0,1.4128,1.4033,1.3988,1.3801,1.3113,0.0,0.0,0.0,0.0,0.0,0.0,1.2212,1.2382,1.2389,1.2153,1.268,1.2995,1.3019,1.3632,1.3885,1.3786,1.3786,1.3936,1.4213,1.4213,1.446,1.4863,1.4863,1.4795,1.4532,1.2774,1.1897,1.1653,1.0973,1.049,1.0148,1.0194,1.0286,1.0473,0.0,0.0,0.0,0.0,0.0,0.0,0.0,0.0,0.0,0.0,0.0,1.9858,1.9891,2.1366,2.2371,2.244,2.2353,2.1483,1.9597,1.8801,1.7444,1.529,1.4512,1.3721,1.2818,1.6163,1.913,2.1576,2.3247,2.3819,2.3299,2.2959,2.27,2.2466,2.2109,2.0291,1.7506,1.7255,1.6303,1.4879,0.0,0.0,0.0,0.0,0.0,0.0,0.0,0.0,0.0,0.0,0.0,0.0,0.0,0.0,0.0,0.0,0.0,0.0,0.0,0.0,0.0,0.0,0.0,0.0,0.0,0.0,0.0,0.0,0.0,0.0,0.0,0.0,0.0,0.0,0.0,0.0,0.0,0.0,0.0,1.527,1.557,0.0,0.0,0.0,0.0,1.3312,1.3635,1.3725,1.342,1.3534,1.362,1.3583,1.3502,1.3528,1.3661,1.3696,1.3812,1.3971,1.3971,1.43,1.4863,1.4863,1.5225,1.5827,1.5827,1.5575,1.5108,1.4562,1.3844,1.3079,1.2985,1.2439,1.1689,1.1751,1.2136,1.264,0.0,0.0,0.0,0.0,0.0,0.0,0.0,0.0,1.8841,1.8658,1.9819,2.0679,2.0719,2.2969,2.4509,2.4521,2.5389,2.505,2.2954,2.097,1.9109,1.7417,1.5452,1.5153,1.6747,1.9542,2.1617,2.2948,2.4176,2.4654,2.4422,2.4398,2.4353,2.4251,2.3743,2.2939,2.1852,2.0412,1.8853,1.7302,1.6786,1.5284,0.0,0.0,0.0,0.0,0.0,0.0,0.0,0.0,0.0,0.0,0.0,0.0,0.0,0.0,0.0,0.0,0.0,0.0,0.0,0.0,0.0,0.0,0.0,0.0,0.0,0.0,0.0,0.0,0.0,0.0,0.0,0.0,0.0,0.0,0.0,0.0,0.0,1.6185,1.6152,0.0,1.464,1.4917,1.4872,1.4094,1.5304,1.5863,1.5319,1.5547,1.5521,1.5138,1.5157,1.5108,1.4981,1.5069,1.5108,1.5108,1.5274,1.5362,1.543,1.5594,1.5749,1.5885,1.5885,1.5827,1.5633,1.5459,1.4874,1.4028,1.4012,1.3803,1.3532,1.3548,1.3715,1.3911,0.0,0.0,0.0,0.0,0.0,0.0,0.0,0.0,1.911,1.9579,2.1072,2.2296,2.2828,2.5216,2.679,2.6808,2.7751,2.709,2.4169,2.2098,2.0,1.7826,1.658,1.7615,2.115,2.2511,2.378,2.497,2.5611,2.5881,2.5809,2.5773,2.5753,2.5662,2.5032,2.4725,2.4567,2.2922,2.1352,1.9884,1.9186,1.7471,1.5304,0.0,0.0,0.0,0.0,0.0,0.0,0.0,0.0,0.0,0.0,0.0,0.0,0.0,0.0,0.0,0.0,0.0,0.0,0.0,0.0,0.0,0.0,0.0,0.0,0.0,0.0,0.0,0.0,0.0,0.0,0.0,0.0,0.0,0.0,1.6397,1.6886,1.6927,1.7017,1.6729,1.5865,1.6337,1.6413,1.5765,1.6863,1.7301,1.6701,1.6751,1.6684,1.6407,1.6464,1.6332,1.6056,1.6114,1.598,1.5604,1.5999,1.6132,1.6046,1.6436,1.6399,1.6053,1.6441,1.6427,1.6174,1.6546,1.6368,1.5805,1.5255,1.5167,1.5332,1.5225,1.5147,1.5079,0.0,0.0,0.0,0.0,0.0,0.0,0.0,1.9352,1.9764,2.126,2.2949,2.462,2.6173,2.8011,2.9138,2.9209,2.922,2.7417,2.318,2.2175,2.0142,1.6508,1.8037,2.1072,2.5542,2.4967,2.5648,2.7742,2.7728,2.7624,2.7409,2.7073,2.6833,2.6621,2.6024,2.5646,2.541,2.463,2.3688,2.259,2.1025,1.9516,1.8082,0.0,0.0,0.0,0.0,0.0,0.0,0.0,0.0,0.0,0.0,0.0,0.0,0.0,0.0,0.0,0.0,0.0,0.0,0.0,0.0,0.0,0.0,0.0,0.0,0.0,0.0,0.0,0.0,0.0,0.0,0.0,0.0,0.0,1.568,1.7111,1.8018,1.7528,1.8272,1.8697,1.8367,1.8605,1.8658,1.834,1.8201,1.7929,1.7462,1.7045,1.6989,1.7385,1.7263,1.703,1.6722,1.6765,1.6361,1.5488,1.6114,1.6531,1.6782,1.7379,1.716,1.6423,1.7508,1.7484,1.6729,1.7853,1.8379,1.8363,1.6775,1.6531,1.7011,1.674,1.6428,1.6247,0.0,0.0,0.0,0.0,0.0,0.0,0.0,1.9773,1.9888,2.0351,2.2886,2.4828,2.5272,2.7834,2.9533,2.9561,2.9523,2.825,2.5302,2.3787,2.203,1.9853,2.1804,0.0,2.6568,2.7366,2.8024,2.8573,2.8321,2.8085,2.7837,2.7648,2.7475,2.7315,2.7063,2.6933,2.6899,2.632,2.5836,2.5264,2.3164,2.1559,2.0385,0.0,0.0,0.0,0.0,0.0,0.0,0.0,0.0,0.0,0.0,0.0,0.0,0.0,0.0,0.0,0.0,0.0,0.0,0.0,0.0,0.0,0.0,0.0,0.0,0.0,0.0,0.0,0.0,0.0,0.0,0.0,1.8324,1.9418,1.8722,1.839,1.8486,1.9217,1.9167,1.9081,1.9107,1.8815,1.8602,1.8509,1.8494,1.8414,1.8278,1.743,1.706,1.7319,1.7357,1.716,1.6774,1.7972,1.8268,1.7651,1.8396,1.8547,1.8159,1.8525,1.8269,1.7543,1.7871,1.7863,1.7645,1.7936,1.8424,1.8833,1.7918,1.7655,1.7765,1.7501,1.7462,1.7489,0.0,0.0,0.0,0.0,0.0,0.0,0.0,1.9933,2.0164,2.0874,2.3265,2.5162,2.5835,2.8204,2.9756,2.9815,2.979,2.8447,2.5319,2.3177,2.2376,0.0,0.0,2.6086,2.8042,2.8848,2.9196,2.9113,2.8879,2.8692,2.8548,2.8411,2.8301,2.8214,2.8039,2.7925,2.7847,2.738,2.7054,2.6766,2.5354,2.3688,2.2094,2.1996,2.1078,1.9869,1.9904,1.9751,1.9328,1.7837,0.0,0.0,0.0,0.0,0.0,0.0,0.0,0.0,0.0,0.0,0.0,0.0,0.0,0.0,0.0,0.0,0.0,0.0,0.0,0.0,0.0,0.0,0.0,0.0,1.9607,2.1064,2.1195,2.0298,1.9891,2.0607,2.0409,2.0245,2.0321,2.0042,1.976,1.9527,1.958,1.9502,1.9273,1.8676,1.8298,1.818,1.8688,1.8528,1.7701,1.9129,1.9506,1.8854,1.9587,1.9754,1.9464,1.9873,1.9659,1.897,1.9229,1.9194,1.9032,1.9294,1.9787,0.0,0.0,0.0,0.0,0.0,1.8867,1.9277,0.0,0.0,0.0,0.0,0.0,0.0,0.0,1.9959,2.0539,2.2176,2.3903,2.5596,2.7231,2.8898,2.9947,3.0056,2.9796,2.8014,2.4176,0.0,0.0,2.6145,2.632,2.7381,2.9639,2.9705,2.9642,2.9514,2.9457,2.9408,2.9348,2.9227,2.9143,2.9107,2.8865,2.8652,2.8475,2.8054,2.7745,2.7549,2.7335,2.5776,2.3575,2.3221,2.2193,2.0935,2.0935,2.0665,2.0259,1.994,0.0,0.0,0.0,0.0,0.0,0.0,0.0,0.0,0.0,0.0,0.0,0.0,0.0,0.0,0.0,0.0,0.0,0.0,0.0,0.0,0.0,0.0,0.0,0.0,2.0812,2.1854,2.3191,2.2552,2.1874,2.1684,2.1626,2.1602,2.1602,2.1626,2.1396,2.087,2.0952,2.0819,2.0353,2.022,0.0,0.0,0.0,2.0419,1.9106,2.0269,2.0437,1.9639,2.0243,2.0603,2.0725,2.1277,2.1115,2.0502,2.1033,2.0986,2.0597,2.1211,2.1684,2.1833,1.9582,1.9167,1.9864,1.9712,2.0299,2.1116,0.0,0.0,0.0,0.0,0.0,0.0,0.0,2.0302,2.0916,2.263,2.4371,2.6123,2.7838,2.9474,3.0455,3.0479,2.8566,2.6432,0.0,0.0,2.3234,2.7446,2.7636,2.8473,3.0296,3.0323,3.0318,3.0298,3.0225,3.0023,2.9696,2.9633,2.9467,2.926,2.9151,2.9115,2.9118,2.8904,2.8735,2.8585,2.8268,2.7347,2.6184,2.6167,2.5882,2.5514,2.5514,2.5464,2.5029,2.2687,2.2228,2.2442,2.1272,0.0,0.0,0.0,0.0,0.0,0.0,0.0,0.0,0.0,0.0,0.0,0.0,0.0,0.0,0.0,0.0,0.0,0.0,0.0,0.0,2.2362,2.349,2.4406,2.4483,2.4282,2.3591,2.2179,2.1819,2.1653,2.1623,2.1762,2.1605,2.1017,2.1184,2.1238,2.1015,2.0237,1.9966,2.0361,2.0633,2.0596,2.0263,2.177,2.222,2.1655,0.0,0.0,2.205,2.2165,2.1942,2.1509,2.1625,2.1645,2.1532,2.1673,2.1769,2.1803,2.1266,2.1035,2.0903,2.0197,2.0639,2.1488,0.0,0.0,0.0,0.0,0.0,0.0,0.0,2.0454,2.0754,2.1589,2.3227,2.4946,2.6651,2.7573,2.8217,2.8662,2.6743,2.551,0.0,2.5126,2.6204,2.9128,2.9257,2.9631,3.0482,3.0491,3.0495,3.0501,3.0424,3.0301,3.0101,2.999,2.9892,2.9747,2.9725,2.9719,2.9736,2.9569,2.9409,2.9231,2.8982,2.8494,2.783,2.7245,2.6887,2.6741,2.6641,2.6624,2.6421,2.4996,2.4747,2.4928,2.4224,2.3694,2.3024,0.0,0.0,0.0,0.0,0.0,0.0,0.0,0.0,0.0,0.0,0.0,0.0,0.0,0.0,2.1541,2.1464,0.0,2.2589,2.315,2.3822,2.4457,2.5032,2.4969,2.4419,2.3245,2.2914,2.2719,2.2475,2.2543,2.2369,2.1799,2.2124,2.2218,2.1915,2.1691,2.138,2.1009,2.1567,2.1532,2.0914,2.2275,2.2963,2.3016,2.2989,2.3023,2.3045,2.2743,2.2505,2.2342,2.2328,2.2489,2.2807,2.3084,2.3076,2.2912,2.3098,2.2645,2.1867,2.1634,2.1947,2.2443,0.0,0.0,0.0,0.0,0.0,0.0,0.0,2.0503,2.0594,2.0888,2.2144,2.3659,2.5344,2.5396,2.5303,2.5335,2.473,0.0,0.0,2.7361,2.8854,3.0487,3.0555,3.0558,3.0568,3.0564,3.0564,3.0556,3.0501,3.0475,3.0457,3.0356,3.0278,3.0254,3.0244,3.0234,3.0203,3.0032,2.9861,2.971,2.9578,2.9331,2.8908,2.7847,2.73,2.7066,2.6823,2.6806,2.687,2.6707,2.6757,2.6824,2.6758,2.6607,2.5916,2.3062,2.322,0.0,0.0,0.0,0.0,0.0,0.0,0.0,0.0,2.2074,2.2388,2.2078,2.2274,2.2518,2.2518,2.2407,2.272,2.3899,2.401,2.433,2.5447,2.5424,2.5047,2.4471,2.422,2.3964,2.3595,2.3616,2.3421,2.2868,2.3279,2.3367,2.2974,2.3343,2.3112,2.2058,2.2846,2.2828,2.1809,2.2729,2.3425,2.3855,2.346,2.3476,2.3812,2.3363,2.3193,2.3231,2.3187,2.3463,2.3994,2.4456,2.4436,2.4177,2.4513,2.3954,2.2965,2.326,2.3429,2.3545,0.0,0.0,0.0,0.0,0.0,0.0,0.0,0.0,2.1058,2.26,2.2977,2.3743,2.5483,2.4993,2.3334,2.0408,0.0,0.0,2.3553,2.6491,2.9011,3.0683,3.0777,3.0775,3.0778,3.0778,3.0775,3.0767,3.0766,3.0714,3.0681,3.0657,3.0586,3.0453,3.04,3.0344,3.0283,3.0196,3.0155,3.0135,3.0047,2.9794,2.9401,2.9138,2.8812,2.843,2.8039,2.8066,2.8183,2.7527,2.7301,2.727,2.697,2.6674,2.6117,2.4555,0.0,2.3659,2.0726,1.8939,1.8228,1.9588,2.0689,2.1509,0.0,2.3801,2.5259,2.4065,2.5028,2.6134,2.6134,2.6051,2.6067,2.6218,2.6183,2.6198,2.6347,2.6242,2.5995,2.5572,2.5098,2.4708,2.4552,2.4764,2.4643,2.4049,2.4287,2.439,2.4213,2.4269,2.428,2.4246,2.4364,2.4254,2.3958,2.4149,2.4192,2.4061,2.4192,2.4279,2.4321,2.4379,2.44,2.4405,2.4471,2.4491,2.4507,2.4685,2.4721,2.4632,2.4745,2.4673,2.4514,2.4323,2.4349,2.4446,0.0,0.0,0.0,0.0,0.0,0.0,0.0,0.0,0.0,2.1543,2.166,2.2285,2.4004,2.3417,2.1892,0.0,0.0,0.0,2.3816,2.6616,2.9019,3.0733,3.0795,3.0778,3.0741,3.0781,3.0801,3.08,3.0798,3.0793,3.0766,3.0766,3.0735,3.0667,3.066,3.0607,3.0525,3.0466,3.0364,3.026,3.0241,3.008,2.984,2.9744,2.9551,2.9126,2.7465,2.6964,0.0,0.0,2.6557,2.6734,2.7526,2.7031,2.6058,2.5542,2.4673,0.0,2.2145,2.198,2.2304,2.2593,2.386,2.4982,2.4896,2.5941,2.667,2.5797,2.6317,2.6858,2.6691,2.5849,2.5497,2.6386,2.5765,2.5447,2.6265,2.6347,2.6225,2.6025,2.5004,2.4108,2.3535,2.439,2.4512,2.3351,2.417,2.4699,2.4643,2.4558,2.4477,2.4431,2.4461,2.4405,2.4241,2.4348,2.4529,2.4804,2.4611,2.4668,2.4921,2.4616,2.4608,2.4847,2.495,2.524,2.5652,2.575,2.5701,2.5611,2.5899,2.5865,2.554,2.482,2.4608,2.4623,0.0,0.0,0.0,0.0,0.0,0.0,0.0,0.0,0.0,0.0,2.0561,2.0934,2.1886,2.145,2.0487,0.0,0.0,0.0,0.0,2.6787,2.8975,3.0708,3.0767,0.0,3.0703,3.0705,3.0747,3.0772,3.0735,3.0738,3.0761,3.0761,3.0781,3.0798,3.0793,3.0774,3.0728,3.0661,3.0529,3.0374,3.0381,3.0285,3.0152,3.0104,2.9696,2.8921,2.6935,2.6282,0.0,0.0,2.5695,2.6212,2.6922,2.6609,2.5859,2.547,2.4201,2.2969,2.3124,2.3815,2.458,2.4962,2.6082,2.7113,2.722,2.7448,2.7491,2.7116,2.7148,2.7181,2.694,2.5892,2.5406,2.6539,2.5762,2.5408,2.6455,2.6607,2.6421,2.5984,2.491,2.3602,2.2117,2.364,2.448,2.389,2.4809,2.5424,2.5424,2.5294,2.5198,2.5082,2.5112,2.508,2.4948,2.5061,2.5297,2.5667,2.539,2.5426,2.5715,2.5358,2.5325,2.5603,2.5731,2.6106,2.6641,2.6724,2.6673,2.6539,2.692,2.6854,2.6455,2.5699,2.5382,2.5306,0.0,0.0,0.0,0.0,0.0,0.0,0.0,0.0,0.0,0.0,0.0,0.0,0.0,0.0,0.0,0.0,0.0,0.0,0.0,2.6791,2.8946,3.0636,3.0691,3.0703,3.0709,3.057,3.0567,3.0709,3.057,3.0571,3.0696,3.0696,3.0734,3.0801,3.0801,3.0797,3.0791,3.0723,3.0658,3.0586,3.0583,3.0467,3.0286,3.0286,2.9154,2.7495,2.6977,0.0,0.0,0.0,2.5046,2.6027,2.452,2.4843,0.0,2.3934,2.2421,2.1604,2.3153,2.252,2.2121,2.4961,2.5725,2.6126,2.7543,2.7883,2.7883,2.7869,2.7771,2.7686,2.7672,2.7407,2.7218,2.727,2.7192,2.7159,2.7332,2.7363,2.6854,2.5411,2.5084,2.3759,2.0663,2.2764,2.5054,2.6834,2.6938,2.6923,2.6923,2.694,2.694,2.7021,2.7021,2.6938,2.6822,2.6888,2.6806,2.6556,2.6806,2.6888,2.6856,2.7036,2.7116,2.7149,2.721,2.721,2.7181,2.7386,2.7384,2.727,2.7432,2.7481,2.7432,2.7272,2.7096,2.692,0.0,0.0,0.0,0.0,0.0,0.0,0.0,0.0,0.0,0.0,0.0,0.0,0.0,0.0,0.0,0.0,0.0,0.0,0.0,2.5266,2.7116,2.8838,2.9891,3.0424,3.0433,3.0389,3.039,3.0424,3.0473,3.0521,3.0581,3.0601,3.0653,3.067,3.0719,3.0729,3.0742,3.0758,3.0729,3.0659,3.0613,3.0565,3.0365,2.9171,2.8229,2.7268,0.0,0.0,0.0,0.0,2.3054,2.3546,2.4082,2.3759,2.2903,2.1279,2.1898,2.2978,2.2325,2.3379,2.4853,2.5588,2.668,2.7614,2.7861,2.811,2.821,2.7844,2.7055,2.6371,2.6093,2.5087,2.4653,2.5735,2.4465,2.4334,2.713,2.5171,2.4251,2.6452,2.484,2.4016,2.5235,2.4873,2.439,2.401,2.578,2.6874,2.6874,2.6874,2.6874,2.6907,2.7004,2.7018,2.6969,2.7083,2.71,2.6987,2.71,2.7132,2.71,2.7117,2.7133,2.7133,2.7165,2.7274,2.7459,2.7582,2.7748,2.7908,2.794,2.7954,2.7954,2.7908,2.789,2.7768,0.0,0.0,0.0,0.0,0.0,0.0,0.0,0.0,0.0,0.0,0.0,0.0,0.0,0.0,0.0,0.0,0.0,0.0,0.0,0.0,2.517,2.691,2.7621,2.8,2.8047,2.8551,2.8845,2.894,2.9925,3.0424,3.047,3.056,3.0595,3.0597,3.0642,3.0667,3.0666,3.0736,3.0721,3.0576,2.9652,2.9454,2.9489,2.7381,2.629,0.0,0.0,0.0,0.0,2.1444,2.1717,2.2213,2.2678,2.2057,2.1213,2.1379,2.2404,2.3494,2.3483,2.5058,2.6759,2.7052,2.7994,2.8791,2.8529,2.8602,2.8633,2.8259,2.7443,2.646,2.5334,2.4234,2.3862,2.4913,2.3731,2.3902,2.7498,2.5685,2.4784,2.6854,2.5277,2.4653,2.6236,2.5589,2.4663,2.3684,2.5354,2.6385,2.6368,2.6368,2.6673,2.7334,2.7424,2.7485,2.75,2.7595,2.7612,2.7569,2.7582,2.7582,2.7569,2.7567,2.7081,2.6333,2.7265,2.7317,2.6819,2.7799,2.8334,2.8525,2.8515,2.8527,2.8527,2.8552,2.859,2.8522,0.0,0.0,0.0,0.0,0.0,0.0,0.0,0.0,0.0,0.0,0.0,0.0,0.0,0.0,0.0,0.0,0.0,0.0,0.0,0.0,0.0,2.4923,2.4258,2.3855,2.3903,2.5239,2.6054,2.6269,2.8632,2.9863,2.9992,3.0129,3.0199,3.0221,3.0243,3.0273,3.0279,3.0359,3.0357,3.0136,2.7736,2.7248,2.7683,2.5111,0.0,0.0,0.0,0.0,0.0,0.0,2.1136,2.2154,2.0717,2.0212,2.0755,2.3814,2.372,2.3278,2.6202,2.7146,2.7655,2.9111,2.9494,2.9492,2.9492,2.9293,2.9089,2.9004,2.8667,2.7677,2.5291,2.4644,2.4559,2.4843,2.4735,2.5549,2.8179,2.8476,2.7906,2.6519,2.6297,2.5633,2.4129,2.5124,2.5862,2.5821,2.5816,2.5782,2.5733,2.5728,2.6512,2.8246,2.83,2.834,2.8411,2.8411,2.8345,2.8223,2.8286,2.8286,2.825,2.8367,2.7178,2.5139,2.7622,2.7447,2.5581,2.8069,2.9104,2.9097,2.9095,2.9109,2.9109,2.918,2.919,2.9138,0.0,0.0,0.0,0.0,0.0,0.0,0.0,0.0,0.0,0.0,0.0,0.0,0.0,0.0,0.0,0.0,0.0,0.0,0.0,0.0,0.0,0.0,0.0,0.0,0.0,0.0,0.0,0.0,0.0,2.4459,2.4598,2.4668,2.4765,0.0,2.5531,2.5829,2.5842,2.5952,2.6343,2.677,0.0,2.5476,2.6018,0.0,0.0,0.0,0.0,0.0,0.0,0.0,2.1199,2.2696,2.3478,2.3676,2.3417,2.2325,2.3802,2.5583,2.4497,2.6441,2.8864,2.9253,2.9355,2.9345,2.9345,2.9343,2.8959,2.7648,2.6431,2.5032,2.312,2.1226,2.0988,2.4153,2.2531,2.2194,2.5938,2.544,2.4958,2.5714,2.6343,2.7007,2.7738,2.8062,2.7629,2.6212,2.6907,2.7426,2.7449,2.7522,2.7781,2.8282,2.834,2.838,2.8411,2.8411,2.8466,2.8572,2.8584,2.8694,2.8867,2.879,2.8461,2.7958,2.8528,2.8489,2.8077,2.8747,2.9042,2.9097,2.9107,2.91,2.91,2.9127,2.913,2.9159,0.0,0.0,0.0,0.0,0.0,0.0,0.0,0.0,0.0,0.0,0.0,0.0,0.0,0.0,0.0,0.0,0.0,0.0,0.0,0.0,0.0,0.0,0.0,0.0,0.0,0.0,0.0,0.0,0.0,0.0,0.0,2.2432,2.2385,2.2871,2.3361,2.3593,2.3584,0.0,0.0,0.0,0.0,0.0,0.0,0.0,0.0,0.0,0.0,0.0,0.0,0.0,0.0,2.2647,2.5398,2.5738,2.5116,2.5095,2.6162,2.7191,2.6431,2.7884,2.9608,2.9608,2.9589,2.9383,2.867,2.8474,2.7848,2.5731,2.4576,2.3202,2.0771,1.9163,1.9348,2.2861,2.1807,2.175,2.5134,2.4854,2.4612,2.5458,2.5948,2.6984,2.8963,2.9064,2.857,2.7545,2.7423,2.7347,2.7264,2.7415,2.7846,2.8639,2.8682,2.8707,2.8707,2.8749,2.8749,2.8795,2.8842,2.8911,2.9008,2.8997,2.8448,2.7569,2.8635,2.8579,2.7761,2.8911,2.9418,2.9447,2.9476,2.9485,2.9495,2.9533,2.9532,2.9579,0.0,0.0,0.0,0.0,0.0,0.0,0.0,0.0,0.0,0.0,0.0,0.0,0.0,0.0,0.0,0.0,0.0,0.0,0.0,0.0,0.0,0.0,0.0,0.0,0.0,0.0,0.0,0.0,0.0,0.0,0.0,0.0,0.0,0.0,0.0,0.0,0.0,0.0,0.0,0.0,0.0,0.0,0.0,0.0,0.0,0.0,0.0,0.0,0.0,0.0,2.3852,2.2674,2.6906,2.7229,2.6535,2.9057,2.9008,2.8338,2.9343,2.9817,3.003,3.003,2.9972,2.9561,2.8161,2.7445,2.6419,2.411,2.3139,2.1879,1.9283,1.8554,1.92,2.1741,2.2054,2.2588,2.4329,2.5226,2.555,2.5143,2.5393,2.6547,2.9002,2.8896,2.883,2.9163,2.785,2.6921,2.6644,2.6846,2.7645,2.9103,2.9118,2.9137,2.9137,2.9169,2.9137,2.899,2.9129,2.9151,2.9067,2.9172,2.8113,2.6312,2.8596,2.8424,2.6728,2.9001,2.9929,2.9953,2.9992,3.0042,3.0064,3.0116,3.015,3.0157,0.0,0.0,0.0,0.0,0.0,0.0,0.0,0.0,0.0,0.0,1.9898,2.0264,0.0,0.0,0.0,0.0,0.0,0.0,0.0,0.0,0.0,0.0,0.0,0.0,0.0,0.0,0.0,0.0,0.0,0.0,0.0,0.0,0.0,0.0,0.0,0.0,0.0,0.0,0.0,0.0,0.0,0.0,0.0,0.0,0.0,0.0,0.0,0.0,0.0,0.0,2.4572,2.4408,2.8626,2.9727,2.9153,2.7601,2.8415,2.9384,2.7549,2.856,3.0176,3.0176,3.0106,3.0019,2.9773,2.7999,0.0,2.5101,2.2574,2.0814,2.1746,2.0693,2.0507,2.3063,2.2874,2.1783,2.0038,2.3485,2.5394,2.3278,2.5452,2.7858,2.9736,2.8553,2.8198,2.9492,2.949,2.9244,2.8871,2.8881,2.906,2.9339,2.9295,2.9272,2.9272,2.9283,2.9355,2.9485,2.9561,2.9706,2.9888,2.9855,2.9653,2.9341,2.9742,0.0,2.9422,2.9874,3.0109,3.0157,3.0163,3.0241,3.0323,3.0337,3.0348,3.0353,0.0,0.0,0.0,0.0,0.0,0.0,0.0,1.9872,1.9547,1.8636,1.8475,1.8733,1.9532,1.9961,0.0,0.0,0.0,0.0,0.0,0.0,0.0,0.0,0.0,0.0,0.0,0.0,0.0,0.0,0.0,0.0,0.0,0.0,0.0,0.0,0.0,0.0,0.0,0.0,0.0,0.0,0.0,0.0,0.0,0.0,0.0,0.0,0.0,0.0,0.0,0.0,2.3135,2.3053,2.8635,3.0386,2.9843,2.7303,2.8318,2.9704,2.7146,2.8294,3.0211,3.0211,3.0183,2.9692,2.795,0.0,0.0,2.1866,1.993,1.878,1.8739,1.8,1.8641,2.25,2.278,2.2504,2.2558,2.4753,2.5882,2.4626,2.5868,2.7324,2.8615,2.7926,2.7748,2.8556,2.8707,2.8973,2.9476,2.9607,2.968,2.9706,2.9681,2.9644,2.9617,2.9644,2.9689,2.977,2.9794,2.991,3.0097,3.0075,3.008,3.0157,3.0151,2.9417,2.8339,2.9692,2.946,2.842,2.9769,3.0334,3.0407,3.0404,3.0409,3.0414,0.0,0.0,0.0,0.0,0.0,0.0,0.0,1.9257,1.89,1.7794,1.7094,1.7235,1.8629,1.9386,1.9908,0.0,0.0,0.0,0.0,0.0,0.0,0.0,0.0,0.0,0.0,0.0,0.0,0.0,0.0,0.0,0.0,0.0,0.0,0.0,0.0,0.0,0.0,0.0,0.0,0.0,0.0,0.0,0.0,0.0,0.0,0.0,0.0,0.0,0.0,0.0,2.1885,2.1756,2.7495,2.9052,2.8514,2.7239,2.8128,2.9161,2.7717,2.8734,3.0213,3.0213,3.0218,2.9408,2.6375,2.5143,2.3465,1.9296,1.7746,1.6945,1.6315,1.601,1.732,0.0,2.2084,2.2601,2.5095,2.5539,2.5785,2.627,2.6466,2.6942,2.7996,2.7716,2.7659,2.8145,2.8164,2.8619,2.9679,2.9886,2.9988,3.0046,3.003,3.0007,2.9948,3.0019,3.0015,2.9958,3.0011,3.0087,3.0184,3.0184,3.0202,3.0263,3.0318,2.89,2.6713,2.9336,2.8893,2.6823,2.9419,3.0467,3.0486,3.0486,3.0486,3.0491,0.0,0.0,0.0,0.0,0.0,0.0,0.0,1.9258,1.869,1.7031,1.6752,1.7055,1.7991,1.8109,1.873,0.0,0.0,0.0,0.0,0.0,0.0,0.0,0.0,0.0,0.0,0.0,0.0,0.0,0.0,0.0,0.0,0.0,0.0,0.0,0.0,0.0,0.0,0.0,0.0,0.0,0.0,0.0,0.0,0.0,0.0,0.0,0.0,0.0,0.0,0.0,0.0,2.2947,2.5096,2.4716,2.4058,2.6942,0.0,0.0,2.9396,3.012,3.0279,3.0279,3.0252,2.9735,2.7959,0.0,2.2514,2.1374,1.8057,1.6235,1.9192,1.9083,1.9456,0.0,0.0,2.0121,2.2661,2.3025,2.3903,2.622,2.7167,2.8285,2.9896,2.8606,2.8332,2.9928,2.9991,3.0015,3.0135,3.0159,3.019,3.0171,3.0125,3.0087,3.0087,3.0142,3.0183,3.0164,3.0365,3.0443,3.0453,3.0453,3.0477,3.0467,3.0487,2.9004,0.0,2.9419,2.9018,2.7025,2.9581,3.0656,3.0762,3.0762,3.0762,3.0764,0.0,0.0,0.0,0.0,0.0,0.0,1.9324,1.9227,1.8435,1.6211,1.5917,1.5856,1.5671,1.6571,1.8056,2.0216,0.0,0.0,0.0,0.0,0.0,0.0,0.0,0.0,0.0,0.0,0.0,0.0,1.9657,0.0,0.0,0.0,0.0,0.0,0.0,1.9952,0.0,0.0,0.0,0.0,0.0,0.0,0.0,0.0,0.0,0.0,0.0,0.0,0.0,0.0,0.0,0.0,2.19,2.1103,0.0,0.0,2.5166,2.7042,2.6017,2.7967,3.0292,3.0292,3.0273,2.9436,2.6239,0.0,2.2484,1.9116,1.7074,1.6143,1.6985,1.6842,1.7459,0.0,0.0,0.0,2.4413,2.5017,2.5983,2.8483,2.9123,2.9226,2.8898,2.8224,2.8105,2.88,2.8834,2.9268,3.0321,3.029,3.0292,3.0386,3.0346,3.0334,3.0333,3.0359,3.0381,3.0381,3.0467,3.0513,3.0564,3.0564,3.0605,3.0684,3.0684,2.8329,0.0,2.897,2.826,2.4978,2.9119,3.0749,3.0801,3.0801,3.0801,3.0801,0.0,0.0,0.0,0.0,0.0,2.0128,1.9309,1.8963,1.8073,1.6013,1.5546,1.5176,1.4544,1.605,1.7779,1.9513,2.0122,0.0,0.0,0.0,0.0,0.0,0.0,0.0,0.0,0.0,0.0,0.0,0.0,2.0362,0.0,0.0,2.0435,2.0423,0.0,0.0,0.0,0.0,0.0,0.0,0.0,0.0,0.0,0.0,0.0,0.0,0.0,0.0,0.0,0.0,0.0,0.0,0.0,0.0,0.0,0.0,2.3674,2.6316,2.4667,2.717,3.026,3.026,2.9704,2.8242,2.4795,0.0,2.1408,1.7605,1.6401,1.5939,1.5584,1.5306,1.5964,0.0,0.0,2.0173,2.4752,2.5269,2.6164,2.8901,2.9293,2.9172,2.8747,2.8678,2.8668,2.867,2.8674,2.9202,3.0467,3.0438,3.0419,3.0509,3.05,3.0505,3.0503,3.0532,3.0564,3.0564,3.0587,3.0215,2.9552,3.032,3.0292,2.9728,3.0473,2.8313,0.0,2.8985,2.8204,2.4691,2.9083,3.08,3.08,3.08,3.08,3.08,0.0,0.0,0.0,0.0,0.0,0.0,1.9234,1.842,1.7594,1.6695,1.5894,1.5391,1.539,1.6931,1.7968,1.7928,1.9495,0.0,0.0,0.0,0.0,0.0,0.0,0.0,0.0,0.0,0.0,0.0,0.0,0.0,2.0498,2.0508,2.0501,2.0495,0.0,0.0,0.0,0.0,0.0,0.0,0.0,0.0,0.0,0.0,0.0,0.0,0.0,0.0,0.0,0.0,0.0,0.0,0.0,0.0,0.0,0.0,2.3362,2.4577,2.7066,2.8957,3.0211,3.0211,2.8319,2.6,2.4363,2.1371,1.8732,1.7956,1.6406,1.5474,1.6325,1.5775,1.6039,1.8574,0.0,0.0,2.2367,2.2211,2.2998,2.6345,2.6803,2.7815,3.0321,3.0502,3.0478,3.0478,3.0478,3.0506,3.0581,3.0604,3.0565,3.0502,3.0505,3.0496,3.0496,3.0623,3.0709,3.0709,3.0767,2.9489,2.7121,2.9645,2.9411,2.7181,2.9705,2.9339,0.0,2.9749,2.928,2.7214,2.9788,3.08,3.08,3.08,3.08,3.08,0.0,0.0,0.0,0.0,0.0,0.0,0.0,1.9674,1.9034,1.7614,1.7752,1.732,1.5535,1.7464,1.8642,1.8016,1.9512,0.0,0.0,0.0,0.0,0.0,0.0,0.0,0.0,0.0,0.0,0.0,0.0,0.0,0.0,0.0,2.0429,2.0425,2.046,0.0,0.0,0.0,0.0,0.0,0.0,0.0,0.0,0.0,0.0,0.0,0.0,0.0,0.0,0.0,0.0,0.0,0.0,0.0,0.0,2.0983,2.2111,2.3095,2.2713,2.4682,2.6847,2.6847,2.6238,2.5076,2.2859,2.1517,2.0013,1.7437,1.6469,1.5992,1.5672,1.5391,1.5843,1.7868,1.7991,0.0,0.0,2.4445,2.5552,2.8952,2.9416,2.9793,3.0655,2.9684,2.9472,3.0621,2.9632,2.9509,3.0677,3.0781,3.0771,3.0708,3.0711,3.0718,3.0709,3.0743,3.0771,3.0771,3.0781,2.9478,2.7093,2.964,2.9413,2.7135,2.9698,2.935,2.7205,2.9803,2.9334,2.7264,2.9861,3.0877,3.0877,3.0877,3.0877,3.0858,0.0,0.0,0.0,0.0,0.0,0.0,0.0,1.9989,1.9421,1.8396,1.8787,1.8288,1.6004,1.8102,1.9203,1.8029,1.9479,0.0,0.0,0.0,0.0,0.0,0.0,0.0,0.0,0.0,0.0,0.0,0.0,0.0,0.0,0.0,0.0,2.0355,2.0349,0.0,0.0,0.0,0.0,0.0,0.0,0.0,2.0199,0.0,0.0,0.0,0.0,0.0,0.0,0.0,0.0,0.0,0.0,0.0,0.0,0.0,2.085,2.178,2.1313,2.3204,2.5221,2.4884,2.4355,2.3409,2.1536,2.0382,1.9201,1.7396,1.729,1.7144,1.5956,1.6271,1.6742,1.6841,1.8,1.9869,2.2726,2.3436,2.4673,2.7433,2.8677,2.9704,3.0746,2.9871,2.9677,3.0729,2.9836,2.9705,3.0742,3.0844,3.0839,3.0799,3.0825,3.0831,3.0837,3.0837,3.0837,3.0837,3.0837,2.9488,2.7084,2.9668,2.9439,2.714,2.9722,2.994,0.0,3.0234,2.9941,2.8633,3.0254,3.0898,3.0898,3.0879,3.0857,3.0813,0.0,0.0,0.0,0.0,0.0,0.0,0.0,1.9561,1.9091,1.9088,1.9146,1.8579,1.6936,1.8885,1.968,1.8111,0.0,0.0,0.0,0.0,0.0,0.0,0.0,0.0,0.0,0.0,0.0,2.05,1.9675,1.9641,2.0368,0.0,0.0,0.0,0.0,0.0,0.0,0.0,0.0,0.0,1.9918,1.9955,0.0,0.0,0.0,0.0,0.0,0.0,0.0,0.0,0.0,0.0,0.0,0.0,0.0,0.0,0.0,0.0,0.0,2.3773,2.4768,2.3956,2.2615,2.1297,2.0497,1.8539,0.0,1.7996,1.8775,1.8771,1.7091,1.8155,1.8453,1.5899,1.8311,2.0231,1.9485,2.0348,2.1562,2.2944,2.5576,2.8153,3.0399,3.0726,3.08,3.08,3.08,3.0801,3.0803,3.0804,3.0785,3.0786,3.0855,3.0877,3.0895,3.0895,3.0778,3.0524,3.0778,2.941,2.6729,2.9585,2.9468,0.0,2.9763,3.0897,3.0897,3.0898,3.0898,3.0898,3.0898,3.0898,3.0878,3.0816,3.0743,3.0695,0.0,0.0,0.0,0.0,0.0,0.0,0.0,0.0,0.0,0.0,1.9984,1.9831,1.9375,1.9912,2.0137,0.0,0.0,0.0,0.0,0.0,0.0,0.0,0.0,0.0,0.0,0.0,0.0,2.0417,2.0118,2.0053,2.0248,1.9972,0.0,0.0,0.0,0.0,0.0,0.0,0.0,0.0,1.9981,2.0016,0.0,0.0,0.0,0.0,2.0269,2.0328,0.0,0.0,0.0,0.0,0.0,0.0,0.0,0.0,2.0281,2.047,2.0859,0.0,2.1504,2.1301,2.0964,2.0621,0.0,1.9962,0.0,0.0,0.0,1.9862,1.8797,1.9476,1.9563,1.7608,1.914,2.0722,2.1132,2.369,2.4898,2.3288,2.7176,2.944,2.8048,2.9668,3.08,3.08,3.08,3.0807,3.0797,3.0742,3.0721,3.0714,3.0698,3.0729,3.0818,3.0818,2.9511,2.6953,2.957,2.8105,2.3271,2.8455,2.9412,2.7159,2.9761,3.0895,3.0895,3.0898,3.0898,3.0898,3.0787,3.0757,3.0734,3.0661,3.0638,3.0625,0.0,0.0,0.0,0.0,0.0,0.0,0.0,0.0,0.0,0.0,0.0,0.0,0.0,0.0,0.0,0.0,0.0,0.0,0.0,0.0,0.0,0.0,0.0,0.0,0.0,0.0,0.0,0.0,0.0,1.971,0.0,0.0,0.0,0.0,0.0,0.0,0.0,0.0,0.0,0.0,1.9904,0.0,0.0,0.0,0.0,0.0,2.0238,2.0334,0.0,2.0451,2.0451,2.0451,0.0,0.0,0.0,0.0,2.0459,2.041,2.0395,2.0407,2.0491,2.0898,2.0698,2.05,2.0903,0.0,0.0,0.0,0.0,2.0722,1.9472,1.9961,2.0116,1.8769,1.902,1.9976,2.1619,2.4121,2.5135,2.3315,2.5952,2.767,2.7061,2.9309,3.0795,3.0795,3.0795,3.0797,3.08,3.0739,3.0709,3.0699,3.0632,3.0638,3.0712,3.0738,2.904,2.5698,2.9113,2.8237,2.3769,2.8526,2.9969,2.8647,2.8513,2.9331,3.0633,2.9092,2.938,3.0753,3.0685,3.065,3.0645,3.0603,3.0581,3.0568,0.0,0.0,0.0,0.0,0.0,0.0,0.0,0.0,0.0,0.0,0.0,0.0,0.0,0.0,0.0,0.0,0.0,0.0,0.0,0.0,0.0,0.0,0.0,0.0,0.0,0.0,0.0,0.0,0.0,0.0,0.0,0.0,1.9123,0.0,0.0,0.0,0.0,0.0,0.0,0.0,1.982,0.0,0.0,0.0,0.0,0.0,0.0,0.0,0.0,2.0485,2.0507,2.0507,2.0507,0.0,0.0,0.0,0.0,0.0,2.0415,2.0417,2.064,2.1642,2.1141,2.065,2.1671,0.0,0.0,0.0,0.0,0.0,2.0174,2.0918,2.1232,1.9573,1.901,1.9542,2.1771,2.365,2.4375,2.3242,2.4453,2.5801,2.6875,2.9297,3.0781,3.078,3.0779,3.0779,3.0778,3.0701,3.0664,3.0679,3.0599,3.0573,3.0573,3.0652,2.897,2.5624,2.9044,2.8889,2.5708,2.9076,3.0606,3.0438,0.0,0.0,3.038,2.753,2.8043,3.0603,3.0587,3.0584,3.0601,3.0575,3.0531,3.0477,0.0,0.0,0.0,0.0,0.0,0.0,0.0,0.0,0.0,0.0,0.0,0.0,0.0,0.0,0.0,0.0,0.0,0.0,0.0,0.0,0.0,0.0,0.0,2.023,2.0139,2.0167,0.0,0.0,0.0,0.0,1.8901,1.8647,1.9003,1.9823,0.0,0.0,0.0,0.0,0.0,1.9875,1.9884,0.0,0.0,0.0,0.0,0.0,0.0,0.0,0.0,2.0454,2.0507,2.0507,2.0507,0.0,0.0,0.0,0.0,0.0,2.0485,2.0478,2.0866,2.241,2.1595,2.0813,2.2429,0.0,0.0,0.0,0.0,0.0,0.0,2.504,2.5393,2.0159,2.1003,2.2452,2.2865,2.5038,2.5723,2.3379,2.707,2.9042,2.7097,2.9224,3.0681,3.0634,3.0632,3.0639,3.0625,3.0571,3.0533,3.0533,3.0477,3.043,3.043,3.0556,2.8896,2.556,2.898,2.8813,2.5627,2.9044,3.0598,3.0572,0.0,3.0126,3.0567,3.0039,3.0142,3.0597,3.0536,3.0546,3.0593,3.0471,3.0428,3.0409,0.0,0.0,0.0,0.0,0.0,0.0,0.0,0.0,0.0,0.0,0.0,0.0,0.0,0.0,0.0,0.0,0.0,0.0,0.0,0.0,0.0,0.0,1.9868,2.0097,1.9995,1.9991,0.0,0.0,0.0,1.837,1.7955,1.8335,1.8962,1.9794,0.0,0.0,0.0,0.0,1.989,1.9958,0.0,0.0,0.0,0.0,0.0,0.0,0.0,0.0,0.0,0.0,2.0507,2.049,2.0506,0.0,0.0,0.0,0.0,0.0,2.0511,2.05,2.1136,2.3745,2.2419,2.1386,0.0,0.0,0.0,0.0,0.0,0.0,0.0,2.4028,2.4032,2.1733,2.5071,2.7475,2.6095,2.7688,2.8384,2.6706,2.8975,2.9853,2.7705,2.9832,3.1134,3.0645,3.0603,3.0594,3.0591,3.0536,3.0495,3.0501,3.0422,3.0404,3.0404,3.0472,2.879,2.5479,2.8909,2.8767,2.5569,2.8943,3.0485,3.038,0.0,2.883,3.0341,2.8532,2.8853,3.0494,3.0501,3.0525,3.053,3.0483,3.0447,3.0453,0.0,0.0,0.0,0.0,0.0,0.0,0.0,0.0,0.0,0.0,0.0,0.0,0.0,0.0,0.0,0.0,0.0,0.0,0.0,0.0,1.9587,1.8947,1.9574,1.9739,1.9325,1.9486,1.9154,1.8321,1.8084,1.7737,1.7332,1.8164,1.9015,1.9841,0.0,0.0,0.0,1.9913,1.996,1.9999,0.0,0.0,0.0,0.0,0.0,0.0,0.0,0.0,0.0,0.0,0.0,0.0,0.0,0.0,0.0,2.0494,2.0506,2.0492,2.0494,2.0492,2.1227,2.4259,0.0,0.0,0.0,0.0,0.0,0.0,0.0,0.0,0.0,2.2952,2.2648,2.4337,2.8298,3.0796,2.965,3.0562,3.1081,3.0383,3.0847,3.0665,2.9292,3.0797,3.1572,3.0897,3.0668,3.0556,3.0556,3.0506,3.0482,3.0482,3.0436,3.0404,3.0404,3.0404,2.9102,2.6602,2.9226,2.911,2.6656,2.9259,3.0402,3.0262,2.7685,2.8021,3.0198,2.7634,2.8082,3.0417,3.0469,3.0504,3.0504,3.0474,3.0488,3.0472,0.0,0.0,0.0,0.0,0.0,0.0,0.0,0.0,0.0,0.0,0.0,0.0,0.0,0.0,0.0,0.0,0.0,0.0,0.0,0.0,1.9388,1.9268,1.9555,1.9049,1.7615,1.8425,1.8416,1.7485,1.673,1.6715,1.7405,1.8273,1.9151,1.9988,0.0,1.9999,1.9988,1.9999,2.0004,1.9993,2.0004,0.0,0.0,0.0,0.0,0.0,0.0,0.0,0.0,0.0,0.0,0.0,0.0,0.0,2.0505,2.0497,2.0492,2.0505,2.0495,2.0497,2.0946,2.2812,2.1874,0.0,2.7023,2.3572,0.0,2.6967,0.0,0.0,0.0,2.4631,2.4324,2.8384,2.8721,2.954,3.2595,3.3136,3.3152,3.3023,3.3011,3.2919,3.2666,3.209,3.1662,3.1545,3.0839,3.0414,3.0414,3.0402,3.0416,3.0416,3.041,3.0404,3.0404,3.0404,3.0288,3.0038,3.029,3.0287,3.0051,3.0348,3.0458,3.0392,3.0142,3.0183,3.0385,3.0136,3.0186,3.0417,3.0469,3.0504,3.0479,3.0428,3.0419,3.0404,0.0,0.0,0.0,0.0,0.0,0.0,0.0,0.0,0.0,0.0,0.0,0.0,0.0,0.0,0.0,0.0,0.0,0.0,0.0,0.0,1.9172,1.865,1.9198,1.8762,1.7198,1.8199,1.8051,1.6659,1.6345,1.6623,1.7477,1.8307,0.0,0.0,0.0,1.9996,2.001,1.9993,1.9999,2.0004,1.9993,1.9999,0.0,0.0,0.0,0.0,0.0,0.0,0.0,0.0,2.0495,2.0492,2.0501,2.0498,2.0497,2.0509,2.0506,2.0503,2.05,2.0493,2.1169,2.3958,2.2568,0.0,0.0,2.4364,2.2496,2.8524,2.5335,0.0,0.0,2.5095,2.692,2.9131,3.0973,3.2586,3.3947,3.4529,3.4812,3.4799,3.4652,3.4336,3.375,3.3391,3.275,3.168,3.1328,3.0937,3.0423,3.0404,3.0404,3.0404,3.0404,3.0404,3.0404,3.0404,3.0404,3.0404,3.04,3.0398,3.0398,3.0469,3.0499,3.0463,3.0463,3.0458,3.0466,3.0455,3.0465,3.0465,3.0485,3.0504,3.0499,3.0425,3.0396,3.0392,0.0,0.0,0.0,0.0,0.0,0.0,0.0,0.0,0.0,0.0,0.0,0.0,0.0,0.0,0.0,0.0,0.0,0.0,0.0,0.0,1.9006,1.8423,1.9007,1.8687,1.732,1.8196,1.7842,1.6144,1.6476,1.7085,1.7959,0.0,0.0,0.0,0.0,1.9998,2.0004,1.9993,2.0007,1.9993,2.0031,2.0028,0.0,0.0,0.0,0.0,0.0,0.0,0.0,0.0,2.0501,2.0498,2.0507,2.0506,2.0503,2.0494,2.05,2.0506,2.0498,2.0505,2.1191,2.4059,0.0,0.0,2.7001,2.4834,2.3201,2.8429,2.664,2.4054,2.3838,0.0,2.8939,3.011,3.1925,3.3619,3.478,3.533,3.5602,3.5574,3.5444,3.5122,3.4481,3.4198,3.3443,3.1989,3.1672,3.1181,3.0382,3.0343,3.0343,3.0343,3.0362,3.0374,3.0374,3.0392,3.0404,3.0404,3.0431,3.0433,3.0433,3.049,3.0525,3.0495,3.0495,3.0509,3.0504,3.049,3.0465,3.0474,3.0477,3.0472,3.0486,3.0674,3.0759,3.0765,0.0,0.0,0.0,0.0,0.0,0.0,0.0,0.0,0.0,0.0,0.0,0.0,0.0,0.0,0.0,0.0,0.0,0.0,0.0,1.8922,1.8939,1.8806,1.9058,1.8794,1.7935,1.8366,1.7742,1.6015,1.7088,1.8052,1.8918,1.9711,0.0,0.0,0.0,0.0,1.9998,2.0023,2.0012,2.0004,2.0074,2.0093,2.0105,0.0,0.0,0.0,0.0,0.0,0.0,0.0,2.0498,2.0498,2.0498,2.0493,2.0507,2.0515,2.0513,2.0505,2.0526,2.0507,2.0888,0.0,0.0,0.0,2.6873,2.4827,2.281,2.6213,2.9613,3.1161,2.8566,2.8893,3.0088,3.1737,3.1137,3.1685,3.5195,3.5532,3.5361,3.5318,3.5304,3.5243,3.5119,3.4385,3.3527,3.2583,3.1825,3.1064,3.0242,3.0211,3.0211,3.0211,3.0253,3.0312,3.0312,3.0374,3.0404,3.0404,3.0472,3.0504,3.0504,3.0574,3.0559,3.0496,3.0491,3.05,3.0499,3.0428,3.0394,3.0404,3.0404,3.0404,3.0501,3.1237,3.1501,3.1601,0.0,0.0,0.0,0.0,0.0,0.0,0.0,0.0,0.0,0.0,0.0,0.0,0.0,0.0,0.0,0.0,0.0,0.0,0.0,1.8698,1.877,1.8878,1.8958,1.8959,1.8884,1.8653,1.8079,1.713,1.8012,1.8577,0.0,0.0,0.0,2.0073,0.0,0.0,2.0072,2.1313,2.1182,2.0139,2.0165,2.02,2.0245,0.0,0.0,0.0,0.0,0.0,0.0,0.0,0.0,0.0,2.051,2.0492,2.0733,2.1962,2.1461,2.0761,2.2003,2.0998,1.9991,2.1735,0.0,0.0,0.0,2.3645,0.0,0.0,2.8942,2.8837,2.7433,3.0335,3.2684,3.1922,3.3068,3.4384,3.5341,3.5405,3.5328,3.5299,3.5216,3.5136,3.5107,3.4871,3.4387,3.3538,3.2713,3.1886,3.1095,3.051,3.0211,3.0211,3.0225,3.0239,3.0239,3.0305,3.0318,3.0253,3.0329,3.0406,3.0504,3.0474,3.0449,3.0433,3.0371,3.0361,3.0355,3.0348,3.0359,3.0456,3.097,3.1173,3.1256,3.2,3.2278,3.2308,0.0,0.0,0.0,0.0,0.0,0.0,0.0,0.0,0.0,0.0,1.8733,1.8715,0.0,0.0,0.0,0.0,0.0,0.0,1.8595,1.8595,1.8669,1.8807,1.8923,1.9117,1.9402,1.9138,1.8806,1.8474,1.8698,0.0,0.0,0.0,2.0055,2.0092,0.0,2.1066,2.0116,2.1197,2.1079,2.02,2.0252,2.0302,2.0344,0.0,0.0,0.0,0.0,0.0,0.0,0.0,0.0,0.0,2.0503,2.0981,2.1536,2.1542,2.1288,2.1201,2.2252,2.1393,2.0842,2.3604,2.3256,2.2211,2.2222,0.0,0.0,0.0,3.0517,3.0486,2.9967,3.2604,3.4515,3.3423,3.4468,3.5383,3.5333,3.5231,3.5141,3.5138,3.507,3.5009,3.501,3.502,3.4678,3.3842,3.3327,3.2534,3.1378,3.0853,3.0434,3.0091,3.0128,3.0169,3.0169,3.0239,3.0233,3.0211,3.0235,3.0304,3.0377,3.0365,3.0359,3.0359,3.0318,3.0273,3.0253,3.0254,3.0458,3.0808,3.1276,3.166,3.2039,3.279,3.3088,3.3124,0.0,0.0,1.8465,1.8465,0.0,0.0,0.0,0.0,0.0,0.0,1.8641,1.8595,0.0,0.0,0.0,1.8585,1.8585,1.8585,1.8585,1.8585,1.8631,1.8706,1.8972,1.9289,1.9582,1.9682,1.975,1.9821,1.9203,0.0,0.0,0.0,2.004,2.0112,0.0,2.0255,2.0127,2.0348,2.0354,2.0231,2.036,2.0407,2.0415,2.0476,0.0,0.0,0.0,0.0,0.0,0.0,0.0,0.0,2.0502,2.1582,2.2421,2.019,2.0638,2.1852,2.2006,2.1874,2.2627,2.646,2.5004,2.3461,2.6565,2.5964,2.6172,3.12,0.0,3.4247,3.4533,3.5151,3.559,3.5564,3.5311,3.5113,3.5176,3.502,3.4898,3.4898,3.4908,3.4889,3.4907,3.4898,3.4567,3.3781,3.3705,3.2994,3.1393,3.1242,3.0806,2.9934,3.0022,3.0087,3.0087,3.0142,3.0178,3.0171,3.0194,3.0169,3.0188,3.0241,3.0273,3.026,3.026,3.0226,3.0197,3.027,3.0691,3.1309,3.1546,3.2064,3.2811,3.3614,3.3916,3.4018,0.0,0.0,1.8256,1.8256,0.0,0.0,0.0,0.0,0.0,0.0,0.0,0.0,0.0,0.0,0.0,1.8524,1.8524,1.8524,1.8524,1.8524,1.8601,1.8779,1.9193,1.9444,1.9525,1.9788,1.9941,1.9952,1.9806,0.0,0.0,0.0,0.0,2.0165,0.0,2.1459,2.0264,2.1714,2.1559,2.0369,2.0454,2.0513,2.0553,2.0515,2.0539,0.0,0.0,0.0,0.0,0.0,0.0,0.0,2.0507,2.076,2.1215,2.1954,2.2481,2.3084,2.4399,2.3256,2.1767,2.2058,2.107,2.1925,2.922,2.9539,2.9388,3.3178,3.2626,3.2236,3.4877,3.5488,3.5534,3.5323,3.5223,3.5124,3.4973,3.4927,3.4898,3.4908,3.4908,3.4908,3.4898,3.4898,3.4832,3.4624,3.4046,3.324,3.2189,3.1545,3.0806,2.9934,2.9932,2.9948,2.9948,3.0061,3.0068,2.9972,3.0076,3.0076,2.9969,3.0094,3.0087,2.9996,2.9996,3.0011,3.0103,3.0784,3.1164,3.1423,3.2756,3.3392,3.3638,3.445,3.4791,3.4836,0.0,0.0,0.0,0.0,0.0,0.0,0.0,0.0,0.0,0.0,0.0,0.0,0.0,1.8542,0.0,0.0,1.8559,1.8551,1.8553,1.8601,1.8752,1.8983,1.9227,1.9398,1.9492,1.9732,1.986,1.986,0.0,0.0,0.0,0.0,0.0,2.0131,0.0,2.1051,2.0265,2.1281,2.1194,2.0405,2.0513,2.0578,2.0605,2.0566,2.0569,2.0593,2.0568,0.0,0.0,0.0,0.0,0.0,0.0,0.0,2.162,2.1232,2.1745,2.2523,2.2993,2.3029,2.3146,2.3942,2.4413,2.5744,2.9749,3.0905,3.1734,3.3868,3.3619,3.3503,3.5186,3.5438,3.5367,3.5215,3.5115,3.5028,3.4908,3.4908,3.4908,3.4908,3.4908,3.4908,3.4908,3.4908,3.4908,3.4908,3.451,3.3903,3.307,3.2236,3.141,3.0593,3.0176,2.9964,3.0007,3.0072,3.0053,3.0007,3.0072,3.0053,3.0007,3.0003,2.9969,2.9948,2.9948,3.0192,3.0652,3.1105,3.1779,3.2577,3.346,3.4048,3.4464,3.4895,3.5084,3.5129,0.0,0.0,0.0,0.0,0.0,0.0,0.0,0.0,0.0,0.0,0.0,0.0,0.0,1.8522,1.8532,0.0,0.0,0.0,1.8595,1.8733,1.8923,1.9164,1.9222,1.9327,1.9492,1.9657,1.9732,0.0,0.0,0.0,0.0,0.0,0.0,2.0542,0.0,2.0478,2.0201,2.0335,2.041,2.0408,2.0555,2.0592,2.0609,2.0594,2.0597,2.0599,2.0596,2.0598,2.0582,2.0527,0.0,0.0,0.0,0.0,2.2124,1.9954,2.0557,2.1779,2.1036,2.2536,2.4907,2.744,2.8712,2.9447,2.9762,3.1127,3.2706,3.4019,3.4841,3.5354,3.5359,3.5151,3.5002,3.513,3.501,3.4908,3.4908,3.4908,3.4908,3.4908,3.4908,3.4908,3.4908,3.4908,3.4908,3.4908,3.4908,3.4548,3.3733,3.3013,3.2215,3.1336,3.0595,3.0182,3.0095,3.0095,3.0095,3.0095,3.0095,3.0095,3.0095,2.9999,2.9964,3.0041,3.0166,3.0633,3.1325,3.1608,3.253,3.3814,3.3944,3.4464,3.5101,3.5084,3.5129,3.5155,0.0,0.0,0.0,0.0,0.0,0.0,0.0,0.0,0.0,0.0,1.8465,1.8495,1.8495,1.8542,1.8579,1.8606,1.8592,1.8603,1.8595,0.0,0.0,1.9018,1.9301,1.9465,1.9492,1.9744,1.9892,0.0,0.0,0.0,0.0,0.0,0.0,2.2354,0.0,0.0,2.0214,2.0337,2.04,2.0408,2.0555,2.0595,2.0598,2.0598,2.06,2.0601,2.0599,2.0601,2.0585,2.0526,2.0494,0.0,0.0,0.0,2.0673,2.0332,2.1468,2.2804,2.2682,2.3451,2.4904,2.7381,2.5959,2.5426,3.1105,3.0964,3.0646,3.4297,3.4659,3.4478,3.5112,3.4595,3.4263,3.484,3.4927,3.4908,3.4908,3.4908,3.4908,3.4908,3.4908,3.4908,3.4908,3.4908,3.4908,3.4908,3.4908,3.4548,3.3733,3.3581,3.2841,3.1355,3.1184,3.079,3.0114,3.0095,3.0095,3.0095,3.0095,3.0095,3.0095,3.0087,3.008,3.0125,3.0828,3.1184,3.1412,3.2802,3.3542,3.3862,3.4574,3.4988,3.5164,3.5066,3.5066,3.5094,0.0,0.0,0.0,0.0,0.0,0.0,0.0,0.0,0.0,0.0,0.0,1.8495,1.8495,1.8559,1.8598,1.8592,1.8631,1.8706,1.8816,1.8914,1.9002,1.9051,1.9206,1.9342,1.9495,1.9656,1.9824,0.0,0.0,0.0,0.0,2.4047,2.3547,0.0,0.0,0.0,0.0,2.1365,2.1281,2.0455,2.0565,2.0598,2.0599,2.0601,2.0602,2.0603,2.0603,2.0586,2.0543,2.0511,2.0173,1.976,1.9697,0.0,0.0,0.0,2.0216,2.1323,2.3695,2.2901,2.2672,2.8014,2.6109,2.464,3.1232,3.0791,3.0145,3.4196,3.4023,3.3541,3.4798,3.4352,3.4021,3.4775,3.4908,3.4908,3.4908,3.4908,3.4908,3.4908,3.4908,3.4917,3.4945,3.4955,3.4964,3.5011,3.5011,3.4859,3.4498,3.4023,3.346,3.2779,3.1854,3.1184,3.0822,3.039,3.0161,3.0161,3.0161,3.0161,3.0161,3.0161,3.038,3.0784,3.1148,3.1827,3.276,3.3464,3.4052,3.4571,3.4933,3.5119,3.5196,3.5134,3.5134,3.5134,0.0,0.0,0.0,0.0,0.0,0.0,0.0,0.0,0.0,0.0,0.0,1.8495,1.8495,0.0,0.0,0.0,1.8688,1.8834,1.9019,1.9019,1.9035,1.9101,1.9168,1.9303,1.9506,1.9616,0.0,0.0,0.0,0.0,2.4505,2.4975,2.4503,0.0,2.4629,0.0,0.0,0.0,0.0,0.0,0.0,2.0679,0.0,0.0,2.0272,0.0,0.0,0.0,0.0,1.9928,1.9409,1.8861,1.8816,1.8355,0.0,0.0,0.0,1.9842,2.3207,2.1817,2.0875,2.694,2.5138,2.3362,2.9058,2.9081,2.9008,3.285,3.3164,3.3164,3.4624,3.4055,3.3714,3.4737,3.4908,3.4832,3.4624,3.4605,3.451,3.4282,3.4263,3.4377,3.4679,3.4698,3.4811,3.5073,3.5092,3.5092,3.5092,3.4483,3.4071,3.3903,3.2481,3.1619,3.1419,3.0605,3.0211,3.0211,3.0211,3.0211,3.0211,3.0407,3.0929,3.1632,3.1632,3.2471,3.3805,3.4005,3.4488,3.5092,3.5092,3.5145,3.5201,3.5185,3.5176,3.516,0.0,0.0,0.0,0.0,0.0,0.0,0.0,0.0,0.0,0.0,0.0,1.8495,1.8495,1.8555,1.8612,1.8595,1.877,1.8959,1.9097,1.9036,1.9036,1.9095,1.9331,0.0,1.9492,0.0,0.0,0.0,0.0,0.0,2.2867,2.4443,2.5159,2.5075,2.5159,2.513,2.4951,0.0,0.0,0.0,0.0,0.0,0.0,0.0,0.0,0.0,0.0,0.0,0.0,0.0,0.0,1.7979,1.7963,1.7929,1.8046,0.0,0.0,0.0,2.0312,2.045,2.0775,2.2641,2.1084,1.9993,2.3384,2.4701,2.6167,2.9564,3.2065,3.3884,3.4737,3.3581,3.3013,3.4624,3.4908,3.4624,3.3866,3.3752,3.3468,3.2634,3.253,3.2879,3.3786,3.3862,3.4211,3.5035,3.5092,3.5092,3.5092,3.5054,3.4681,3.3922,3.3018,3.2195,3.1503,3.0624,3.0211,3.0211,3.0211,3.0211,3.0223,3.0982,3.1775,3.2526,3.2526,3.3004,3.3843,3.4557,3.4935,3.5092,3.5092,3.5145,3.5193,3.5136,3.5101,3.5075,0.0,0.0,0.0,0.0,0.0,0.0,0.0,0.0,0.0,0.0,0.0,0.0,0.0,1.8561,1.8629,1.8669,1.8852,1.8976,1.8966,1.8992,1.9053,1.9162,1.9292,0.0,0.0,0.0,0.0,0.0,0.0,2.068,2.1885,2.2482,2.3031,2.3687,2.7045,2.6752,2.3871,2.5534,0.0,0.0,0.0,0.0,0.0,0.0,0.0,0.0,0.0,0.0,0.0,0.0,0.0,0.0,0.0,0.0,0.0,0.0,0.0,1.7032,1.8899,1.7797,1.7017,2.079,1.9054,1.7674,2.2576,2.4372,2.5491,2.7217,3.0842,3.3297,3.1943,3.2539,3.343,3.4036,3.4131,3.3828,3.2975,3.288,3.2747,3.2435,3.2397,3.2557,3.2931,3.2969,3.3101,3.3475,3.251,3.2602,3.4241,3.335,3.3393,3.4688,3.3925,3.2863,3.1503,3.0643,3.0211,3.0211,3.0211,3.0491,3.1045,3.1336,3.2184,3.344,3.3388,3.3812,3.4538,3.4785,3.4983,3.5092,3.5092,3.5145,3.5201,3.5168,3.5145,3.5084,0.0,0.0,0.0,0.0,0.0,1.8495,0.0,0.0,0.0,0.0,0.0,0.0,0.0,0.0,1.8648,1.8761,1.8878,1.8949,1.8904,1.9,1.9102,1.9208,1.935,0.0,0.0,0.0,0.0,0.0,0.0,0.0,0.0,2.0704,2.1254,2.1967,2.6066,2.6498,0.0,0.0,0.0,2.3277,0.0,0.0,2.1854,0.0,0.0,0.0,0.0,0.0,0.0,0.0,0.0,0.0,0.0,0.0,0.0,0.0,0.0,0.0,1.6839,0.0,0.0,1.7506,1.6388,1.5565,1.9478,2.2533,2.4774,2.5624,2.9981,3.3232,3.1849,3.273,3.3695,3.3695,3.3922,3.3695,3.2549,3.2397,3.2189,3.1621,3.1564,3.1703,3.2058,3.2096,3.2235,3.2561,3.1576,3.1687,3.3372,3.2726,3.3073,3.4732,3.4273,3.3318,3.1923,3.1331,3.1045,3.1045,3.1045,3.135,3.1916,3.2176,3.2878,3.3903,3.4094,3.447,3.4936,3.4917,3.4945,3.5029,3.5029,3.5065,3.5098,3.5098,3.5082,3.502,0.0,1.8469,1.8537,1.8341,1.8408,1.8495,1.8495,0.0,0.0,0.0,0.0,0.0,0.0,0.0,0.0,1.8896,1.8914,1.8914,1.8913,1.9092,1.9206,1.9209,1.9525,0.0,0.0,0.0,0.0,0.0,0.0,0.0,0.0,0.0,2.0012,2.0129,2.1973,2.4164,2.6556,0.0,2.8093,2.7711,0.0,2.3671,2.3963,0.0,0.0,0.0,2.3768,2.3269,0.0,2.2764,0.0,0.0,0.0,0.0,0.0,0.0,0.0,0.0,0.0,0.0,0.0,1.2725,1.3063,1.3629,1.3772,1.882,2.3747,2.4624,2.9445,3.3734,3.4566,3.4169,3.3733,3.3695,3.4339,3.4245,3.2587,3.2379,3.1791,3.0124,2.9934,3.0292,3.1165,3.126,3.1599,3.2466,3.2485,3.2485,3.2561,3.341,3.3928,3.3987,3.3995,3.3586,3.2756,3.2718,3.2699,3.2699,3.2691,3.2711,3.2768,3.3538,3.3903,3.3971,3.4632,3.4936,3.4992,3.4927,3.4908,3.4908,3.4908,3.4908,3.4908,3.4908,3.4908,3.4889,1.8585,1.8612,1.8584,1.8532,1.8512,1.8495,1.8495,0.0,0.0,0.0,0.0,0.0,0.0,0.0,0.0,1.8956,1.9069,1.917,1.9256,1.9309,1.9387,1.9485,1.9663,1.9857,0.0,0.0,0.0,0.0,0.0,0.0,0.0,0.0,0.0,0.0,1.9128,2.0624,2.154,2.5618,0.0,2.1308,2.6619,2.5135,0.0,0.0,0.0,2.1113,2.2845,2.3143,2.2867,0.0,2.1808,1.879,0.0,0.0,0.0,0.0,0.0,0.0,1.3826,0.0,0.0,0.0,0.0,0.0,1.3709,1.7466,2.0828,2.0516,2.5985,3.0721,3.0335,3.2591,3.4291,3.3658,3.328,3.2728,3.1678,3.2019,3.2,3.0958,3.0844,3.0701,3.0311,3.0292,3.0395,0.0,2.9581,2.9711,3.157,3.3089,3.3912,3.3928,3.3979,3.388,3.3643,3.3024,3.2699,3.2699,3.2648,3.2929,3.3508,3.3679,3.4081,3.4622,3.4775,3.4841,3.4851,3.484,3.4821,3.4831,3.4831,3.486,3.4908,3.4908,3.486,3.4829,1.8669,1.8639,1.8609,1.8588,1.8571,1.8545,0.0,0.0,0.0,0.0,0.0,0.0,0.0,0.0,0.0,1.9113,1.9206,1.9295,1.9394,1.9455,1.9535,1.967,1.9802,1.9955,0.0,0.0,0.0,0.0,0.0,0.0,0.0,0.0,0.0,0.0,1.6879,1.7585,0.0,0.0,0.0,0.0,2.6092,2.5955,2.3649,2.6087,2.5622,2.3945,2.5692,2.5822,2.5366,2.6527,2.4154,0.0,0.0,0.0,0.0,0.0,0.0,0.0,0.0,0.0,0.0,0.0,0.0,0.0,1.3602,1.742,2.0847,2.0764,2.5827,3.0035,2.9189,3.078,3.2147,3.1949,3.158,3.152,3.2079,3.2561,3.2571,3.1748,3.1654,3.1322,3.0488,3.0394,3.0251,2.9934,2.9022,2.9455,3.1644,3.3035,3.3935,3.4314,3.4359,3.4376,3.4376,3.3872,3.3617,3.3617,3.3584,3.3805,3.4251,3.4215,3.4453,3.4908,3.4831,3.4801,3.4791,3.4739,3.4739,3.4771,3.4771,3.4771,3.4781,3.4781,3.474,3.4727,0.0,1.8619,1.8608,1.8608,1.8611,1.8623,0.0,0.0,0.0,0.0,0.0,0.0,0.0,0.0,0.0,0.0,1.9243,1.9225,1.9323,1.9348,1.942,1.9537,1.9765,1.9859,1.9826,0.0,0.0,0.0,0.0,0.0,0.0,0.0,0.0,0.0,1.5314,1.5345,1.5547,1.7871,0.0,2.5994,2.4296,2.6209,2.9834,2.8081,2.7519,2.7908,3.0022,2.9563,2.8178,2.966,2.7129,0.0,0.0,0.0,0.0,0.0,1.6582,0.0,0.0,0.0,0.0,0.0,1.2554,0.0,1.3383,1.7541,2.1514,2.2425,2.6279,2.9343,2.9013,2.8493,2.8361,2.9145,2.9378,3.0318,3.2751,3.3411,3.3232,3.2157,3.227,3.2119,3.1306,3.1239,3.0935,3.0213,3.0164,3.0827,3.2313,3.3166,3.3961,3.4728,3.4851,3.4908,3.4908,3.4908,3.4908,3.4908,3.4898,3.4889,3.4889,3.486,3.4879,3.4851,3.48,3.4778,3.4768,3.4645,3.4634,3.4687,3.4687,3.4655,3.4612,3.4612,3.4612,3.4612,1.8595,1.8641,1.8669,1.8669,1.8678,1.867,0.0,0.0,0.0,0.0,0.0,0.0,0.0,0.0,0.0,0.0,0.0,1.864,1.8822,1.8256,1.7918,1.7942,1.8697,1.8794,1.8096,1.8612,0.0,0.0,0.0,0.0,0.0,0.0,0.0,0.0,1.5367,1.539,1.543,0.0,0.0,2.1129,2.4782,2.5602,2.5016,2.8671,2.7536,2.46,2.9106,2.9111,2.7028,2.7342,2.6798,2.5232,0.0,0.0,0.0,1.6132,0.0,0.0,0.0,0.0,0.0,0.0,1.3839,0.0,1.2768,1.4001,1.5502,1.6344,1.8265,2.0597,2.3138,2.4402,2.5391,2.64,2.7064,2.8175,3.0233,3.2836,3.3496,3.0637,3.2053,3.2958,3.2147,3.2072,3.2006,3.1845,3.1826,3.1977,3.2298,3.3129,3.3677,3.3838,3.4529,3.4908,3.4908,3.4908,3.4908,3.4908,3.4849,3.4829,3.4819,3.4718,3.4658,3.4658,3.4636,3.4645,3.4645,3.4612,3.4612,3.4623,3.4623,3.4612,3.4612,3.4612,3.4612,3.4612,1.8742,1.8752,1.8761,1.8788,0.0,0.0,0.0,0.0,0.0,0.0,0.0,0.0,0.0,0.0,0.0,0.0,0.0,0.0,0.0,0.0,1.7508,1.7558,1.8007,1.8043,1.7603,1.8056,1.7888,0.0,0.0,0.0,0.0,0.0,0.0,0.0,0.0,0.0,0.0,0.0,1.6913,1.9645,2.3493,2.5054,2.5462,2.9336,2.9152,2.7181,2.9766,2.9788,2.8396,2.7085,2.6641,0.0,2.3614,2.0955,1.8549,0.0,1.5824,1.4737,0.0,0.0,0.0,1.4574,1.4162,0.0,0.0,1.4274,1.5446,1.5442,1.7047,1.869,1.9467,2.0533,2.1755,2.3079,2.3973,2.5001,2.6411,3.0207,3.2692,3.225,3.3294,3.3737,3.2929,3.2853,3.2693,3.2326,3.2637,3.2853,3.2853,3.3636,3.4107,3.4107,3.4514,3.4751,3.4751,3.4751,3.4751,3.4751,3.4718,3.4697,3.4687,3.4634,3.4612,3.4612,3.4612,3.4612,3.4612,3.4612,3.4612,3.4612,3.4612,3.4612,3.4612,3.4612,3.4612,3.4612,1.8861,1.8843,1.8843,1.8887,0.0,0.0,0.0,0.0,0.0,0.0,0.0,0.0,0.0,0.0,0.0,0.0,0.0,0.0,0.0,0.0,1.7649,1.7389,1.7374,1.7374,1.7374,1.7427,1.7379,0.0,0.0,0.0,0.0,0.0,0.0,0.0,0.0,0.0,0.0,0.0,0.0,2.025,2.2829,2.4818,2.6572,2.9648,3.0452,3.0,3.0471,3.0565,3.0072,2.7483,2.6601,2.6505,2.6024,2.2595,0.0,0.0,0.0,0.0,0.0,0.0,0.0,0.0,0.0,1.3714,0.0,0.0,0.0,1.5339,1.6712,1.7654,1.6187,1.6687,1.7782,1.9139,2.0303,2.1485,2.2731,2.6553,3.0011,3.2198,3.2874,3.2914,3.2277,3.2634,3.287,3.275,3.3294,3.3631,3.3631,3.4218,3.4572,3.4572,3.4572,3.4572,3.4572,3.4583,3.4612,3.4612,3.4612,3.4612,3.4612,3.4612,3.4612,3.4612,3.4612,3.4612,3.4612,3.4612,3.4612,3.4612,3.4612,3.4612,3.4612,3.4612,3.4612,3.4612,1.8824,1.8843,1.8887,1.8895,0.0,0.0,0.0,0.0,0.0,0.0,0.0,0.0,0.0,0.0,0.0,0.0,0.0,0.0,1.6645,0.0,0.0,1.6602,1.6544,1.6544,1.6544,1.6541,1.6209,1.5471,0.0,0.0,0.0,0.0,0.0,0.0,1.539,0.0,0.0,0.0,2.0326,2.2901,2.5517,2.5343,2.4078,2.8959,2.9317,2.7526,2.9675,3.0419,3.0031,0.0,2.6601,2.6217,0.0,2.1222,1.8856,1.8731,0.0,0.0,0.0,0.0,0.0,0.0,1.4738,0.0,1.3753,0.0,1.357,1.1993,0.0,1.1915,1.1655,0.0,0.0,1.4075,1.589,1.8152,2.0809,2.2294,2.352,2.4632,2.6697,2.7993,2.7908,2.9889,3.2058,3.4172,3.4417,3.4462,3.4462,3.4483,3.4506,3.4506,3.4506,3.4506,3.4506,3.4561,3.4612,3.4612,3.4612,3.4612,3.4612,3.4612,3.4612,3.4612,3.4612,3.4612,3.4612,3.4612,3.4612,3.4612,3.4612,3.4612,3.4612,3.4612,3.4612,3.4612,1.8958,1.894,1.8948,1.8904,0.0,0.0,0.0,0.0,0.0,0.0,0.0,0.0,0.0,0.0,0.0,0.0,0.0,2.3504,2.1597,0.0,0.0,0.0,1.7442,1.6399,1.6402,1.5981,1.5603,1.527,1.5324,0.0,0.0,0.0,0.0,0.0,1.5408,0.0,1.9308,0.0,2.0772,2.3191,2.4309,2.408,2.3652,2.8836,3.0027,2.8881,2.8411,2.9182,2.9788,0.0,2.637,0.0,0.0,0.0,0.0,2.0893,0.0,0.0,0.0,0.0,0.0,0.0,0.0,0.0,1.593,0.0,1.3274,0.0,0.0,0.0,0.0,0.0,0.0,0.0,1.5328,1.6849,1.8565,1.9431,2.1334,2.5188,2.6566,2.7768,2.9204,2.8979,2.9786,3.2272,3.2451,3.2451,3.2441,3.3781,3.455,3.455,3.455,3.455,3.455,3.4591,3.4612,3.4612,3.4612,3.4612,3.4612,3.4612,3.4612,3.4612,3.4612,3.4612,3.4612,3.4612,3.4612,3.4612,3.4612,3.4612,3.4612,3.4612,3.4612,3.4612,1.9182,0.0,0.0,1.9073,0.0,0.0,0.0,0.0,0.0,0.0,0.0,0.0,2.5526,2.4997,2.5013,0.0,2.6663,2.6369,2.5268,2.3471,2.2569,2.281,1.9131,1.7321,1.7818,1.6619,1.5751,1.5306,0.0,0.0,0.0,0.0,0.0,0.0,0.0,1.6848,1.9343,0.0,2.1811,2.4232,2.4922,2.5192,2.5513,2.8541,3.0036,3.026,2.842,2.89,2.9731,2.5313,2.6294,0.0,2.5005,2.3323,2.282,0.0,0.0,0.0,1.8946,0.0,0.0,0.0,0.0,0.0,0.0,0.0,0.0,0.0,0.0,0.0,0.0,0.0,0.0,0.0,0.0,1.5823,1.6487,1.7202,1.9449,2.4276,2.5635,2.6885,2.8706,2.7862,2.7947,2.9748,3.0508,3.0902,3.0893,3.3208,3.4539,3.4539,3.4528,3.4528,3.4539,3.4539,3.455,3.4561,3.4561,3.4561,3.4561,3.4583,3.4612,3.4612,3.4612,3.4602,3.4561,3.4561,3.4561,3.4561,3.4561,3.4572,3.4612,3.4612,3.4612,3.4612,1.9485,1.9469,0.0,0.0,1.9479,0.0,0.0,0.0,0.0,0.0,0.0,2.5722,2.735,2.4669,2.376,2.6198,2.7166,2.6956,2.5306,2.5115,2.5472,2.6399,2.1544,1.9635,2.1397,1.8993,1.6939,1.5304,0.0,0.0,0.0,0.0,0.0,0.0,0.0,1.6848,1.9461,2.1934,2.4491,2.709,2.956,3.051,3.0195,0.0,2.8411,3.0492,3.0404,0.0,0.0,2.7365,2.6582,0.0,0.0,0.0,0.0,0.0,0.0,0.0,0.0,0.0,0.0,1.9007,0.0,0.0,0.0,0.0,1.4637,0.0,0.0,0.0,0.0,0.0,0.0,0.0,0.0,0.0,0.0,1.5532,1.6763,1.8648,2.1686,2.3645,2.372,2.5834,2.7223,2.7317,2.9542,3.0893,3.0893,3.3125,3.4416,3.4416,3.434,3.434,3.4416,3.4416,3.445,3.4506,3.4506,3.4506,3.4506,3.4561,3.4612,3.4612,3.4612,3.4561,3.4506,3.4506,3.4506,3.4506,3.4506,3.4539,3.4612,3.4612,3.4612,3.4612,2.0059,0.0,0.0,0.0,1.995,2.0553,2.1305,2.2275,2.3518,2.5228,2.6232,2.786,3.0669,2.998,2.9657,3.0503,3.184,3.1962,3.028,2.9622,2.9486,2.9894,2.6071,2.3499,2.2544,2.0601,1.848,1.6232,0.0,0.0,0.0,0.0,0.0,0.0,0.0,1.6851,0.0,0.0,0.0,0.0,0.0,2.8214,2.8276,0.0,2.9846,3.0496,3.0501,3.0455,0.0,2.7462,2.7712,2.8827,2.714,2.6005,2.5773,2.8179,2.58,2.2729,0.0,0.0,2.4344,2.3505,0.0,0.0,0.0,0.0,0.0,0.0,0.0,0.0,0.0,0.0,0.0,0.0,0.0,0.0,0.0,1.5612,1.6505,1.7487,1.9051,2.0905,2.3097,2.2585,2.2821,2.4556,2.5464,2.5935,2.5928,2.9812,3.2016,3.2016,3.3553,3.4393,3.4386,3.4386,3.4416,3.442,3.442,3.442,3.442,3.4461,3.4473,3.4473,3.4473,3.4461,3.442,3.442,3.4461,3.4495,3.4495,3.4539,3.4612,3.4612,3.4612,3.4636,2.0406,2.0707,2.1059,0.0,2.082,2.1712,2.2678,2.3467,2.4955,2.7743,2.8342,2.9577,3.2382,3.2176,3.205,3.2661,3.3138,3.3597,3.3993,3.1274,3.0784,3.3301,2.9032,2.6347,2.5784,2.3205,2.1212,1.9894,0.0,1.6343,0.0,0.0,0.0,0.0,0.0,1.6346,1.8144,2.1593,2.4004,0.0,0.0,2.7432,0.0,0.0,2.9827,3.0501,0.0,3.0465,3.0154,2.85,2.9038,3.0115,2.8462,2.7942,2.8253,2.9768,2.7803,2.5455,2.6923,2.7267,0.0,2.6003,2.4601,0.0,2.2393,0.0,1.7503,0.0,0.0,0.0,0.0,0.0,0.0,0.0,0.0,0.0,0.0,1.5456,1.6008,1.6607,1.8472,2.0203,2.1435,2.1166,2.1269,2.2056,2.2951,2.3424,2.3405,2.8073,3.0623,3.0314,3.2922,3.4209,3.3952,3.4209,3.434,3.4351,3.4351,3.4351,3.4351,3.4293,3.4257,3.4257,3.4257,3.4245,3.4233,3.4328,3.434,3.4328,3.4439,3.4461,3.4473,3.4561,3.4778,3.5034,2.0506,2.0735,2.1363,2.1363,2.2087,2.2962,2.3869,2.5437,2.7681,3.0924,3.0744,3.093,3.2527,3.1389,3.1083,3.2527,3.1293,3.2061,3.5914,3.033,2.9806,3.6357,3.0606,2.8387,3.0801,2.6765,2.4996,2.5758,0.0,0.0,0.0,0.0,0.0,0.0,1.541,0.0,1.5722,2.0834,2.3065,2.3392,2.5754,2.8246,3.0247,2.7819,2.8407,3.0501,3.0501,3.0451,3.041,3.0404,3.0404,3.0404,3.0404,3.0404,3.0404,3.0404,3.0254,3.008,2.9942,2.9794,2.9071,2.6524,2.5845,0.0,0.0,0.0,2.2222,0.0,0.0,0.0,0.0,0.0,0.0,0.0,0.0,0.0,0.0,0.0,1.5209,1.5785,1.9526,2.1148,1.8817,2.1454,2.2323,1.997,2.1985,2.333,2.3323,2.7755,2.9994,2.9358,3.2225,3.3564,3.3101,3.3713,3.4103,3.4293,3.4293,3.4281,3.4269,3.4086,3.3998,3.3972,3.3985,3.3947,3.3908,3.4161,3.4161,3.4023,3.4269,3.43,3.4265,3.4551,3.512,3.5757,2.0456,2.1262,2.2284,2.2324,2.3012,2.4263,2.6384,2.7587,2.8796,3.0312,3.1419,3.2222,3.2661,3.4017,3.4055,3.2,3.3108,3.3616,3.2874,3.2357,3.323,3.5848,3.4326,3.2895,3.1787,3.0037,2.8314,2.667,0.0,0.0,2.0534,0.0,0.0,0.0,0.0,1.541,1.5738,2.0849,2.4124,2.5799,2.4508,2.5551,2.7805,0.0,2.8426,3.0565,3.051,3.0496,3.0472,3.0421,3.0404,3.0404,3.0404,3.0404,3.0404,3.0404,3.0254,3.008,2.9942,2.9769,2.9439,2.8641,2.7121,2.5651,0.0,0.0,0.0,0.0,0.0,0.0,0.0,0.0,0.0,0.0,0.0,0.0,0.0,0.0,1.4997,1.5204,1.7216,1.8533,1.8398,1.9672,2.0321,1.9832,2.0332,2.1187,2.2372,2.3614,2.5585,2.8339,2.8068,2.9537,3.2987,3.2017,3.2425,3.4221,3.4221,3.4124,3.3934,3.4086,3.3902,3.349,3.3748,3.3829,3.3815,3.3684,3.3778,3.3998,3.3908,3.4191,3.4701,3.5235,3.5914,3.6634,2.1607,2.1951,2.2854,2.3659,2.5428,2.7083,2.8071,2.9261,3.0732,3.2707,3.3482,3.4158,3.4886,3.6315,3.6435,3.4545,3.432,3.4487,3.495,3.3433,3.3782,3.6663,3.5772,3.4244,3.2145,3.161,3.0664,2.9227,0.0,0.0,2.3308,0.0,0.0,0.0,0.0,1.6517,1.6833,2.1956,2.5621,2.7861,2.6384,2.7355,0.0,2.8421,2.9336,3.1192,3.1151,3.0859,3.0493,3.0427,3.0404,3.0404,3.0404,3.0404,3.0404,3.0404,3.0317,3.0208,3.0022,2.9886,2.9744,2.958,2.8465,2.7446,2.751,2.6466,2.5493,0.0,2.5485,2.5139,0.0,0.0,0.0,0.0,0.0,0.0,0.0,0.0,1.6233,1.5563,1.7506,1.8789,1.8466,1.9163,1.9687,1.9795,1.977,1.9963,2.049,2.2551,2.4068,2.4872,2.6479,2.7947,2.9266,2.8728,2.9675,3.2109,3.2109,3.2752,3.3972,3.4011,3.3757,3.3321,3.3494,3.3541,3.3473,3.376,3.3993,3.4144,3.4364,3.4963,3.5753,3.6099,3.6509,3.6934,2.3097,2.2772,2.3485,2.5224,2.8217,3.0242,2.9819,3.1235,3.3336,3.6028,3.6022,3.6228,3.7453,3.7983,3.8166,3.7959,3.5366,3.5259,3.8774,3.4245,3.3468,3.8044,3.6229,3.4374,3.283,3.2772,3.2721,3.2606,0.0,0.0,0.0,0.0,0.0,0.0,0.0,0.0,0.0,2.3344,2.677,2.9408,2.9408,3.0768,3.2574,3.0651,3.0842,3.2159,3.2081,3.139,3.0485,3.0439,3.041,3.0404,3.0404,3.0404,3.0404,3.0404,3.0404,3.0355,3.015,3.0056,2.9953,2.9761,2.9636,2.9541,2.9607,2.9607,2.9626,2.9692,2.9617,2.8896,2.6864,0.0,0.0,0.0,0.0,0.0,0.0,0.0,1.8051,1.6448,1.9139,0.0,1.8755,1.9325,1.9795,1.9782,1.977,1.9489,1.8821,0.0,2.3582,2.1187,2.5764,2.726,2.5169,2.5503,2.7158,3.001,2.9601,3.1065,3.4136,3.4057,3.3812,3.3451,3.3559,3.3527,3.3411,3.4204,3.4479,3.444,3.5178,3.6011,3.6787,3.6895,3.6897,3.6931,2.3097,2.3752,2.5281,2.6975,2.8969,3.1218,3.3859,3.5791,3.6656,3.5855,3.6849,3.721,3.6115,3.7848,3.8537,3.7146,3.7159,3.728,3.7392,3.6449,3.6655,3.8374,3.8032,3.7377,3.6419,3.6384,3.6034,3.5312,0.0,0.0,0.0,0.0,0.0,0.0,0.0,0.0,2.4175,2.298,0.0,2.9396,2.9396,2.9667,3.027,3.1972,3.2807,3.3056,3.2997,3.1917,3.0496,3.0485,3.045,3.0404,3.0404,3.0404,3.0404,3.0404,3.0404,3.0355,3.015,3.0095,3.0022,2.9822,2.9754,2.9737,2.9692,2.9673,2.9692,2.9701,2.9673,2.9533,2.9128,0.0,0.0,0.0,0.0,0.0,0.0,0.0,1.8826,1.7275,1.9936,2.101,1.8752,1.9301,1.9751,1.9641,1.97,1.9886,2.0288,0.0,1.9955,0.0,2.2468,2.4315,0.0,0.0,2.8282,3.3324,3.066,3.0976,3.3905,3.4801,3.488,3.4317,3.4987,3.5261,3.52,3.4885,3.4783,3.4871,3.5597,3.6004,3.6218,3.6781,3.6973,3.703,2.6833,2.6624,2.6915,2.7719,3.0424,3.3026,3.4689,3.7589,3.9107,3.7757,3.8703,3.9185,3.8385,3.942,3.9853,3.9049,3.8535,3.8481,3.9034,3.823,3.8153,3.9134,3.9163,3.8161,3.5994,3.6833,3.6423,3.4645,0.0,0.0,0.0,0.0,0.0,0.0,0.0,2.2605,0.0,0.0,0.0,3.0869,3.219,3.2714,3.287,3.4128,3.4323,3.3915,3.3895,3.3027,3.1835,3.1342,3.1146,3.1053,3.059,3.0433,3.0404,3.0404,3.0404,3.0373,3.0273,3.0196,3.0135,3.0019,2.9961,2.9905,2.9864,2.9855,2.9849,2.9818,2.98,2.9387,2.8038,2.545,0.0,0.0,0.0,0.0,0.0,0.0,1.8967,1.9101,2.1622,2.2714,2.115,2.1377,2.1071,1.976,1.9307,1.9014,1.8879,0.0,1.9941,0.0,0.0,0.0,2.7455,0.0,2.7724,3.1682,3.014,3.1243,3.4707,3.5243,3.5475,3.5403,3.5787,3.5784,3.5486,3.5439,3.5663,3.6014,3.6381,3.652,3.6554,3.6766,3.6829,3.6869,3.0862,3.0056,2.9442,0.0,3.257,3.501,3.5724,3.8474,4.0287,3.9805,4.0372,4.0835,4.0839,4.0921,4.0848,4.0486,3.9533,3.9142,3.9604,3.9214,3.906,3.9232,3.9778,3.8731,3.5857,3.7126,3.6735,0.0,0.0,0.0,0.0,0.0,0.0,0.0,0.0,0.0,0.0,0.0,3.2318,3.2979,3.4998,3.5795,3.5795,3.5795,3.5371,3.4769,3.4769,3.4345,3.3613,3.2686,3.2232,3.1932,3.1256,3.1,3.0923,3.0923,3.0923,3.0923,3.0923,3.0855,3.0739,3.0521,3.0388,3.0315,3.0293,3.0285,3.0304,3.0394,3.0381,2.9716,2.7655,2.6647,0.0,0.0,0.0,0.0,0.0,0.0,1.9557,2.0908,2.2928,2.3828,2.2871,2.2435,2.1354,1.9293,1.8728,1.8323,1.7969,1.9252,2.0324,0.0,0.0,2.5253,2.5949,0.0,2.7278,3.04,2.9731,3.1533,3.551,3.5677,3.6062,3.6564,3.6658,3.6401,3.5925,3.6292,3.6711,3.7126,3.7126,3.7068,3.6987,3.6826,3.6766,3.6786,3.2747,0.0,0.0,0.0,0.0,3.6634,3.9751,3.9361,3.9241,4.0653,4.0928,4.0978,4.0978,4.0945,4.0304,3.8782,3.9941,3.9178,3.5446,3.8734,3.9823,3.7544,3.9712,4.0462,3.9351,3.9488,3.9097,0.0,0.0,3.1707,0.0,0.0,0.0,0.0,0.0,0.0,0.0,3.1794,3.3328,3.5465,3.5698,3.5795,3.5795,3.5795,3.5756,3.5678,3.5678,3.5639,3.5422,3.4548,3.3645,3.2877,3.28,3.2715,3.2679,3.2679,3.2679,3.2679,3.2679,3.2654,3.2436,3.1588,3.1362,3.1327,3.1203,3.118,3.1361,3.1957,3.1937,3.1728,3.1483,2.894,2.6115,0.0,0.0,0.0,0.0,0.0,2.1649,2.1866,2.2671,2.2644,2.1187,1.9596,1.8305,1.7417,1.8019,1.8979,2.0307,1.8517,1.881,2.1792,2.2182,2.3768,2.6758,2.6052,2.8412,3.3714,3.079,3.1533,3.5529,3.6272,3.7007,3.7747,3.8181,3.8172,3.7851,3.7889,3.772,3.745,3.745,3.7281,3.7007,3.6987,3.6968,3.6968,0.0,0.0,0.0,0.0,0.0,0.0,0.0,3.9776,4.0298,4.0915,4.1036,4.1032,4.1002,4.0972,4.068,4.0013,4.06,4.0283,3.8617,4.0131,4.0632,3.9595,4.0538,4.0934,4.0581,4.0073,3.9632,0.0,0.0,0.0,0.0,0.0,0.0,0.0,0.0,3.1017,3.2105,3.3639,3.4862,3.5795,3.5795,3.5795,3.5795,3.5795,3.5795,3.5795,3.5795,3.5795,3.5756,3.541,3.4642,3.3757,3.3211,3.2995,3.2891,3.2891,3.2891,3.2891,3.2891,3.2891,3.2808,3.2436,3.2333,3.232,3.2279,3.2272,3.2285,3.2355,3.2183,3.2014,3.2014,3.086,2.9301,2.7289,0.0,0.0,0.0,0.0,0.0,2.621,2.4966,2.466,2.6507,2.2457,1.9797,2.0025,1.8098,1.7349,1.843,1.9474,2.147,2.4597,0.0,2.7656,3.1841,2.9726,3.0511,3.4179,3.3429,3.4172,3.6253,3.7039,3.7856,3.8623,3.8619,3.8517,3.8378,3.7929,3.7791,3.7844,3.7596,3.7414,3.7282,3.7208,3.6917,3.6571,3.9767,0.0,3.8074,0.0,3.8792,3.9365,3.8614,3.9984,4.0903,4.0343,4.0752,4.1064,4.1013,4.099,4.0799,4.0301,4.0733,4.051,3.9308,4.0403,4.0762,4.0015,4.0699,0.0,4.1109,4.0503,4.0185,4.0176,3.5039,0.0,0.0,0.0,0.0,0.0,3.2066,3.3114,3.3231,3.5037,3.5795,3.5795,3.5795,3.5795,3.5795,3.5795,3.5795,3.5795,3.5795,3.5795,3.5795,3.5795,3.533,3.464,3.4035,3.3765,3.366,3.366,3.3667,3.3654,3.366,3.3667,3.3596,3.3359,3.3276,3.3276,3.3276,3.3276,3.3274,3.3239,3.2977,3.2759,3.2759,3.2661,3.1968,3.0052,0.0,0.0,0.0,2.5514,0.0,2.8019,2.5745,2.5236,2.8376,2.4007,2.1123,2.153,1.8873,1.7618,1.8426,1.9996,2.2306,0.0,0.0,0.0,3.2705,3.0605,3.1218,3.4587,3.5213,3.6023,3.701,3.7766,3.8423,3.8979,3.8722,3.8631,3.8566,3.803,3.7929,3.8068,3.765,3.7505,3.7487,3.7152,3.6783,3.6451,4.3447,4.3463,4.3237,4.2361,4.2244,4.1406,3.8883,3.9984,4.0489,3.8751,4.0022,4.1074,4.1019,4.099,4.0321,3.867,4.0096,3.9308,3.5055,3.8746,3.9976,0.0,0.0,4.1109,4.1109,4.109,4.1083,4.1074,0.0,0.0,3.5785,0.0,3.3215,3.3313,3.4998,3.5756,3.5756,3.5795,3.5795,3.5795,3.5795,3.5795,3.5795,3.5795,3.5795,3.5795,3.5795,3.5795,3.5795,3.5795,3.5694,3.5588,3.5568,3.552,3.5462,3.5462,3.5476,3.5457,3.5475,3.5476,3.5271,3.4404,3.4186,3.4186,3.4186,3.4186,3.437,3.5031,3.4851,3.4564,3.4564,3.4356,3.338,3.0976,0.0,0.0,0.0,2.6713,0.0,2.5717,2.3978,2.3186,2.4086,2.2602,2.1288,2.0576,0.0,2.0882,2.1882,0.0,0.0,2.3139,2.0938,0.0,2.6944,2.6962,2.9824,3.5491,3.5491,3.6268,3.7696,3.8309,3.8634,3.8707,3.8707,3.8655,3.86,3.8585,3.8378,3.8068,3.765,3.7541,3.7503,3.6615,3.6557,3.6838,4.0192,4.2019,4.3212,4.1746,4.2464,4.2984,4.2163,4.252,4.266,4.2114,4.2002,4.1981,4.1968,4.1421,4.0857,0.0,3.9187,3.8661,0.0,3.8726,3.8921,3.986,3.9,3.8512,3.8512,3.8512,3.8486,3.8437,0.0,0.0,0.0,3.4377,3.5065,3.6774,3.6712,3.6692,3.6653,3.6047,3.5795,3.5795,3.5795,3.5795,3.5795,3.5795,3.5795,3.5795,3.5795,3.5795,3.5795,3.5795,3.5713,3.5612,3.5648,3.5595,3.5509,3.5509,3.5534,3.5579,3.5566,3.5573,3.5496,3.5175,3.5085,3.5098,3.509,3.4981,3.4948,3.516,3.4992,3.4762,3.463,3.4531,3.3635,3.1081,3.1934,0.0,2.9639,0.0,2.8165,2.7929,2.5448,2.4969,2.8087,2.5792,2.4744,2.626,0.0,0.0,0.0,0.0,0.0,0.0,2.9044,0.0,3.3881,3.1782,3.2488,3.5975,3.6541,3.7323,3.8327,3.8557,3.8689,3.8707,3.8637,3.8618,3.8585,3.8364,3.8183,3.7997,3.7632,3.7505,3.7505,3.7266,3.7152,3.7055,4.1499,4.3163,4.4233,4.2807,4.3461,4.386,4.2866,4.3276,4.3452,4.2807,4.2825,4.2884,4.2884,4.2396,0.0,4.1168,3.9645,3.939,4.0992,3.9606,3.9449,4.1031,3.9587,3.8726,3.8726,3.8738,0.0,3.8628,3.8069,3.7478,3.6906,3.6595,3.7314,3.8848,3.7974,3.7586,3.7528,3.6653,3.628,3.6261,3.5931,3.5795,3.5795,3.5795,3.5795,3.5795,3.5795,3.5795,3.5791,3.5778,3.5699,3.5607,3.5657,3.5601,3.5547,3.5547,3.5572,3.559,3.5598,3.5604,3.559,3.5554,3.5547,3.5541,3.5534,3.5427,3.5308,3.5308,3.5155,3.4981,3.4841,3.4774,3.4222,3.2569,3.3392,3.3699,3.2184,0.0,2.9209,2.9834,2.698,2.656,0.0,2.9138,2.8439,0.0,0.0,0.0,0.0,0.0,2.7353,3.1147,3.1232,3.2582,3.5418,3.3483,3.3904,3.6663,3.7406,3.8031,3.8523,3.8533,3.8501,3.8501,3.8283,3.8181,3.8165,3.7808,3.7703,3.7755,3.7247,3.7228,3.745,3.702,3.7136,3.7457,4.5858,4.6093,4.6009,4.5073,4.4995,4.4255,4.1837,4.2833,4.3282,4.1663,4.2813,4.377,4.377,4.3731,4.3048,4.1429,0.0,0.0,4.1265,4.1109,4.1051,4.1171,4.1015,4.0899,4.0822,4.0838,4.0894,4.1007,4.094,4.0893,4.0888,4.013,3.9776,3.9757,3.8887,3.8484,3.8425,3.7566,3.7197,3.712,3.63,3.5931,3.5892,3.5892,3.5853,3.5795,3.5791,3.5791,3.5782,3.5718,3.5649,3.5602,3.5593,3.5608,3.5598,3.5598,3.5602,3.5601,3.561,3.5602,3.562,3.561,3.5598,3.5598,3.5598,3.5554,3.5515,3.5515,3.5362,3.5232,3.5216,3.5119,3.5025,3.4997,3.4821,3.4601,3.4356,3.1314,2.9559,3.0833,0.0,0.0,3.1682,3.2284,3.2136,0.0,0.0,0.0,0.0,0.0,2.5808,2.8358,2.9095,3.0569,3.2861,3.2898,3.4426,3.7454,3.8099,3.8366,3.8334,3.8239,3.8174,3.8123,3.7703,3.7542,3.7523,3.7151,3.7189,3.7432,3.6731,3.6908,3.7392,3.6277,3.6848,3.8105,0.0,0.0,4.58,4.4217,4.5038,4.5703,4.5092,4.5343,4.546,4.505,4.4775,4.4619,4.4619,4.4013,4.3466,4.3035,4.1227,4.0952,4.2944,4.1225,4.0709,4.203,4.0175,3.8808,3.8134,3.8128,3.9066,4.0995,4.0984,4.0957,4.0907,4.0713,4.0616,4.0577,3.9761,3.9392,3.9334,3.846,3.8095,3.8076,3.7882,3.7392,3.6789,3.6789,3.6377,3.5791,3.5736,3.5722,3.5718,3.5644,3.5607,3.5599,3.559,3.5599,3.5595,3.5595,3.5631,3.5673,3.5687,3.5673,3.5668,3.5601,3.5596,3.5598,3.5598,3.5591,3.5585,3.5585,3.5541,3.5469,3.5379,3.5274,3.5184,3.502,3.5206,3.4491,3.1991,3.0683,2.9203,0.0,2.7638,2.8846,3.0514,3.3312,3.4466,0.0,0.0,3.2479,3.3249,3.1988,3.2605,3.5626,3.5299,3.5644,3.684,3.6858,3.7239,3.8,3.8167,3.807,3.7721,3.8054,3.8002,3.7667,3.7933,3.8037,3.8037,3.7915,3.7739,3.7541,3.7959,3.8035,3.793,3.8241,3.8784,3.9323,4.3528,4.4959,4.5937,4.4956,4.558,4.6202,4.6206,4.6202,4.6202,4.6202,4.5791,4.5498,4.5498,4.5067,4.4793,4.4793,4.2807,4.2148,4.3555,4.2324,4.1952,4.2904,4.1593,4.0416,3.9558,3.9538,4.0009,4.0941,4.0941,4.0937,4.0907,4.0907,4.0907,4.0888,4.0441,4.0247,4.0189,3.9353,3.8984,3.8965,3.8561,3.8115,3.7683,3.7661,3.7356,3.692,3.6866,3.6845,3.6834,3.6777,3.6748,3.6735,3.6716,3.6704,3.6697,3.6729,3.625,3.5704,3.5704,3.5704,3.5684,3.5648,3.5651,3.5659,3.5659,3.5628,3.5596,3.5596,3.5893,3.6132,3.6054,3.6334,3.6548,3.6431,3.5465,3.4119,3.2307,3.0389,2.9168,2.9244,2.9935,3.1331,3.367,3.5815,3.6565,3.5337,3.4211,0.0,3.5106,3.408,3.4743,3.7557,3.7575,3.7756,3.8209,3.8209,3.8209,3.8209,3.8209,3.8054,3.7827,3.8071,3.8054,3.7845,3.8258,3.8438,3.8438,3.8635,3.8649,3.8629,3.8866,3.8927,3.8903,3.9162,3.9737,4.0337,4.6191,4.6201,4.62,4.6195,4.6173,4.6171,4.6165,4.6165,4.6165,4.6165,4.6165,4.6165,4.6165,4.6165,4.6165,4.6165,4.4812,4.3977,4.3989,4.3991,4.3929,4.3786,4.3786,4.3374,4.2509,4.2347,4.1899,4.1102,4.0966,4.0907,4.0907,4.0907,4.0907,4.0907,4.0907,4.0907,4.0849,4.016,3.9864,3.9806,3.9044,3.8675,3.8554,3.8505,3.8407,3.8285,3.8212,3.8188,3.8176,3.8119,3.8079,3.8079,3.8026,3.8007,3.8033,3.8079,3.7128,3.606,3.606,3.606,3.606,3.606,3.606,3.606,3.606,3.6018,3.5981,3.5981,3.6511,3.7006,3.7006,3.7604,3.7912,3.7372,3.5366,3.364,3.2978,0.0,2.9976,3.3266,3.3191,3.4226,3.763,3.8097,3.7897,3.716,3.5309,3.5097,3.7084,3.5253,3.5074,3.7122,3.7846,3.8209,3.8209,3.8209,3.8209,3.8209,3.8334,3.8355,3.8304,3.8499,3.8553,3.8504,3.8851,3.8992,3.9008,3.9339,3.9665,3.9973,3.9747,3.984,4.0037,3.9823,4.0385,4.1214,4.6191,4.6207,4.6173,4.6128,4.6115,4.6095,4.6041,4.6032,4.6032,4.6032,4.6032,4.6032,4.6032,4.6032,4.6032,4.6032,4.5774,4.5683,4.5787,4.5792,4.5445,4.4656,4.4614,4.4214,4.332,4.2591,4.215,4.2,4.1257,4.0907,4.0907,4.0907,4.0907,4.0907,4.0907,4.0907,4.0883,4.0703,4.0629,4.0604,4.0419,3.995,3.9325,3.9313,3.8862,3.8212,3.8144,3.8125,3.8112,3.805,3.8024,3.8007,3.8,3.804,3.8079,3.8105,3.7926,3.772,3.772,3.772,3.772,3.772,3.772,3.772,3.772,3.772,3.7713,3.7713,3.7803,3.7893,3.7893,3.8009,3.7095,3.4031,3.4192,3.3382,2.9596,0.0,3.3087,3.2975,3.4477,3.5754,3.6379,3.6903,3.7187,3.7108,3.738,3.7709,3.8091,3.7746,3.7695,3.8009,3.8136,3.8209,3.8209,3.8209,3.8209,3.8209,3.8964,3.9116,3.8816,3.9909,4.0182,3.984,4.0221,4.0329,4.0221,4.0293,4.0347,4.0456,4.1087,4.1131,4.0893,4.151,4.1869,4.2019,4.6145,4.6118,4.608,4.6059,4.605,4.6036,4.6007,4.6002,4.6002,4.6002,4.6002,4.6002,4.6002,4.6002,4.6002,4.6002,4.6002,4.6022,4.6087,4.6091,4.5901,4.5471,4.5447,4.5055,4.4229,4.3355,4.2908,4.2908,4.2034,4.1607,4.1587,4.1121,4.0874,4.0844,4.0844,4.0828,4.0801,4.0754,4.0742,4.0736,4.0706,4.0481,4.0146,4.0108,3.987,3.9548,3.9474,3.9453,3.9446,3.9418,3.9384,3.9345,3.9345,3.9372,3.9372,3.9261,3.8688,3.8105,3.8105,3.8105,3.8105,3.8105,3.8105,3.8105,3.8105,3.8105,3.8105,3.8105,3.8356,3.8612,3.8719,3.8824,3.8393,3.6835,3.5759,3.4397,3.2325,3.3413,3.4266,3.3872,3.5875,3.7273,3.7273,3.7603,3.7806,3.7806,3.8152,3.8338,3.8307,3.8257,3.8224,3.8209,3.8209,3.8425,3.8893,3.8893,3.9144,3.9613,4.0011,4.0089,3.9878,4.047,4.0581,4.0347,4.0963,4.1198,4.118,4.1615,4.1796,4.1832,4.2212,4.2208,4.2053,4.2431,4.2595,4.2595,4.6072,4.6036,4.6002,4.6002,4.6002,4.6002,4.6002,4.6002,4.6002,4.6002,4.6002,4.6002,4.6002,4.6002,4.6002,4.6002,4.6002,4.6002,4.6002,4.6002,4.6002,4.6002,4.6002,4.571,4.5084,4.4248,4.3802,4.3802,4.2928,4.2408,4.2194,4.15,4.1043,4.0807,4.0776,4.0742,4.0694,4.0681,4.0675,4.0675,4.0655,4.0649,4.0642,4.0607,4.06,4.0633,4.0539,4.0519,4.0492,4.0433,4.0381,4.0336,4.0336,4.0336,4.0311,4.0139,3.934,3.8504,3.858,3.8587,3.8602,3.8656,3.8663,3.8663,3.8663,3.8616,3.8568,3.8527,3.8867,3.9202,3.9325,3.9497,3.9381,3.8687,0.0,3.5256,3.4988,3.4848,3.4973,3.556,3.7241,3.8338,3.8338,3.8433,3.8446,3.8385,3.8385,3.8443,3.8561,3.8514,3.8571,3.8786,3.8605,3.8911,3.9794,3.9794,4.0137,4.0788,4.0989,4.1046,4.0995,4.1195,4.1215,4.1126,4.176,4.1995,4.2012,4.2647,4.2901,4.2901,4.2901,4.2901,4.2901,4.2901,4.2901,4.2901,4.6012,4.6007,4.6002,4.6002,4.6002,4.6002,4.6002,4.6002,4.6002,4.6002,4.6002,4.6002,4.6002,4.6002,4.6002,4.6002,4.6002,4.6002,4.6002,4.6002,4.6002,4.6002,4.6002,4.5963,4.5905,4.5122,4.4695,4.4695,4.384,4.2986,4.2194,4.2066,4.1574,4.0807,4.073,4.07,4.0694,4.0629,4.0602,4.0595,4.0542,4.0512,4.0512,4.0504,4.0504,4.0489,4.0295,4.0233,4.0186,3.9953,3.9861,3.9851,3.9851,3.9851,3.9851,3.9829,3.9764,3.9732,3.9976,4.0041,4.0086,4.0273,4.0312,4.0312,4.0312,4.0183,3.9995,3.9805,3.9701,3.9607,3.9516,3.9542,3.85,3.5156,0.0,0.0,3.4054,3.4532,3.5834,3.8126,3.8449,3.8494,3.8494,3.843,3.8385,3.8305,3.8307,3.8632,3.9378,3.9365,3.9675,4.0488,3.9779,3.9812,4.0697,4.0697,4.0752,4.0806,4.1554,4.1902,4.1938,4.2686,4.2978,4.2904,4.2977,4.294,4.2829,4.2883,4.2901,4.2901,4.2901,4.2901,4.2901,4.2901,4.2901,4.2901,4.6812,4.6366,4.6002,4.6002,4.6002,4.6002,4.6002,4.6002,4.6002,4.6002,4.6002,4.6002,4.6002,4.6002,4.6002,4.6002,4.6002,4.5986,4.5947,4.5947,4.5964,4.5997,4.5964,4.5947,4.5947,4.5595,4.5415,4.5415,4.4543,4.3956,4.3607,4.3098,4.237,4.1474,4.1466,4.1123,4.0566,4.0557,4.0542,4.0508,4.0372,4.0313,4.0304,4.012,4.0091,4.012,4.0042,4.0012,4.0002,3.9901,3.9829,3.9808,3.9808,3.9808,3.9775,3.9648,3.9501,3.9408,3.969,3.9867,3.9973,4.0053,4.0072,4.0072,4.0072,3.9934,3.9819,3.9727,3.9474,3.9289,3.9364,3.9088,3.8474,3.7296,0.0,3.7084,3.6723,3.6909,3.7454,3.8387,3.8903,3.9179,3.9179,3.9686,3.9997,3.9982,3.9897,3.9991,4.0283,4.0146,4.0526,4.1485,4.1159,4.1211,4.1659,4.1589,4.1844,4.2426,4.2648,4.2723,4.2687,4.2996,4.3086,4.2975,4.2975,4.2938,4.2901,4.2901,4.2901,4.2901,4.2901,4.2901,4.2901,4.2901,4.2901,4.2901,4.7706,4.722,4.6818,4.6818,4.6579,4.6404,4.6404,4.6177,4.6002,4.6002,4.6002,4.5991,4.5975,4.5975,4.5964,4.5947,4.5947,4.5929,4.5861,4.588,4.5899,4.5941,4.5886,4.588,4.588,4.5808,4.5807,4.5807,4.52,4.4768,4.4497,4.3909,4.3178,4.2317,4.2287,4.187,4.1168,4.0907,4.0739,4.0659,4.0234,4.0072,4.0052,3.9861,3.9829,3.9859,3.9794,3.9761,3.975,3.9683,3.9625,3.9571,3.9571,3.9583,3.9578,3.9421,3.929,3.9229,3.9363,3.9544,3.9683,3.9775,3.9808,3.9808,3.9808,3.9634,3.9462,3.9462,3.9139,3.8882,3.9016,3.8693,3.8567,3.9113,3.8941,3.8877,3.9211,3.9264,3.9264,3.9264,3.9741,4.0054,4.0019,4.058,4.0944,4.0912,4.0826,4.0848,4.1068,4.1251,4.1651,4.2304,4.2323,4.2358,4.25,4.2411,4.2703,4.334,4.3214,4.3142,4.3104,4.3067,4.2994,4.2901,4.2901,4.2901,4.2901,4.2901,4.2901,4.2901,4.2901,4.2901,4.2901,4.2901,4.2901,4.2901,4.8599,4.8599,4.8599,4.8599,4.7881,4.7312,4.7312,4.6579,4.6021,4.6021,4.6021,4.5994,4.5937,4.5931,4.588,4.5833,4.5826,4.5826,4.5807,4.58,4.58,4.58,4.5807,4.5807,4.5807,4.5807,4.58,4.58,4.58,4.5355,4.4516,4.4445,4.3983,4.3216,4.3137,4.2954,4.264,4.1772,4.1289,4.1037,4.0176,3.9816,3.9816,3.9816,3.9816,3.9783,3.9599,3.9521,3.9483,3.9197,3.912,3.912,3.912,3.9161,3.9202,3.9133,3.9266,3.9378,3.9261,3.932,3.9476,3.9728,3.9797,3.9797,3.9797,3.9493,3.9223,3.9223,3.8847,3.8528,3.8528,3.8465,3.8707,3.9664,3.9808,4.0099,4.0985,4.1095,4.1095,4.1095,4.1095,4.1044,4.0924,4.0906,4.0857,4.0723,4.0723,4.1016,4.1669,4.2668,4.316,4.3104,4.316,4.3196,4.3196,4.3214,4.3214,4.3196,4.3123,4.3104,4.3086,4.2957,4.2901,4.2901,4.2901,4.2901,4.2901,4.2901,4.2901,4.2901,4.2901,4.2901,4.2901,4.2901,4.2901,4.2901,4.9518,4.9027,4.8599,4.8599,4.8386,4.8211,4.8211,4.7997,4.7806,4.7759,4.7753,4.7727,4.7654,4.7639,4.7652,4.763,4.763,4.7337,4.6685,4.6601,4.6307,4.569,4.5688,4.5727,4.5727,4.5684,4.5651,4.5651,4.5651,4.5536,4.5277,4.5063,4.4612,4.3957,4.3558,4.312,4.2658,4.2227,4.1992,4.1904,4.156,4.1361,4.1262,4.1171,4.1098,4.1062,4.0999,4.0971,4.0975,4.0876,4.0847,4.0847,4.0847,4.0861,4.0876,4.0861,4.0909,4.0937,4.089,4.0923,4.0682,3.9644,3.9383,3.937,3.9313,3.9593,3.9818,3.9818,3.9979,4.0143,4.0246,4.013,4.0154,4.0579,4.0632,4.0756,4.1077,4.1009,4.0958,4.0958,4.142,4.1716,4.1681,4.2192,4.2503,4.2468,4.2414,4.2468,4.2667,4.2885,4.3013,4.3104,4.3031,4.2994,4.2994,4.3068,4.3123,4.3123,4.3012,4.2957,4.2957,4.2919,4.2901,4.2901,4.2901,4.2901,4.2901,4.2901,4.2901,4.2901,4.2901,4.2901,4.2901,4.2901,4.2901,4.2901,5.0406,4.9998,4.9629,4.9629,4.9337,4.9118,4.907,4.8778,4.8535,4.8463,4.8449,4.8421,4.8319,4.8311,4.8314,4.8282,4.8298,4.8078,4.7507,4.7437,4.7115,4.6465,4.6166,4.5911,4.5671,4.5531,4.5438,4.5438,4.5332,4.5273,4.5292,4.5107,4.4851,4.4488,4.4159,4.3789,4.335,4.2855,4.2599,4.2464,4.2064,4.1846,4.1759,4.1683,4.1634,4.159,4.159,4.159,4.159,4.159,4.1619,4.1649,4.1649,4.1663,4.1678,4.1649,4.1663,4.1678,4.1649,4.1663,4.1421,4.0337,4.0109,4.0142,4.01,4.0311,4.056,4.064,4.071,4.0789,4.0943,4.0773,4.0778,4.1281,4.1353,4.1497,4.1876,4.186,4.1824,4.1824,4.221,4.2467,4.2432,4.2869,4.3142,4.3087,4.305,4.303,4.303,4.2938,4.2938,4.303,4.2938,4.2901,4.2901,4.2975,4.303,4.303,4.2938,4.2901,4.2901,4.2901,4.2901,4.2901,4.2901,4.2901,4.2901,4.2901,4.2901,4.2901,4.2901,4.2901,4.2901,4.2901,4.2901,4.2901,5.1202,5.1196,5.1171,5.1171,5.0511,4.9962,4.9899,4.9226,4.8695,4.8609,4.8601,4.857,4.845,4.8414,4.8407,4.8346,4.8382,4.837,4.8295,4.8284,4.8107,4.7681,4.6986,4.6336,4.5763,4.5369,4.515,4.515,4.4908,4.4788,4.4788,4.4776,4.4776,4.4788,4.4751,4.4599,4.4359,4.3581,4.3133,4.2835,4.2125,4.1842,4.1828,4.1842,4.1842,4.1828,4.1828,4.1828,4.1813,4.1828,4.1853,4.1911,4.1926,4.1969,4.1997,4.194,4.1969,4.1997,4.193,4.1944,4.1926,4.1683,4.1701,4.1746,4.1583,4.1416,4.1346,4.1539,4.1242,4.0975,4.1109,4.0921,4.1053,4.1887,4.2032,4.2323,4.3123,4.3233,4.3233,4.3233,4.3214,4.316,4.3104,4.3086,4.303,4.2919,4.2901,4.2901,4.2901,4.2901,4.2901,4.2901,4.2901,4.2901,4.2901,4.2901,4.2901,4.2901,4.2901,4.2901,4.2901,4.2901,4.2901,4.2901,4.2901,4.2901,4.2901,4.2901,4.2901,4.2901,4.2901,4.2901,4.2901,4.2901,4.2901,4.2901,5.1202,5.1121,5.1043,5.1043,5.084,5.0681,5.0658,5.0503,5.0357,5.0295,5.0287,5.0252,5.0173,5.0163,5.0154,5.0135,5.0153,4.9808,4.8966,4.8959,4.8528,4.7509,4.7336,4.7165,4.6946,4.5599,4.4903,4.4903,4.4825,4.4788,4.4807,4.4585,4.4599,4.4776,4.436,4.4265,4.4369,4.3975,4.3788,4.3742,4.3729,4.3688,4.3644,4.3743,4.3714,4.3647,4.3647,4.3565,4.35,4.3598,4.358,4.3531,4.3685,4.3718,4.3674,4.3659,4.3659,4.3659,4.3531,4.3441,4.3381,4.3362,4.3262,4.2797,4.1445,4.1618,4.2079,4.2196,4.2489,4.279,4.2981,4.2879,4.2866,4.3117,4.3136,4.3226,4.3409,4.3375,4.3376,4.3376,4.3269,4.316,4.3104,4.2994,4.2938,4.2901,4.2901,4.2901,4.2901,4.2901,4.2901,4.2901,4.2901,4.2901,4.2901,4.2901,4.2901,4.2901,4.2901,4.2901,4.2901,4.2901,4.2901,4.2901,4.2901,4.2901,4.2901,4.2901,4.2901,4.2901,4.2901,4.2901,4.2901,4.2901,4.2901,4.2901,5.1062,5.0995,5.0947,5.0947,5.0929,5.089,5.0869,5.0841,5.0836,5.0758,5.0749,5.075,5.0693,5.0554,5.0421,5.0333,5.0317,5.0103,4.956,4.9564,4.9236,4.848,4.8109,4.784,4.7636,4.6356,4.5563,4.5279,4.516,4.4884,4.4508,4.4294,4.4275,4.4402,4.414,4.4079,4.4192,4.4128,4.4104,4.4119,4.424,4.427,4.4259,4.4329,4.4285,4.4199,4.4244,4.418,4.4104,4.4101,4.4104,4.4135,4.4255,4.424,4.4214,4.4289,4.415,4.4013,4.3989,4.383,4.3651,4.3615,4.3546,4.3256,4.2515,4.2645,4.2941,4.2975,4.3168,4.3393,4.348,4.3411,4.3323,4.3339,4.3375,4.3375,4.3375,4.3322,4.3286,4.3286,4.3251,4.316,4.3104,4.2975,4.2901,4.2901,4.2901,4.2901,4.2901,4.2901,4.2901,4.2901,4.2901,4.2901,4.2901,4.2901,4.2901,4.2901,4.2901,4.2901,4.2901,4.2901,4.2901,4.2901,4.2901,4.2901,4.2901,4.2901,4.2901,4.2901,4.2901,4.2901,4.2901,4.2901,4.2901,4.2901,5.0898,5.089,5.0882,5.0882,5.0822,5.078,5.0784,5.0701,5.0635,5.0624,5.0565,5.0544,5.0544,5.0302,5.0056,4.9897,4.9897,4.9891,4.9917,4.993,4.9798,4.9525,4.8899,4.8442,4.8221,4.7526,4.6776,4.5966,4.5735,4.5277,4.4624,4.4361,4.4256,4.4256,4.411,4.402,4.4036,4.4135,4.4169,4.4165,4.424,4.427,4.4285,4.4285,4.4259,4.4199,4.4255,4.4259,4.4184,4.4085,4.4135,4.4229,4.43,4.4304,4.4259,4.4325,4.4116,4.3867,4.3926,4.3732,4.3479,4.3391,4.332,4.3391,4.3686,4.3634,4.3531,4.3548,4.3481,4.3412,4.3411,4.3322,4.325,4.325,4.325,4.3251,4.3233,4.3232,4.3251,4.3233,4.3196,4.316,4.3104,4.2975,4.2901,4.2901,4.2901,4.2901,4.2901,4.2901,4.2901,4.2901,4.3065,4.3137,4.3137,4.3283,4.3356,4.3356,4.3356,4.3283,4.3137,4.3137,4.3229,4.3356,4.3356,4.3356,4.3356,4.3356,4.3356,4.3337,4.3192,4.3118,4.31,4.2955,4.2901,4.2901,5.0898,5.0841,5.0819,5.0819,5.0537,5.0383,5.0664,5.026,5.0025,5.0249,5.0062,4.9923,4.9923,4.9884,4.9838,4.9817,4.987,4.9803,4.9583,4.9627,4.9525,4.9276,4.9211,4.9121,4.9046,4.908,4.8287,4.6569,4.6542,4.647,4.634,4.5633,4.5301,4.5263,4.4512,4.4184,4.4169,4.407,4.402,4.4036,4.4165,4.4214,4.4214,4.4289,4.4259,4.4199,4.4199,4.4199,4.4199,4.424,4.427,4.43,4.443,4.443,4.434,4.4185,4.4109,4.4036,4.3867,4.3669,4.3515,4.3548,4.348,4.3411,4.3515,4.3375,4.3286,4.3394,4.3412,4.3429,4.348,4.348,4.3463,4.3463,4.3463,4.3445,4.3376,4.341,4.3445,4.3376,4.3269,4.316,4.3104,4.2975,4.2901,4.2901,4.2901,4.2901,4.2901,4.2901,4.2901,4.2901,4.3684,4.4122,4.4122,4.4853,4.5237,4.5237,4.5237,4.4835,4.4122,4.4122,4.4524,4.5237,4.5237,4.5237,4.5237,4.5237,4.5198,4.5066,4.4395,4.4047,4.3842,4.3173,4.2901,4.2901,5.0794,5.0616,5.0457,5.0457,5.0176,5.0025,5.0166,4.9974,4.9838,4.9955,4.9865,4.9803,4.9803,4.967,4.9495,4.9312,4.9309,4.9331,4.9292,4.9289,4.9292,4.9195,4.9228,4.9244,4.926,4.9343,4.9018,4.8272,4.7738,4.7239,4.6809,4.637,4.6168,4.6149,4.5783,4.5341,4.4912,4.4894,4.4629,4.4218,4.4329,4.4344,4.4314,4.4387,4.4344,4.4259,4.4214,4.4497,4.4873,4.4873,4.5106,4.5427,4.5491,4.5411,4.528,4.5245,4.5129,4.5047,4.4979,4.4838,4.4693,4.4711,4.473,4.4748,4.4766,4.4766,4.4473,4.3629,4.3464,4.3463,4.3479,4.3515,4.3515,4.3515,4.3463,4.3429,4.3394,4.3358,4.3322,4.3286,4.3634,4.3852,4.3834,4.4179,4.4395,4.4395,4.4395,4.4395,4.4395,4.4395,4.4395,4.4395,4.4816,4.5036,4.5036,4.5402,4.5603,4.5603,4.5603,4.5402,4.5036,4.5036,4.5237,4.5603,4.5603,4.5565,4.5544,4.5544,4.5486,4.5352,4.5007,4.4823,4.4729,4.4367,4.424,4.4168]}]]